     2              OBSERVATION DATA    GPS                 RINEX VERSION / TYPE
ASHTORIN MIT 25 - NOV - 96 15:50                            PGM / RUN BY / DATE
                                                            COMMENT
China Lake 1996 EXTP #2 Ashtech P-Code                      COMMENT
Original Marker Name: GS24                                  COMMENT
Campaign Name: China Lake Nov 1996                          COMMENT
4-Character Station Name: GS24                              COMMENT
6-Character Antenna Code: ASHP12                            COMMENT
Vertical Measurement Point: TGP                             COMMENT
Vertical Offset to Rinex Ref. Point: 0.0640                 COMMENT
Radial Measurement Point: RRP                               COMMENT
Radial Offset to Rinex Ref. Point: 0.0000                   COMMENT
Antenna Height from Field Measurement: 0.2310 m             COMMENT
Additional Antenna Identification Info.:                    COMMENT
Ashtech L1/L2 Revision B (700228DE)                         COMMENT
Original XYZ: -2358942.5400 -4594200.7800 3731779.2200      COMMENT
New XYZ position is based on association with SCEC monument COMMENT
E1F4N3W8+0011. Position of that monument is believed to be  COMMENT
valid to within 1 m horizontally; vertical accuracy         COMMENT
should be no worse than 3-times this value.                 COMMENT
                                                            COMMENT
Revised Rinex header created by UCSD GPS archive for        COMMENT
GSAC on 01-Aug-2000 (2000:214) 15:52:22 GMT                 COMMENT
For assistance contact dagnew@ucsd.edu                      COMMENT
or anderson@python.ucsd.edu                                 COMMENT
                                                            COMMENT
GO24                                                        MARKER NAME
gs24                                                        MARKER NUMBER
RES BMA                                                     OBSERVER / AGENCY
434 ASHTECH Z-XII3 1G001C7                                  REC # / TYPE / VERS
103 ASHTECH GEODETIC P                                      ANT # / TYPE
 -2386885.0146 -4588641.4775  3722489.1245                  APPROX POSITION XYZ
        0.1670        0.0000        0.0000                  ANTENNA: DELTA H/E/N
     1     1     0                                          WAVELENGTH FACT L1/2
     7    L1    L2    C1    P1    P2    D1    D2            # / TYPES OF OBSERV
    30                                                      INTERVAL
  1996    11    19    15    52    0.000000                  TIME OF FIRST OBS
  1996    11    19    22    30   30.000000                  TIME OF LAST OBS
                                                            END OF HEADER
 96 11 19 15 52  0.0000000  0  7 21  3 17 23  9  1 31               -0.001458412
    -23472.56019    -15518.69058  17770500.551           0.0005   17770507.1825
       765.753         596.691
      3371.88219      2024.28858  18475606.358           0.0005   18475615.0455
      -135.076        -105.254
     58396.50819     33300.26157  19386933.305           0.0005   19386941.7375
     -2107.361       -1642.099
     28041.50019     16685.72158  18778077.383           0.0005   18778083.9205
     -1055.490        -822.460
    -14475.30219     -8643.57453  20665113.821           0.0005          0.0005
       539.094         420.073
    -64099.32719    -38302.28553  17930121.346           0.0005          0.0005
      2413.417        1880.585
    -37604.24719    -13855.19552  20093065.216           0.0005          0.0005
      2136.868        1665.092
 96 11 19 15 52 30.0000000  0  7 21  3 17 23  9  1 31               -0.001467706
    -46280.331 9    -33290.99348  17766160.916    17766161.2335   17766166.8724
       755.256         588.511
      7778.261 9      5457.81348  18476443.455    18476447.9305   18476453.6864
      -158.505        -123.510
    121849.800 9     82744.32747  19399011.592    19399009.8675   19399016.4794
     -2122.481       -1653.881
     59838.972 9     41462.96448  18784126.501    18784128.9665   18784134.6484
     -1064.018        -829.105
    -30327.506 9    -20995.99457  20662099.087           0.0005   20662104.7185
       517.971         403.614
   -136191.188 9    -94477.75358  17916400.467           0.0004          0.0005
      2393.802        1865.300
   -101388.950 9    -63561.83255  20080927.058           0.0004          0.0005
      2115.587        1648.509
 96 11 19 15 53  0.0000000  0  7 21  3 17 23  9  1 31                0.000134648
    -68775.762 9    -50819.90148  20759802.239    20759805.0294   20759810.7244
       744.754         580.328
     12883.531 9      9435.90848  21475340.803    21475343.7794   21475349.7404
      -182.005        -141.822
    185723.220 9    132515.76348  22409089.764    22409089.2814   22409095.8134
     -2137.211       -1665.359
     91880.743 9     66430.56848  21788148.977    21788150.8814   21788156.5704
     -1072.925        -836.045
    -45554.478 9    -32861.16647  23657123.017    23657125.3585   23657131.7234
       497.281         387.492
   -207702.125 9   -150200.56858  20900717.389           0.0005   20900726.4345
      2374.979        1850.633
   -164508.688 9   -112746.23557  23066840.145    23066841.3225   23066847.3355
      2093.603        1631.379
 96 11 19 15 53 30.0000000  0  7 21  3 17 23  9  1 31                0.000125553
    -90959.803 9    -68106.17458  20755584.503    20755583.6205   20755589.2685
       734.714         572.504
     18697.359 9     13966.13158  21476445.375    21476450.2155   21476456.0255
      -205.081        -159.803
    250061.978 9    182649.81157  22421337.374    22421332.6045   22421339.1265
     -2151.492       -1676.487
    124205.251 9     91618.48058  21794300.091    21794302.0985   21794307.7415
     -1081.429        -842.672
    -60154.061 9    -44237.47057  23654347.799    23654346.7875   23654353.4525
       476.523         371.317
   -278655.744 9   -205489.09758  20887216.396    20887218.5105   20887224.6715
      2355.517        1835.468
   -226992.753 9   -161435.15657  23054945.608    23054951.5775   23054956.2905
      2072.554        1614.977
 96 11 19 15 54  0.0000000  0  7 21  3 17 23  9  1 31                0.000116454
   -112836.137 9    -85152.67648  20751420.265    20751420.6994   20751426.4034
       723.972         564.134
     25203.071 9     19035.49348  21477684.961    21477688.2264   21477694.1234
      -228.257        -177.863
    314818.595 9    233109.45747  22433657.268    22433655.3614   22433661.9304
     -2165.178       -1687.152
    156780.361 9    117001.67148  21800499.338    21800500.9874   21800506.6074
     -1089.717        -849.130
    -74137.091 9    -55133.34247  23651685.537    23651685.9734   23651692.5754
       455.937         355.276
   -349003.558 9   -260305.57448  20873829.784    20873831.7444   20873837.9404
      2334.545        1819.126
   -288843.548 9   -209630.61747  23043176.362    23043181.4904   23043186.3224
      2051.077        1598.242
 96 11 19 15 54 30.0000000  0  7 21  3 17 23  9  1 31                0.000107424
   -134402.407 9   -101957.57048  20747315.864    20747316.7874   20747322.5384
       713.763         556.179
     32388.193 9     24634.25148  21479052.861    21479055.5364   21479061.5324
      -250.731        -195.375
    379966.551 9    283874.04147  22446052.940    22446052.6784   22446059.2274
     -2177.928       -1697.087
    189584.222 9    142563.11148  21806741.550    21806743.3724   21806749.0014
     -1097.119        -854.898
    -87508.377 9    -65552.52747  23649141.117    23649141.7114   23649148.1344
       435.545         339.386
   -418730.796 9   -314638.48648  20860561.434    20860563.1224   20860569.2534
      2314.280        1803.335
   -350070.604 9   -257339.99747  23031525.757    23031529.9544   23031535.4224
      2030.633        1582.311
 96 11 19 15 55  0.0000000  0  7 21  3 17 23  9  1 31                0.000098428
   -155652.980 9   -118516.46648  20743271.890    20743272.9934   20743278.7114
       703.184         547.936
     40251.077 9     30761.14148  21480549.043    21480551.7894   21480557.8974
      -273.133        -212.831
    445497.275 9    334936.88147  22458522.926    22458522.8534   22458529.3684
     -2190.483       -1706.870
    222611.979 9    168299.01048  21813026.586    21813028.3464   21813034.0024
     -1104.363        -860.543
   -100260.700 9    -75489.39547  23646713.695    23646715.1244   23646721.3634
       414.699         323.142
   -487853.100 9   -368500.01148  20847407.989    20847409.6084   20847415.7614
      2294.310        1787.774
   -410679.964 9   -304568.08047  23019992.941    23019996.4094   23020001.9174
      2010.270        1566.444
 96 11 19 15 55 30.0000000  0  7 21  3 17 23  9  1 31                0.000089475
   -176582.377 9   -134825.10148  20739289.059    20739290.2874   20739296.0214
       692.354         539.497
     48793.107 9     37417.23048  21482174.982    21482177.4114   21482183.3564
      -296.212        -230.815
    511409.953 9    386297.35547  22471064.892    22471065.6484   22471072.1674
     -2203.556       -1717.057
    255850.301 9    194198.98248  21819351.666    21819353.3994   21819359.0974
     -1111.210        -865.878
   -112369.905 9    -84925.12247  23644408.813    23644411.0424   23644416.9364
       392.807         306.083
   -556377.604 9   -421895.72548  20834368.197    20834369.8474   20834376.0004
      2274.370        1772.236
   -470681.893 9   -351322.89647  23008575.511    23008578.6444   23008583.6984
      1989.896        1550.568
 96 11 19 15 56  0.0000000  0  7 21  3 17 23  9  1 31                0.000080561
   -197192.429 9   -150884.88648  20735366.953    20735368.3354   20735374.1174
       681.880         531.335
     58006.988 9     44596.85548  21483928.375    21483930.7774   21483936.6344
      -317.918        -247.728
    577695.975 9    437948.74347  22483678.466    22483679.5294   22483686.0724
     -2215.441       -1726.318
    289268.792 9    220239.34648  21825710.960    21825712.7204   21825718.4704
     -1116.544        -870.034
   -123839.559 9    -93862.50847  23642225.786    23642228.5444   23642234.2824
       371.950         289.831
   -624331.480 9   -474846.79548  20821436.884    20821438.6804   20821444.8264
      2256.271        1758.133
   -530079.490 9   -397606.71247  22997272.800    22997275.5314   22997280.8364
      1970.019        1535.080
 96 11 19 15 56 30.0000000  0  7 21  3 17 23  9  1 31                0.000071701
   -217473.277 9   -166688.15348  20731507.493    20731509.0474   20731514.8354
       670.552         522.508
     67897.742 9     52303.91548  21485810.571    21485812.9824   21485818.6814
      -340.932        -265.661
    644366.029 9    489899.38247  22496365.008    22496366.5004   22496373.0474
     -2228.915       -1736.817
    322869.851 9    246421.96948  21832105.074    21832106.8264   21832112.5984
     -1123.213        -875.231
   -134650.892 9   -102286.91547  23640167.778    23640171.0754   23640176.9264
       349.284         272.169
   -691734.745 9   -527368.80948  20808610.448    20808612.2474   20808618.4234
      2237.747        1743.699
   -588853.652 9   -443404.77147  22986088.698    22986091.1634   22986096.6104
      1948.456        1518.277
 96 11 19 15 57  0.0000000  0  7 21  3 17 23  9  1 31                0.000062911
   -237434.487 9   -182242.34848  20727709.047    20727710.5814   20727716.3644
       660.062         514.334
     78451.674 9     60527.72448  21487818.937    21487821.3404   21487827.1534
      -362.774        -282.681
    711423.171 9    542151.64047  22509125.669    22509127.1104   22509133.6464
     -2241.633       -1746.727
    356649.021 9    272743.38648  21838532.999    21838534.8434   21838540.6404
     -1128.937        -879.691
   -144802.662 9   -110197.37447  23638235.725    23638239.3464   23638245.0424
       327.498         255.193
   -758598.762 9   -579470.63748  20795886.509    20795888.4534   20795894.6094
      2219.565        1729.531
   -646987.630 9   -488703.99847  22975026.496    22975028.7034   22975034.1404
      1927.118        1501.650
 96 11 19 15 57 30.0000000  0  7 21  3 17 23  9  1 31                0.000054185
   -257077.135 9   -197548.31548  20723971.118    20723972.7314   20723978.5084
       649.762         506.308
     89666.812 9     69266.76248  21489953.152    21489955.5494   21489961.3984
      -384.593        -299.683
    778867.399 9    594705.52847  22521959.746    22521961.3584   22521967.9394
     -2254.415       -1756.687
    390609.182 9    299205.83848  21844995.436    21844997.3184   21845003.0954
     -1134.914        -884.349
   -154300.607 9   -117598.36447  23636428.785    23636432.0344   23636437.7294
       306.180         238.582
   -824900.474 9   -631134.30548  20783269.630    20783271.6414   20783277.7694
      2200.790        1714.901
   -704477.747 9   -533501.49847  22964086.334    22964088.6314   22964094.1534
      1905.737        1484.990
 96 11 19 15 58  0.0000000  0  7 21  3 17 23  9  1 31                0.000045508
   -276418.100 9   -212619.20548  20720290.622    20720292.3024   20720298.0954
       639.918         498.637
    101521.197 9     78503.91648  21492209.315    21492211.4114   21492217.3744
      -405.694        -316.125
    846689.263 9    647553.66847  22534865.452    22534867.4654   22534874.0664
     -2266.938       -1766.445
    424749.019 9    325808.29348  21851492.259    21851494.0174   21851499.7614
     -1141.155        -889.212
   -163173.908 9   -124512.62047  23634740.751    23634743.5204   23634749.4284
       285.516         222.480
   -890643.012 9   -682362.25548  20770759.190    20770761.2924   20770767.3934
      2182.200        1700.416
   -761333.284 9   -577804.50847  22953266.897    22953269.2174   22953275.0444
      1884.857        1468.720
 96 11 19 15 58 30.0000000  0  7 21  3 17 23  9  1 31                0.000036881
   -295487.810 9   -227478.72848  20716661.835    20716663.5064   20716669.2764
       631.760         492.281
    114007.724 9     88233.64148  21494585.429    21494587.5484   21494593.5324
      -426.296        -332.179
    914887.280 9    700694.93247  22547843.353    22547845.1374   22547851.7924
     -2279.194       -1775.995
    459072.513 9    352553.85148  21858023.933    21858025.6454   21858031.3584
     -1146.733        -893.558
   -171442.142 9   -130955.40447  23633167.927    23633170.0134   23633176.1794
       266.137         207.379
   -955838.471 9   -733163.90448  20758353.222    20758355.0364   20758361.1344
      2164.399        1686.545
   -817578.241 9   -621631.75347  22942563.953    22942566.1424   22942571.9944
      1865.165        1453.375
 96 11 19 15 59  0.0000000  0  7 21  3 17 23  9  1 31                0.000028298
   -314301.442 9   -242138.70648  20713081.619    20713083.3994   20713089.1814
       623.047         485.491
    127130.906 9     98459.47148  21497082.735    21497084.8584   21497090.7994
      -448.148        -349.206
    983465.514 9    754132.45047  22560893.049    22560895.1884   22560901.8794
     -2292.089       -1786.043
    493574.620 9    379438.59548  21864589.359    21864591.2004   21864596.9354
     -1152.928        -898.385
   -179124.250 9   -136941.46746  23631706.202    23631708.0314   23631714.5614
       246.530         192.101
  -1020478.819 9   -783533.00149  20746052.320    20746054.4104   20746060.5404
      2145.556        1671.862
   -873228.549 9   -664995.66347  22931974.239    22931976.3274   22931982.1124
      1845.422        1437.991
 96 11 19 15 59 30.0000000  0  7 21  3 17 23  9  1 31                0.000019755
   -332871.242 9   -256608.69048  20709547.943    20709549.7164   20709555.4894
       614.837         479.094
    140899.981 9    109188.60548  21499702.976    21499705.1344   21499711.0144
      -469.911        -366.164
   1052417.448 9    807861.16947  22574014.499    22574016.3094   22574023.0334
     -2304.874       -1796.006
    528249.855 9    406458.24748  21871187.974    21871189.7084   21871195.4654
     -1158.793        -902.956
   -186233.883 9   -142481.45346  23630353.336    23630355.0464   23630361.5274
       227.213         177.049
  -1084576.610 9   -833479.32549  20733855.207    20733857.0174   20733863.1804
      2127.485        1657.781
   -928307.429 9   -707914.28047  22921493.195    22921495.2244   22921501.0314
      1826.156        1422.979
 96 11 19 16  0  0.0000000  0  7 21  3 17 23  9  1 31                0.000011265
   -351199.197 9   -270890.22148  20706060.179    20706062.0314   20706067.8014
       607.236         473.171
    155313.198 9    120419.66748  21502445.618    21502447.9104   21502453.8584
      -490.875        -382.500
   1121750.437 9    861886.79947  22587208.698    22587209.9974   22587216.6884
     -2316.917       -1805.390
    563089.664 9    433606.13448  21877817.633    21877819.4824   21877825.2684
     -1163.696        -906.776
   -192763.835 9   -147569.71547  23629111.430    23629112.7494   23629118.7554
       208.223         162.252
  -1148136.428 9   -883006.44849  20721760.198    20721761.9624   20721768.1744
      2109.959        1644.124
   -982809.642 9   -750383.55447  22911121.877    22911123.8514   22911129.6734
      1807.431        1408.388
 96 11 19 16  0 30.0000000  0  7 21  3 17 23  9  1 31                0.000002816
   -369298.557 9   -284993.62348  20702616.095    20702617.8824   20702623.6564
       599.441         467.097
    170364.243 9    132147.71848  21505309.695    21505312.0374   21505318.0304
      -512.391        -399.266
   1191443.384 9    916192.93647  22600470.427    22600472.2184   22600478.8984
     -2329.067       -1814.857
    598083.833 9    460874.30748  21884476.729    21884478.6504   21884484.4434
     -1169.123        -911.005
   -198720.564 9   -152211.31547  23627976.965    23627979.5114   23627985.0124
       188.934         147.221
  -1211161.562 9   -932116.92949  20709766.800    20709768.6814   20709774.9144
      2091.627        1629.839
  -1036737.997 9   -792405.66947  22900859.647    22900861.6104   22900867.4074
      1787.708        1393.019
 96 11 19 16  1  0.0000000  0  7 21  3 17 23  9  1 31               -0.000005583
   -387165.616 9   -298916.01348  20699216.213    20699217.9234   20699223.6864
       591.276         460.735
    186050.018 9    144370.35848  21508294.635    21508296.9234   21508302.9994
      -533.525        -415.734
   1261486.991 9    970772.30647  22613799.474    22613801.1194   22613807.8504
     -2340.824       -1824.019
    633240.147 9    488268.81848  21891166.880    21891168.6864   21891174.4884
     -1174.961        -915.554
   -204098.605 9   -156401.97247  23626954.044    23626956.2564   23626961.4954
       169.176         131.825
  -1273635.258 9   -980797.72849  20697878.382    20697880.3734   20697886.5834
      2073.010        1615.332
  -1090075.468 9   -833967.35047  22890709.903    22890711.9314   22890717.6454
      1767.617        1377.364
 96 11 19 16  1 29.9990000  0  7 21  3 17 23  9  1 31               -0.000013951
   -404792.540 9   -312651.28548  20695861.895    20695863.6174   20695869.3494
       583.817         454.922
    202343.872 9    157066.83748  21511395.203    21511397.5374   21511403.6264
      -552.832        -430.778
   1331865.015 9   1025612.25847  22627191.980    22627193.6554   22627200.4544
     -2351.273       -1832.161
    668559.181 9    515790.12848  21897887.763    21897889.6854   21897895.4924
     -1179.717        -919.260
   -208887.918 9   -160133.89947  23626041.977    23626044.7704   23626050.3214
       150.072         116.939
  -1335559.349 9  -1029050.26049  20686094.834    20686096.6164   20686102.8224
      2055.256        1601.498
  -1142817.589 9   -875065.09147  22880673.622    22880675.5684   22880681.3534
      1748.428        1362.411
 96 11 19 16  1 59.9990000  0  7 21  3 17 23  9  1 31               -0.000022295
   -422176.941 9   -326197.57548  20692553.709    20692555.4814   20692561.2074
       575.040         448.083
    219229.064 9    170224.10148  21514608.527    21514610.8254   21514616.8474
      -572.977        -446.476
   1402575.260 9   1080711.08247  22640647.729    22640649.4614   22640656.2264
     -2362.791       -1841.136
    704042.160 9    543439.18848  21904640.054    21904641.9144   21904647.6784
     -1185.928        -924.100
   -213086.895 9   -163405.88347  23625242.631    23625245.3444   23625251.8014
       129.816         101.155
  -1396929.493 9  -1076871.14749  20674416.458    20674418.2974   20674424.4694
      2036.085        1586.560
  -1194963.178 9   -915698.02047  22870750.771    22870752.7084   22870758.5214
      1727.846        1346.374
 96 11 19 16  2 29.9990000  0  7 21  3 17 23  9  1 31               -0.000030612
   -439322.645 9   -339557.87248  20689290.941    20689292.7774   20689298.4784
       566.990         441.810
    236698.213 9    183836.39948  21517932.932    21517935.1544   21517941.1074
      -592.481        -461.674
   1473614.530 9   1136066.29047  22654166.603    22654167.8444   22654174.6244
     -2374.080       -1849.932
    739691.597 9    571217.95848  21911423.992    21911425.8234   21911431.5114
     -1191.391        -928.357
   -216701.658 9   -166222.58647  23624555.114    23624557.6364   23624564.1944
       110.336          85.976
  -1457759.141 9  -1124270.86349  20662840.728    20662842.7844   20662848.9884
      2018.434        1572.806
  -1246510.694 9   -955864.95547  22860941.754    22860943.7134   22860949.2304
      1707.716        1330.688
 96 11 19 16  2 59.9990000  0  7 21  3 17 23  9  1 31               -0.000038902
   -456201.999 9   -352710.62248  20686078.858    20686080.7564   20686086.4304
       558.226         434.981
    254754.238 9    197905.99148  21521368.782    21521371.0904   21521377.0724
      -611.192        -476.254
   1545005.039 9   1191695.20047  22667751.192    22667753.0174   22667759.8744
     -2385.177       -1858.579
    775505.155 9    599124.61848  21918239.205    21918240.9524   21918246.5984
     -1195.987        -931.938
   -219717.791 9   -168572.77747  23623982.581    23623984.0304   23623990.0954
        90.943          70.865
  -1518050.056 9  -1171250.79249  20651367.815    20651369.7794   20651375.9984
      2001.121        1559.315
  -1297449.828 9   -995557.78347  22851248.222    22851250.1784   22851255.8134
      1688.248        1315.518
 96 11 19 16  3 29.9990000  0  7 21  3 17 23  9  1 31               -0.000047184
   -472812.062 9   -365653.52948  20682918.078    20682919.9694   20682925.6374
       549.325         428.045
    273384.623 9    212423.14548  21524913.984    21524916.2594   21524922.3914
      -630.848        -491.570
   1616732.028 9   1247586.29247  22681401.110    22681402.2804   22681409.1474
     -2396.495       -1867.399
    811453.137 9    627136.02048  21925079.888    21925081.6474   21925087.2574
     -1200.352        -935.339
   -222149.668 9   -170467.74847  23623518.197    23623520.8924   23623527.1784
        71.419          55.651
  -1577816.312 9  -1217821.89449  20639994.461    20639996.6444   20640002.8644
      1983.293        1545.423
  -1347797.718 9  -1034789.91947  22841667.053    22841669.1934   22841675.0924
      1668.390        1300.044
 96 11 19 16  3 59.9990000  0  7 21  3 17 23  9  1 31               -0.000055446
   -489157.613 9   -378390.32648  20679807.665    20679809.5404   20679815.1804
       540.529         421.191
    292612.970 9    227406.24848  21528573.109    21528575.3324   21528581.5164
      -651.019        -507.288
   1688795.701 9   1303739.73847  22695114.490    22695115.6144   22695122.4404
     -2407.634       -1876.078
    847532.693 9    655249.95448  21931945.446    21931947.3934   21931952.9884
     -1204.840        -938.836
   -224002.954 9   -171911.88647  23623164.247    23623168.1544   23623174.8514
        52.254          40.717
  -1637049.029 9  -1263977.24949  20628722.725    20628725.0504   20628731.2764
      1965.695        1531.710
  -1397550.625 9  -1073558.40747  22832199.313    22832201.3664   22832207.3674
      1648.506        1284.550
 96 11 19 16  4 29.9990000  0  7 21  3 17 23  9  1 31               -0.000063679
   -505241.921 9   -390923.55748  20676746.924    20676748.8254   20676754.4404
       532.067         414.598
    312452.524 9    242865.60448  21532348.667    21532350.6894   21532356.9024
      -671.286        -523.080
   1761189.417 9   1360150.36047  22708890.355    22708891.7454   22708898.6014
     -2418.115       -1884.245
    883747.082 9    683468.94048  21938836.882    21938838.8144   21938844.4134
     -1209.171        -942.211
   -225277.886 9   -172905.33547  23622922.410    23622925.8734   23622932.5384
        33.070          25.769
  -1695759.370 9  -1309725.56249  20617550.650    20617552.8634   20617559.0874
      1948.570        1518.366
  -1446707.603 9  -1111862.54047  22822845.113    22822847.0954   22822853.1064
      1628.886        1269.262
 96 11 19 16  4 59.9990000  0  7 21  3 17 23  9  1 31               -0.000071899
   -521068.416 9   -403255.89348  20673735.243    20673737.1394   20673742.7564
       523.318         407.780
    332901.485 9    258799.82348  21536239.757    21536241.9504   21536248.2064
      -691.776        -539.046
   1833886.202 9   1416797.14047  22722723.836    22722725.5794   22722732.4604
     -2428.126       -1892.046
    920097.738 9    711794.11148  21945754.266    21945756.1294   21945761.7574
     -1214.116        -946.064
   -225974.704 9   -173448.31347  23622790.452    23622793.1244   23622799.9504
        13.543          10.553
  -1753938.775 9  -1355060.15449  20606479.469    20606481.7174   20606487.9254
      1930.222        1504.069
  -1495279.335 9  -1149710.64447  22813602.565    22813604.3904   22813610.2814
      1609.165        1253.895
 96 11 19 16  5 29.9990000  0  7 21  3 17 23  9  1 31               -0.000080102
   -536660.214 9   -415405.34148  20670768.179    20670770.1094   20670775.7884
       516.349         402.350
    353959.140 9    275208.35448  21540246.874    21540249.1134   21540255.2864
      -711.760        -554.618
   1906871.470 9   1473668.70547  22736612.487    22736614.3424   22736621.2364
     -2437.525       -1899.370
    956591.013 9    740230.41648  21952698.634    21952700.5704   21952706.2194
     -1218.743        -949.670
   -226092.262 9   -173539.91647  23622766.606    23622770.5404   23622777.4034
        -5.532          -4.311
  -1811582.846 9  -1399977.60649  20595510.216    20595512.4194   20595518.6304
      1912.816        1490.506
  -1543260.698 9  -1187098.71547  22804471.948    22804473.7874   22804479.6844
      1589.671        1238.705
 96 11 19 16  5 59.9990000  0  7 21  3 17 23  9  1 31               -0.000088269
   -552029.213 9   -427381.18248  20667843.605    20667845.4964   20667851.1954
       508.274         396.058
    375613.626 9    292081.94248  21544367.681    21544369.8724   21544376.0384
      -731.787        -570.224
   1980156.064 9   1530773.51947  22750558.031    22750560.0114   22750566.9414
     -2448.182       -1907.674
    993242.772 9    768790.21548  21959673.272    21959675.1824   21959680.8774
     -1224.670        -954.288
   -225626.691 9   -173177.12847  23622854.899    23622859.3634   23622865.8304
       -25.497         -19.868
  -1868698.256 9  -1444483.11349  20584641.622    20584643.7384   20584649.9054
      1894.940        1476.577
  -1590643.594 9  -1224020.47147  22795455.198    22795457.0864   22795462.9354
      1569.038        1222.627
 96 11 19 16  6 29.9990000  0  7 21  3 17 23  9  1 31               -0.000096404
   -567178.699 9   -439185.98148  20664960.793    20664962.6534   20664968.3424
       501.579         390.841
    397833.824 9    309396.34948  21548596.028    21548598.2914   21548604.4544
      -749.597        -584.101
   2053745.992 9   1588116.25247  22764561.618    22764563.6534   22764570.7144
     -2457.822       -1915.186
   1030047.843 9    797469.47048  21966677.174    21966678.9794   21966684.6634
     -1228.995        -957.658
   -224579.416 9   -172361.05347  23623055.642    23623058.8234   23623065.1034
       -44.347         -34.556
  -1925295.205 9  -1488584.62049  20573871.677    20573873.6894   20573879.8364
      1878.044        1463.411
  -1637429.800 9  -1260477.25247  22786552.082    22786553.9704   22786559.8294
      1550.028        1207.814
 96 11 19 16  6 59.9990000  0  7 21  3 17 23  9  1 31               -0.000104519
   -582102.654 9   -450815.03148  20662120.857    20662122.7024   20662128.3914
       494.114         385.024
    420612.709 9    327146.10148  21552930.754    21552932.9864   21552939.1094
      -768.285        -598.664
   2127654.020 9   1645706.85747  22778626.453    22778627.9184   22778635.0014
     -2468.818       -1923.754
   1066996.708 9    826260.78948  21973708.252    21973710.0914   21973715.8204
     -1233.442        -961.124
   -222944.458 9   -171087.07346  23623366.996    23623369.7884   23623376.2904
       -63.922         -49.809
  -1981349.717 9  -1532263.45449  20563204.909    20563206.8734   20563213.0244
      1859.749        1449.155
  -1683625.383 9  -1296473.83047  22777761.357    22777763.3844   22777769.0814
      1530.357        1192.486
 96 11 19 16  7 29.9990000  0  7 21  3 17 23  9  1 31               -0.000112614
   -596819.757 9   -462282.90348  20659320.261    20659322.1524   20659327.8654
       486.579         379.152
    443942.515 9    345325.14148  21557370.214    21557372.5784   21557378.6964
      -787.440        -613.590
   2201883.550 9   1703547.98147  22792752.101    22792753.4524   22792760.5054
     -2480.264       -1932.673
   1104065.669 9    855145.68148  21980762.184    21980764.0684   21980769.8244
     -1238.150        -964.792
   -220736.964 9   -169366.94847  23623787.474    23623789.7194   23623796.1954
       -83.560         -65.112
  -2036877.922 9  -1575532.17449  20552638.247    20552640.2314   20552646.3814
      1841.781        1435.154
  -1729249.935 9  -1332025.42447  22769079.441    22769081.3514   22769087.0344
      1510.969        1177.378
 96 11 19 16  7 59.9990000  0  7 21  3 17 23  9  1 31               -0.000120685
   -611308.044 9   -473572.47948  20656563.271    20656565.0954   20656570.8364
       478.801         373.092
    467845.623 9    363950.91548  21561918.915    21561921.2224   21561927.3154
      -806.787        -628.665
   2276455.794 9   1761656.17947  22806942.271    22806944.0404   22806951.1954
     -2491.639       -1941.537
   1141270.556 9    884136.49348  21987842.104    21987843.9224   21987849.6844
     -1242.568        -968.235
   -217946.054 9   -167192.19947  23624318.830    23624321.0694   23624327.0934
      -103.063         -80.309
  -2091865.134 9  -1618379.34449  20542174.407    20542176.5404   20542182.6604
      1823.565        1420.960
  -1774302.520 9  -1367131.30647  22760506.208    22760508.0764   22760513.9284
      1491.950        1162.558
 96 11 19 16  8 29.9990000  0  7 21  3 17 23  9  1 31               -0.000128738
   -625568.238 9   -484684.31748  20653849.564    20653851.4574   20653857.2294
       471.633         367.506
    492333.910 9    383032.66048  21566579.035    21566581.2294   21566587.3334
      -825.994        -643.632
   2351357.173 9   1820020.82647  22821195.025    22821197.2684   22821204.4734
     -2501.680       -1949.361
   1178597.364 9    913222.30048  21994945.124    21994946.9704   21994952.7564
     -1246.051        -970.949
   -214575.150 9   -164565.53847  23624959.949    23624962.3924   23624968.7364
      -121.807         -94.915
  -2146310.442 9  -1660804.24949  20531813.960    20531815.9514   20531822.0394
      1806.084        1407.338
  -1818790.884 9  -1401797.58247  22752040.346    22752042.1474   22752048.0704
      1473.781        1148.401
 96 11 19 16  8 59.9990000  0  7 21  3 17 23  9  1 31               -0.000136778
   -639618.750 9   -495632.76248  20651175.784    20651177.7244   20651183.5284
       465.050         362.377
    517408.769 9    402571.48848  21571350.655    21571352.8464   21571358.9454
      -845.551        -658.871
   2426549.445 9   1878612.13747  22835503.369    22835506.0034   22835513.1014
     -2511.103       -1956.704
   1216031.134 9    942391.45048  22002068.548    22002070.3634   22002076.2164
     -1249.626        -973.735
   -210643.293 9   -161501.77547  23625708.070    23625710.6404   23625717.2674
      -140.226        -109.267
  -2200241.368 9  -1702828.33949  20521550.962    20521553.1824   20521559.2964
      1789.383        1394.324
  -1862731.431 9  -1436036.97247  22743678.673    22743680.5204   22743686.4924
      1455.388        1134.069
 96 11 19 16  9 29.9990000  0  7 21  3 17 23  9  1 31               -0.000144794
   -653459.591 9   -506417.83448  20648541.959    20648543.9214   20648549.7114
       457.586         356.560
    543070.301 9    422567.45748  21576233.875    21576236.0984   21576242.2334
      -865.054        -674.068
   2502026.487 9   1937425.35747  22849866.432    22849868.9504   22849875.9744
     -2520.740       -1964.213
   1253592.266 9    971659.84148  22009216.238    22009218.0314   22009223.8694
     -1254.309        -977.384
   -206153.551 9   -158003.25046  23626561.905    23626564.9394   23626571.4054
      -159.030        -123.919
  -2253668.875 9  -1744460.14948  20511384.173    20511386.2474   20511392.3594
      1772.493        1381.163
  -1906098.903 9  -1469829.81547  22735426.016    22735427.9874   22735433.8494
      1435.665        1118.700
 96 11 19 16  9 59.9990000  0  7 21  3 17 23  9  1 31               -0.000152776
   -667065.407 9   -517019.77348  20645952.834    20645954.8184   20645960.6154
       449.606         350.342
    569312.417 9    443015.83048  21581227.843    21581229.9024   21581235.9684
      -884.084        -688.897
   2577799.794 9   1996469.44147  22864286.227    22864288.1754   22864295.2814
     -2530.549       -1971.856
   1291294.579 9   1001038.25048  22016390.772    22016392.5614   22016398.3864
     -1258.895        -980.957
   -201093.590 9   -154060.44947  23627524.743    23627527.7554   23627534.2844
      -178.100        -138.779
  -2306577.899 9  -1785687.94849  20501315.758    20501317.9714   20501324.1044
      1755.074        1367.590
  -1948857.373 9  -1503148.13447  22727289.511    22727291.4524   22727297.3264
      1415.049        1102.636
 96 11 19 16 10 29.9990000  0  7 21  3 17 23  9  1 31               -0.000160747
   -680449.872 9   -527449.23548  20643405.924    20643407.8584   20643413.6404
       442.492         344.799
    596101.102 9    463890.10148  21586325.462    21586327.6104   21586333.7004
      -901.995        -702.853
   2653842.197 9   2055723.20247  22878756.624    22878758.5964   22878765.8094
     -2539.108       -1978.526
   1329115.311 9   1030508.93248  22023587.863    22023589.6594   22023595.4484
     -1262.648        -983.882
   -195481.704 9   -149687.54447  23628593.051    23628595.8134   23628602.1244
      -196.085        -152.793
  -2358990.978 9  -1826529.29949  20491341.860    20491344.0904   20491350.2324
      1738.853        1354.950
  -1991017.387 9  -1536000.08447  22719266.698    22719268.6294   22719274.5074
      1395.411        1087.333
 96 11 19 16 10 59.9990000  0  7 21  3 17 23  9  1 31               -0.000168708
   -693607.823 9   -537702.18148  20640902.092    20640903.9954   20640909.7944
       434.912         338.892
    623442.945 9    485195.41648  21591528.557    21591530.6104   21591536.7574
      -920.509        -717.280
   2730155.676 9   2115188.18447  22893278.705    22893280.6864   22893287.8454
     -2548.437       -1985.795
   1367065.664 9   1060080.61648  22030809.571    22030811.3974   22030817.1624
     -1267.176        -987.410
   -189323.354 9   -144888.81647  23629764.964    23629767.7844   23629773.8734
      -214.254        -166.951
  -2410893.084 9  -1866972.48849  20481465.344    20481467.4404   20481473.5704
      1721.369        1341.326
  -2032576.843 9  -1568384.08347  22711358.210    22711360.1364   22711366.1704
      1375.299        1071.662
 96 11 19 16 11 29.9990000  0  7 21  3 17 23  9  1 31               -0.000176671
   -706544.952 9   -547783.06448  20638440.254    20638442.1454   20638447.9114
       427.385         333.027
    651324.427 9    506921.21348  21596834.203    21596836.3164   21596842.4924
      -938.293        -731.137
   2806746.686 9   2174869.43447  22907852.995    22907855.4574   22907862.6634
     -2557.736       -1993.041
   1405134.910 9   1089744.94148  22038053.981    22038055.7784   22038061.5084
     -1270.822        -990.251
   -182637.489 9   -139679.05547  23631037.371    23631039.9744   23631046.1404
      -231.788        -180.614
  -2462277.709 9  -1907012.44449  20471687.271    20471689.2694   20471695.3954
      1704.223        1327.966
  -2073548.617 9  -1600310.16347  22703561.512    22703563.3854   22703569.5024
      1356.108        1056.707
 96 11 19 16 11 59.9990000  0  7 21  3 17 23  9  1 31               -0.000184632
   -719236.970 9   -557672.95148  20636025.017    20636026.9394   20636032.6764
       419.185         326.638
    679760.218 9    529078.95148  21602245.218    21602247.4664   21602253.6634
      -957.057        -745.759
   2883633.161 9   2234780.90747  22922484.052    22922486.4264   22922493.7644
     -2567.674       -2000.785
   1443326.473 9   1119504.58248  22045321.508    22045323.4064   22045329.1884
     -1275.044        -993.541
   -175403.579 9   -134042.25247  23632415.130    23632416.7494   23632422.9814
      -250.173        -194.940
  -2513130.658 9  -1946638.10649  20462010.353    20462012.2794   20462018.4284
      1686.288        1313.991
  -2113936.769 9  -1631781.47247  22695875.716    22695877.7564   22695883.8464
      1336.744        1041.619
 96 11 19 16 12 29.9990000  0  7 21  3 17 23  9  1 31               -0.000192609
   -731711.069 9   -567393.03248  20633651.278    20633653.1944   20633658.9114
       412.164         321.167
    708738.895 9    551659.71248  21607759.714    21607761.9834   21607768.1904
      -975.081        -759.803
   2960795.069 9   2294907.00547  22937167.308    22937169.8954   22937177.2934
     -2576.781       -2007.881
   1481622.559 9   1149345.66448  22052609.051    22052610.9144   22052616.7254
     -1278.354        -996.120
   -167647.273 9   -127998.37547  23633890.485    23633892.6514   23633898.9154
      -267.150        -208.169
  -2563470.614 9  -1985864.03249  20452430.996    20452432.9074   20452439.0694
      1669.338        1300.783
  -2153773.657 9  -1662823.22647  22688295.308    22688297.3524   22688303.2264
      1318.673        1027.537
 96 11 19 16 12 59.9990000  0  7 21  3 17 23  9  1 31               -0.000200594
   -743962.819 9   -576939.85148  20631319.854    20631321.7724   20631327.4894
       404.522         315.212
    738259.098 9    574662.43948  21613377.292    21613379.5404   21613385.7054
      -992.955        -773.731
   3038244.397 9   2355257.06147  22951905.773    22951908.1104   22951915.4894
     -2586.684       -2015.598
   1520030.603 9   1179273.98748  22059917.916    22059919.7294   22059925.5744
     -1282.327        -999.216
   -159365.576 9   -121545.08247  23635466.241    23635468.7144   23635474.8134
      -285.353        -222.353
  -2613285.652 9  -2024680.93249  20442951.612    20442953.4444   20442959.6124
      1651.750        1287.078
  -2193050.847 9  -1693428.82447  22680821.210    22680823.1974   22680829.0294
      1299.586        1012.664
 96 11 19 16 13 29.9990000  0  7 21  3 17 23  9  1 31               -0.000208579
   -755985.242 9   -586307.97948  20629032.206    20629034.0104   20629039.6924
       396.773         309.174
    768295.922 9    598067.74348  21619093.145    21619095.3814   21619101.5884
     -1009.585        -786.690
   3115989.166 9   2415837.32247  22966700.093    22966702.4604   22966709.7984
     -2596.572       -2023.303
   1558550.848 9   1209289.74148  22067248.042    22067249.9004   22067255.7594
     -1285.972       -1002.056
   -150532.748 9   -114662.37147  23637147.628    23637149.5284   23637155.9384
      -303.950        -236.844
  -2662588.681 9  -2063098.86449  20433569.586    20433571.4144   20433577.5424
      1634.929        1273.971
  -2231756.350 9  -1723588.97847  22673455.914    22673457.8344   22673463.4904
      1280.502         997.794
 96 11 19 16 13 59.9990000  0  7 21  3 17 23  9  1 31               -0.000216564
   -767787.735 9   -595504.72948  20626786.196    20626788.0414   20626793.7514
       389.645         303.619
    798820.175 9    621852.84548  21624901.485    21624903.9414   21624910.1434
     -1025.926        -799.423
   3194033.363 9   2476650.91347  22981551.488    22981553.8564   22981561.1444
     -2606.881       -2031.336
   1597184.847 9   1239394.13348  22074600.037    22074601.7484   22074607.5704
     -1290.154       -1005.315
   -141135.788 9   -107340.01247  23638935.142    23638937.7444   23638943.8824
      -322.931        -251.635
  -2711386.151 9  -2101122.85849  20424283.715    20424285.5674   20424291.6864
      1617.606        1260.472
  -2269887.743 9  -1753301.75847  22666199.757    22666201.5854   22666207.1994
      1261.012         982.607
 96 11 19 16 14 29.9990000  0  7 21  3 17 23  9  1 31               -0.000224536
   -779383.479 9   -604540.37348  20624579.583    20624581.4604   20624587.1634
       383.141         298.551
    829832.181 9    646018.01548  21630802.989    21630805.3644   21630811.5944
     -1041.839        -811.822
   3272381.831 9   2537701.59347  22996460.863    22996463.2144   22996470.4504
     -2616.381       -2038.738
   1635945.123 9   1269596.92848  22081975.752    22081977.6384   22081983.4554
     -1293.963       -1008.283
   -131167.695 9    -99572.69647  23640830.873    23640834.2854   23640840.9264
      -341.734        -266.286
  -2759663.210 9  -2138741.32949  20415096.857    20415098.7294   20415104.8314
      1600.741        1247.331
  -2307434.872 9  -1782559.25847  22659054.678    22659056.5574   22659062.2444
      1241.908         967.721
 96 11 19 16 14 59.9990000  0  7 21  3 17 23  9  1 31               -0.000232496
   -790785.458 9   -613425.03348  20622409.896    20622411.7524   20622417.4314
       376.586         293.444
    861320.769 9    670554.53948  21636794.996    21636797.4634   21636803.7004
     -1057.911        -824.346
   3351009.132 9   2598969.56247  23011424.035    23011425.5554   23011432.8234
     -2625.830       -2046.101
   1674819.490 9   1299888.62948  22089373.270    22089375.2204   22089381.0434
     -1298.025       -1011.448
   -120624.069 9    -91356.88047  23642837.591    23642840.8674   23642847.1864
      -361.485        -281.677
  -2807438.774 9  -2175969.03049  20406005.370    20406007.3354   20406013.4434
      1583.949        1234.246
  -2344408.229 9  -1811369.68947  22652018.825    22652020.7724   22652026.4874
      1222.690         952.745
 96 11 19 16 15 29.9990000  0  7 21  3 17 23  9  1 31               -0.000240439
   -801987.630 9   -622153.99448  20620278.285    20620280.0874   20620285.7034
       370.091         288.382
    893305.990 9    695478.06848  21642881.601    21642884.0474   21642890.2594
     -1074.555        -837.316
   3429929.382 9   2660465.78947  23026441.878    23026443.6944   23026450.8544
     -2635.545       -2053.671
   1713818.155 9   1330277.18148  22096794.615    22096796.4754   22096802.2834
     -1301.880       -1014.452
   -109488.637 9    -82679.93247  23644956.066    23644959.8234   23644965.9864
      -380.757        -296.694
  -2854697.682 9  -2212794.13749  20397012.209    20397014.2714   20397020.3804
      1566.564        1220.699
  -2380804.805 9  -1839730.65747  22645092.924    22645094.7934   22645100.5264
      1203.727         937.969
 96 11 19 16 15 59.9990000  0  7 21  3 17 23  9  1 31               -0.000248372
   -812995.367 9   -630731.45148  20618183.501    20618185.3704   20618191.0144
       363.432         283.194
    925803.951 9    720801.12548  21649065.821    21649068.2744   21649074.4764
     -1092.487        -851.288
   3509129.972 9   2722180.46447  23041513.210    23041515.1264   23041522.2864
     -2644.529       -2060.672
   1752928.141 9   1360752.48148  22104236.968    22104238.8904   22104244.6784
     -1305.550       -1017.312
    -97782.493 9    -73558.27047  23647184.188    23647187.7114   23647193.7434
      -399.794        -311.528
  -2901430.913 9  -2249209.62849  20388119.059    20388121.2354   20388127.3474
      1548.762        1206.828
  -2416636.732 9  -1867651.65347  22638274.313    22638276.2204   22638282.0674
      1184.881         923.284
 96 11 19 16 16 29.9990000  0  7 21  3 17 23  9  1 31               -0.000256304
   -823791.238 9   -639143.81748  20616129.066    20616130.9594   20616136.6444
       355.998         277.401
    958850.184 9    746551.40348  21655354.348    21655356.7774   21655363.0174
     -1110.711        -865.489
   3588577.589 9   2784087.64547  23056630.675    23056633.5884   23056640.6374
     -2652.315       -2066.739
   1792140.274 9   1391307.37648  22111698.859    22111700.7394   22111706.4804
     -1308.735       -1019.793
    -85507.772 9    -63993.57947  23649520.169    23649523.3944   23649529.4704
      -418.556        -326.148
  -2947637.700 9  -2285214.90749  20379326.501    20379328.4084   20379334.4994
      1531.467        1193.351
  -2451903.987 9  -1895132.66147  22631563.230    22631565.0054   22631571.0144
      1165.885         908.482
 96 11 19 16 16 59.9990000  0  7 21  3 17 23  9  1 31               -0.000264235
   -834360.550 9   -647379.65048  20614117.796    20614119.6754   20614125.3594
       347.960         271.138
    992439.184 9    772724.61548  21661746.174    21661748.5224   21661754.7834
     -1129.124        -879.837
   3668268.743 9   2846184.56747  23071795.266    23071798.4054   23071805.4154
     -2661.092       -2073.578
   1831451.073 9   1421939.15048  22119179.580    22119181.3554   22119187.0844
     -1312.664       -1022.855
    -72675.702 9    -53994.56747  23651962.373    23651965.3224   23651971.2434
      -437.482        -340.895
  -2993318.675 9  -2320810.46148  20370633.827    20370635.6024   20370641.6874
      1513.222        1179.134
  -2486592.561 9  -1922162.74847  22624962.283    22624964.0834   22624969.9454
      1146.015         892.999
 96 11 19 16 17 29.9990000  0  7 21  3 17 23  9  1 31               -0.000272168
   -844694.150 9   -655431.80348  20612151.310    20612153.2544   20612158.9204
       340.755         265.523
   1026577.494 9    799325.86048  21668242.379    21668244.8454   21668251.1174
     -1146.938        -893.718
   3748221.334 9   2908485.21447  23087010.135    23087012.9714   23087019.9664
     -2669.164       -2079.868
   1870869.577 9   1452654.86348  22126680.646    22126682.4794   22126688.1644
     -1315.552       -1025.105
    -59287.170 9    -43561.95447  23654510.557    23654513.2634   23654519.0034
      -455.349        -354.817
  -3038446.151 9  -2355974.71448  20362046.442    20362048.0824   20362054.1804
      1495.220        1165.106
  -2520690.692 9  -1948732.75247  22618473.711    22618475.5974   22618481.1734
      1126.784         878.014
 96 11 19 16 17 59.9990000  0  7 21  3 17 23  9  1 31               -0.000280101
   -854805.461 9   -663310.74648  20610227.201    20610229.1254   20610234.7924
       333.233         259.662
   1061256.721 9    826348.60148  21674841.782    21674844.1414   21674850.3774
     -1165.140        -907.901
   3828409.820 9   2970969.66947  23102270.331    23102272.3874   23102279.4734
     -2677.074       -2086.032
   1910382.056 9   1483443.79148  22134199.643    22134201.4754   22134207.1454
     -1318.930       -1027.738
    -45358.176 9    -32708.20847  23657161.428    23657163.8324   23657169.5724
      -473.469        -368.937
  -3083042.593 9  -2390725.18048  20353559.919    20353561.6644   20353567.7464
      1477.616        1151.389
  -2554196.912 9  -1974841.51847  22612097.906    22612099.7624   22612105.1544
      1106.583         862.272
 96 11 19 16 18 29.9990000  0  7 21  3 17 23  9  1 31               -0.000288028
   -864704.649 9   -671024.39848  20608343.483    20608345.3874   20608351.0434
       325.801         253.871
   1096459.605 9    853779.38048  21681540.774    21681543.0474   21681549.2584
     -1182.558        -921.474
   3908839.619 9   3033642.15547  23117575.945    23117577.6834   23117584.8774
     -2686.226       -2093.163
   1949990.072 9   1514307.16748  22141736.729    22141738.6494   22141744.3264
     -1322.622       -1030.615
    -30898.325 9    -21440.80547  23659912.938    23659915.2784   23659921.1604
      -491.439        -382.939
  -3127126.709 9  -2425076.42648  20345171.020    20345172.7774   20345178.8074
      1460.198        1137.817
  -2587098.825 9  -2000479.38647  22605837.081    22605838.8854   22605844.2724
      1085.814         846.089
 96 11 19 16 18 59.9990000  0  8 21  3 17 23  9  1 25 31            -0.000295928
   -874383.056 9   -678566.01448  20606501.670    20606503.6104   20606509.2934
       319.450         248.922
   1132187.340 9    881619.14048  21688339.683    21688341.8574   21688347.9954
     -1199.355        -934.562
   3989566.848 9   3096546.41746  23132937.164    23132939.4554   23132946.8554
     -2695.559       -2100.436
   1989716.575 9   1545262.86948  22149296.468    22149298.3814   22149304.0574
     -1325.815       -1033.102
    -15889.737 9     -9745.83647  23662769.458    23662771.2964   23662777.3554
      -509.190        -396.771
  -3170671.601 9  -2459007.50148  20336884.562    20336886.4504   20336892.4804
      1442.866        1124.311
   -290663.35618   -207209.67155  25103315.947           0.0005          0.0005
      3585.495        2793.892
  -2619377.029 9  -2025631.25247  22599694.620    22599696.3894   22599701.9874
      1066.123         830.745
 96 11 19 16 19 29.9990000  0  8 21  3 17 23  9  1 25 31            -0.000303816
   -883873.662 9   -685961.29148  20604695.733    20604697.6314   20604703.3184
       313.903         244.600
   1168423.143 9    909854.80348  21695235.021    21695237.2774   21695243.4484
     -1215.669        -947.274
   4070570.003 9   3159665.66846  23148351.534    23148353.8364   23148361.3124
     -2703.989       -2107.004
   2029531.843 9   1576287.74048  22156873.008    22156874.9764   22156880.6524
     -1327.952       -1034.768
      -348.404 9      2364.28947  23665726.373    23665728.7484   23665734.7854
      -526.203        -410.028
  -3213699.697 9  -2492535.87148  20328696.554    20328698.4414   20328704.5014
      1426.502        1111.560
   -398296.981 8   -291080.10655  25082832.078           0.0005   25082837.1025
      3590.664        2797.920
  -2651071.032 9  -2050327.89347  22593663.227    22593665.1024   22593670.9734
      1047.383         816.143
 96 11 19 16 19 59.9990000  0  8 21  3 17 23  9  1 25 31            -0.000311693
   -893191.883 9   -693222.24848  20602922.567    20602924.4494   20602930.1504
       307.812         239.854
   1205146.085 9    938470.04748  21702223.461    21702225.4714   21702231.6174
     -1231.904        -959.925
   4151831.379 9   3222986.13346  23163815.489    23163817.4174   23163824.8484
     -2712.845       -2113.905
   2069418.890 9   1607368.54148  22164463.379    22164465.2274   22164470.9014
     -1330.655       -1036.874
     15702.379 9     14871.38847  23668781.120    23668783.0714   23668789.0984
      -543.289        -423.342
  -3256245.964 9  -2525688.78948  20320600.372    20320602.0524   20320608.1964
      1410.183        1098.844
   -506069.621 8   -375058.59245  25062325.401    25062325.3095   25062333.1344
      3594.697        2801.062
  -2682196.030 9  -2074581.14047  22587740.167    22587742.1244   22587748.1894
      1028.281         801.258
 96 11 19 16 20 29.9990000  0  8 21  3 17 23  9  1 25 31            -0.000319571
   -902325.448 9   -700339.30648  20601184.402    20601186.3474   20601192.1044
       301.503         234.937
   1242352.906 9    967462.33648  21709303.240    21709305.6604   21709311.8754
     -1248.169        -972.599
   4233364.499 9   3286518.36246  23179330.295    23179332.7294   23179340.1224
     -2722.060       -2121.086
   2109395.116 9   1638518.83048  22172070.582    22172072.4704   22172078.1244
     -1333.948       -1039.440
     32273.903 9     27784.25547  23671934.798    23671936.4914   23671942.5884
      -561.079        -437.204
  -3298288.809 9  -2558449.43748  20312599.863    20312601.5504   20312607.6594
      1392.990        1085.447
   -613956.333 8   -459126.06855  25041793.581    25041793.6084   25041802.0315
      3598.295        2803.866
  -2712759.405 9  -2098396.77147  22581924.233    22581926.0984   22581932.1524
      1009.729         786.802
 96 11 19 16 20 59.9990000  0  8 21  3 17 23  9  1 25 31            -0.000327458
   -911279.226 9   -707316.27448  20599480.531    20599482.4724   20599488.2684
       295.466         230.233
   1280043.468 9    996831.57448  21716475.666    21716477.9724   21716484.1734
     -1264.456        -985.290
   4315148.139 9   3350245.79746  23194893.524    23194895.7364   23194903.1504
     -2730.065       -2127.323
   2149466.314 9   1669743.12048  22179695.921    22179697.7934   22179703.4254
     -1337.483       -1042.195
     49377.382 9     41111.65147  23675189.175    23675191.2254   23675197.2904
      -579.102        -451.248
  -3339814.823 9  -2590807.35948  20304697.540    20304699.4084   20304705.5004
      1375.631        1071.920
   -721958.388 8   -543283.36945  25021241.628    25021241.6715   25021249.6804
      3602.023        2806.771
  -2742781.921 9  -2121790.97047  22576211.286    22576213.0704   22576218.9634
       991.620         772.691
 96 11 19 16 21 29.9990000  0  8 21  3 17 23  9  1 25 31            -0.000335347
   -920040.388 9   -714143.15648  20597813.398    20597815.2824   20597821.1134
       288.751         225.001
   1318231.245 9   1026588.24748  21723742.628    21723744.8774   21723751.0954
     -1281.099        -998.259
   4397175.465 9   3414163.12946  23210502.808    23210505.0874   23210512.5344
     -2738.140       -2133.615
   2189654.669 9   1701058.69948  22187343.526    22187345.4144   22187351.0014
     -1341.601       -1045.403
     67031.658 9     54868.24547  23678548.705    23678550.5344   23678556.6584
      -597.529        -465.607
  -3380824.845 9  -2622763.20548  20296893.646    20296895.4294   20296901.5234
      1358.528        1058.593
   -830076.649 8   -627531.21645  25000666.261    25000667.7414   25000675.5274
      3606.193        2810.021
  -2772246.436 9  -2144750.33147  22570604.153    22570605.9954   22570612.0384
       972.806         758.031
 96 11 19 16 21 59.9990000  0  8 21  3 17 23  9  1 25 31            -0.000343236
   -928598.142 9   -720811.53648  20596184.872    20596186.8024   20596192.6404
       281.367         219.247
   1356908.793 9   1056726.56648  21731102.687    21731104.9874   21731111.2174
     -1297.714       -1011.206
   4479437.792 9   3478263.56146  23226156.994    23226159.0834   23226166.5094
     -2746.281       -2139.959
   2229971.087 9   1732474.06948  22195015.594    22195017.4264   22195023.0064
     -1346.418       -1049.157
     85232.587 9     69050.79847  23682012.282    23682014.1384   23682020.2974
      -616.208        -480.162
  -3421321.398 9  -2654318.94248  20289187.385    20289189.1614   20289195.2734
      1340.784        1044.767
   -938322.036 8   -711878.11045  24980067.807    24980069.5114   24980077.1704
      3610.031        2813.011
  -2801145.826 9  -2167269.35647  22565104.515    22565106.4644   22565112.7274
       953.456         742.953
 96 11 19 16 22 29.9990000  0  8 21  3 17 23  9  1 25 31            -0.000351135
   -936945.476 9   -727315.95248  20594596.513    20594598.3744   20594604.1984
       274.580         213.958
   1396070.498 9   1087242.15048  21738554.909    21738557.2214   21738563.4464
     -1313.614       -1023.595
   4561930.099 9   3542543.20246  23241854.715    23241856.9014   23241864.3034
     -2753.647       -2145.699
   2270417.320 9   1763990.58648  22202712.332    22202714.1364   22202719.7254
     -1350.355       -1052.225
    103988.412 9     83665.70547  23685581.098    23685583.0754   23685589.5454
      -634.537        -494.444
  -3461292.004 9  -2685464.85348  20281581.216    20281583.0064   20281589.1444
      1323.673        1031.434
  -1046710.414 8   -796336.43945  24959441.973    24959443.8154   24959451.7674
      3615.502        2817.274
  -2829480.272 9  -2189348.14947  22559712.714    22559714.6254   22559720.8584
       934.819         728.430
 96 11 19 16 22 59.9990000  0  8 21  3 17 23  9  1 25 31            -0.000359024
   -945063.823 9   -733641.93448  20593051.665    20593053.5254   20593059.3674
       266.604         207.743
   1435729.322 9   1118145.09048  21746101.757    21746104.0344   21746110.3094
     -1330.283       -1036.584
   4644666.997 9   3607013.43647  23257598.739    23257601.3044   23257608.7334
     -2762.274       -2152.421
   2310993.437 9   1795608.31348  22210433.755    22210435.5404   22210441.1164
     -1354.713       -1055.620
    123309.960 9     98721.44847  23689257.077    23689259.8914   23689266.2634
      -653.346        -509.101
  -3500739.043 9  -2716202.79448  20274074.563    20274076.5114   20274082.6104
      1306.301        1017.897
  -1155248.031 9   -880911.05245  24938787.568    24938789.5294   24938797.4994
      3620.274        2820.993
  -2857220.859 9  -2210964.17247  22554433.963    22554435.8094   22554442.0604
       914.450         712.558
 96 11 19 16 23 29.9990000  0  8 21  3 17 23  9  1 25 31            -0.000366894
   -952941.574 9   -739780.44648  20591552.610    20591554.4634   20591560.2964
       258.427         201.372
   1475882.292 9   1149433.08848  21753742.571    21753744.8974   21753751.1694
     -1346.672       -1049.355
   4727667.774 9   3671689.27746  23273393.271    23273395.9524   23273403.4204
     -2771.123       -2159.317
   2351688.243 9   1827318.52948  22218177.739    22218179.5394   22218185.1284
     -1358.421       -1058.510
    143178.705 9    114203.56847  23693037.590    23693040.7714   23693047.1124
      -671.328        -523.113
  -3539681.552 9  -2746547.59048  20266663.886    20266665.9594   20266672.0594
      1289.532        1004.830
  -1263932.754 9   -965600.31445  24918105.974    24918107.4324   24918115.4014
      3625.115        2824.765
  -2884357.250 9  -2232109.41147  22549270.119    22549271.9714   22549278.2094
       894.486         697.002
 96 11 19 16 23 59.9990000  0  8 21  3 17 23  9  1 25 31            -0.000374757
   -960586.049 9   -745737.18248  20590097.939    20590099.7904   20590105.6284
       250.787         195.418
   1516513.269 9   1181093.55948  21761474.482    21761476.6904   21761482.9894
     -1362.530       -1061.712
   4810927.693 9   3736567.05846  23289237.959    23289239.8654   23289247.4194
     -2780.002       -2166.235
   2392484.732 9   1859107.96848  22225941.238    22225942.9234   22225948.4574
     -1361.582       -1060.973
    163573.198 9    130095.37047  23696919.171    23696921.6634   23696927.9154
      -688.874        -536.785
  -3578122.626 9  -2776501.65848  20259348.605    20259350.8464   20259356.9324
      1272.808         991.798
  -1372767.577 9  -1050406.55646  24897394.757    24897396.9174   24897404.7894
      3629.962        2828.542
  -2910904.002 9  -2252795.20147  22544218.454    22544220.2614   22544226.5754
       874.843         681.696
 96 11 19 16 24 29.9990000  0  8 21  3 17 23  9  1 25 31            -0.000382615
   -968004.757 9   -751517.99648  20588686.265    20588688.0754   20588693.9074
       244.139         190.238
   1557617.423 9   1213122.73648  21769296.428    21769298.6084   21769304.9144
     -1377.620       -1073.470
   4894457.098 9   3801654.82146  23305133.184    23305135.0694   23305142.6164
     -2788.403       -2172.782
   2433372.449 9   1890968.49948  22233721.781    22233723.6294   22233729.1524
     -1364.022       -1062.874
    184493.935 9    146397.22547  23700899.639    23700902.7254   23700909.0424
      -705.680        -549.880
  -3616070.198 9  -2806071.17848  20252127.423    20252129.6614   20252135.7194
      1257.289         979.706
  -1481743.738 8  -1135322.95846  24876657.257    24876659.3634   24876667.2504
      3635.201        2832.624
  -2936869.128 9  -2273027.78147  22539277.515    22539279.2784   22539285.5114
       856.285         667.235
 96 11 19 16 24 59.9990000  0  8 21  3 17 23  9  1 25 31            -0.000390451
   -975201.991 9   -757126.23348  20587316.643    20587318.4884   20587324.3144
       236.581         184.349
   1599202.700 9   1245526.81648  21777209.750    21777212.0684   21777218.3414
     -1393.859       -1086.124
   4978266.039 9   3866960.39646  23321082.889    23321083.5034   23321090.9744
     -2798.019       -2180.274
   2474358.195 9   1922905.41848  22241521.272    22241522.9764   22241528.5234
     -1367.715       -1065.752
    205941.619 9    163109.68046  23704981.198    23704984.1624   23704990.4224
      -723.394        -563.684
  -3653526.334 9  -2835257.76548  20244999.854    20245001.9834   20245008.0184
      1240.347         966.504
  -1590833.697 9  -1220328.05046  24855897.906    24855900.0864   24855908.0054
      3637.943        2834.761
  -2962251.242 9  -2292806.06447  22534447.331    22534449.1324   22534455.4564
       836.835         652.079
 96 11 19 16 25 29.9990000  0  8 21  3 17 23  9  1 25 31            -0.000398291
   -982195.315 9   -762575.57448  20585985.866    20585987.6934   20585993.5324
       229.647         178.946
   1641257.031 9   1278296.39748  21785212.459    21785214.7324   21785221.0774
     -1409.763       -1098.517
   5062342.861 9   3932474.71146  23337081.781    23337082.9164   23337090.3984
     -2807.065       -2187.323
   2515448.828 9   1954924.06948  22249340.459    22249342.2694   22249347.8714
     -1371.638       -1068.809
    227908.362 9    180226.60247  23709160.522    23709164.3224   23709170.5364
      -741.222        -577.576
  -3690474.567 9  -2864048.58348  20237968.876    20237970.9864   20237977.0094
      1222.691         952.746
  -1700007.942 9  -1305398.84246  24835123.354    24835124.9804   24835132.8674
      3640.142        2836.474
  -2987080.779 9  -2312153.76647  22529722.286    22529724.2864   22529730.7084
       818.446         637.750
 96 11 19 16 25 59.9990000  0  8 21  3 17 23  9  1 25 31            -0.000406140
   -989004.286 9   -767881.26448  20584690.158    20584692.0014   20584697.8194
       224.027         174.566
   1683770.233 9   1311423.53348  21793302.382    21793304.7214   21793311.0934
     -1424.616       -1110.090
   5146669.563 9   3998183.75146  23353128.610    23353129.8314   23353137.3894
     -2814.849       -2193.389
   2556637.107 9   1987018.81048  22257178.007    22257180.1204   22257185.8084
     -1374.374       -1070.941
    250395.429 9    197748.96546  23713440.501    23713443.6604   23713449.7524
      -758.106        -590.732
  -3726901.860 9  -2892433.47448  20231036.888    20231039.0734   20231045.0994
      1205.794         939.580
  -1809250.966 9  -1390523.22646  24814335.417    24814336.6824   24814344.5134
      3642.652        2838.430
  -3011369.072 9  -2331079.72347  22525100.639    22525102.4784   22525108.7574
       800.469         623.742
 96 11 19 16 26 29.9990000  0  8 21  3 17 23  9  1 25 31            -0.000414004
   -995642.275 9   -773053.72248  20583427.024    20583428.8034   20583434.6224
       218.518         170.274
   1726734.539 9   1344902.18748  21801478.257    21801480.6454   21801486.9364
     -1439.671       -1121.822
   5231224.031 9   4064070.27246  23369218.430    23369220.1234   23369227.6494
     -2822.002       -2198.963
   2597908.877 9   2019178.60648  22265032.062    22265033.8634   22265039.5994
     -1377.109       -1073.072
    273394.009 9    215669.91946  23717817.013    23717820.0734   23717825.9864
      -775.105        -603.978
  -3762825.337 9  -2920425.77848  20224200.867    20224203.0714   20224209.1124
      1189.113         926.582
  -1918568.771 9  -1475705.89346  24793532.340    24793534.1694   24793541.8804
      3645.314        2840.504
  -3035114.719 9  -2349582.82647  22520581.944    22520583.8444   22520590.1474
       782.370         609.639
 96 11 19 16 26 59.9990000  0  8 21  3 17 23  9  1 25 31            -0.000421867
  -1002093.901 9   -778080.96348  20582199.215    20582201.0774   20582206.9014
       211.854         165.081
   1770171.336 9   1378749.02348  21809743.832    21809746.4544   21809752.6404
     -1455.572       -1134.212
   5316010.958 9   4130137.91146  23385353.194    23385354.7174   23385362.0774
     -2829.869       -2205.093
   2639283.385 9   2051418.45748  22272905.251    22272907.1654   22272912.9274
     -1380.747       -1075.907
    296922.309 9    234003.61446  23722294.296    23722297.3974   23722303.3274
      -792.965        -617.895
  -3798219.370 9  -2948005.53048  20217466.036    20217467.8094   20217473.8694
      1170.944         912.424
  -2027949.643 9  -1560937.68346  24772718.032    24772719.7864   24772727.3924
      3647.345        2842.087
  -3058285.808 9  -2367638.22247  22516172.597    22516174.5964   22516180.8394
       762.821         594.406
 96 11 19 16 27 29.9990000  0  8 21  3 17 23  9  1 25 31            -0.000429738
  -1008354.525 9   -782959.37248  20581007.895    20581009.7264   20581015.5714
       205.156         159.862
   1814066.825 9   1412953.27548  21818097.132    21818099.5084   21818105.6774
     -1471.125       -1146.331
   5401005.690 9   4196367.48246  23401526.959    23401528.7764   23401536.1674
     -2836.799       -2210.493
   2680745.720 9   2083726.74348  22280795.493    22280797.2054   22280802.9844
     -1383.547       -1078.089
    320975.052 9    252745.97147  23726871.808    23726874.5384   23726880.4294
      -810.727        -631.735
  -3833090.203 9  -2975177.59248  20210830.302    20210832.1134   20210838.2044
      1153.704         898.990
  -2137421.521 9  -1646240.40646  24751885.323    24751887.8754   24751895.5964
      3650.661        2844.671
  -3080878.410 9  -2385242.86947  22511873.486    22511875.4304   22511881.4904
       742.847         578.842
 96 11 19 16 27 59.9990000  0  8 21  3 17 23  9  1 25 31            -0.000437599
  -1014408.655 9   -787676.87748  20579855.788    20579857.6184   20579863.5354
       198.307         154.525
   1858429.468 9   1447521.54948  21826538.910    21826541.4444   21826547.6544
     -1486.442       -1158.266
   5486211.788 9   4262761.76346  23417740.813    23417742.9344   23417750.4034
     -2843.766       -2215.921
   2722287.479 9   2116096.92748  22288700.530    22288702.3514   22288708.1064
     -1386.185       -1080.144
    345560.215 9    271903.22646  23731549.953    23731552.8534   23731558.8904
      -828.547        -645.621
  -3867453.999 9  -3001954.56248  20204290.684    20204292.8764   20204298.9734
      1137.014         885.985
  -2247005.396 9  -1731630.37246  24731032.521    24731034.5994   24731042.4194
      3654.904        2847.977
  -3102851.603 9  -2402364.85647  22507692.046    22507694.0904   22507700.0734
       722.025         562.617
 96 11 19 16 28 29.9990000  0  8 21  3 17 23  9  1 25 31            -0.000445445
  -1020248.510 9   -792227.42148  20578744.542    20578746.3374   20578752.2754
       190.874         148.733
   1903249.968 9   1482446.57648  21835068.066    21835070.6114   21835076.7614
     -1501.692       -1170.150
   5571633.283 9   4329323.87646  23433996.576    23433998.0714   23434005.6504
     -2851.248       -2221.752
   2763917.758 9   2148536.08848  22296622.680    22296624.3524   22296630.0734
     -1389.281       -1082.557
    370691.881 9    291486.28947  23736333.647    23736335.2194   23736341.4614
      -846.989        -659.991
  -3901307.166 9  -3028333.63948  20197848.502    20197850.8274   20197856.9154
      1119.679         872.477
  -2356721.991 9  -1817123.77946  24710153.551    24710156.2364   24710164.0644
      3659.315        2851.414
  -3124207.825 9  -2419006.08347  22503628.106    22503630.1004   22503636.1434
       701.700         546.779
 96 11 19 16 28 59.9990000  0  8 21  3 17 23  9  1 25 31            -0.000453292
  -1025862.266 9   -796601.77948  20577676.234    20577678.0684   20577683.9864
       183.467         142.961
   1948517.789 9   1517720.16948  21843682.438    21843684.8544   21843690.9794
     -1516.068       -1181.352
   5657286.945 9   4396066.87946  23450296.396    23450297.4874   23450304.9734
     -2858.924       -2227.733
   2805636.678 9   2181044.31548  22304561.473    22304563.1774   22304568.9094
     -1391.776       -1084.501
    396370.666 9    311495.70647  23741220.034    23741221.7554   23741228.1484
      -864.793        -673.865
  -3934637.017 9  -3054304.94348  20191506.165    20191508.4064   20191514.4144
      1102.429         859.036
  -2466565.187 9  -1902715.81346  24689251.128    24689253.8034   24689261.5564
      3663.550        2854.714
  -3144963.598 9  -2435179.42747  22499678.422    22499680.4044   22499686.5904
       682.108         531.513
 96 11 19 16 29 29.9990000  0  8 21  3 17 23  9  1 25 31            -0.000461143
  -1031242.442 9   -800794.12748  20576652.394    20576654.2694   20576660.1744
       175.892         137.059
   1994226.192 9   1553337.07348  21852380.700    21852382.9494   21852389.0464
     -1530.787       -1192.821
   5743188.189 9   4463002.82846  23466642.426    23466643.9334   23466651.4954
     -2867.492       -2234.409
   2847439.795 9   2213618.15448  22312516.009    22312518.0074   22312523.7824
     -1394.674       -1086.759
    422594.624 9    331929.91446  23746209.456    23746211.9314   23746218.3574
      -883.001        -688.053
  -3967438.222 9  -3079864.30848  20185264.315    20185266.5644   20185272.5644
      1084.786         845.288
  -2576516.419 9  -1988392.05246  24668327.847    24668330.8664   24668338.4554
      3666.861        2857.294
  -3165124.590 9  -2450889.30347  22495842.059    22495843.9124   22495850.0434
       662.351         516.118
 96 11 19 16 29 59.9990000  0  8 21  3 17 23  9  1 25 31            -0.000468975
  -1036406.266 9   -804817.88748  20575669.807    20575671.6334   20575677.5294
       168.786         131.522
   2040372.076 9   1589294.87248  21861162.122    21861164.2434   21861170.3484
     -1545.300       -1204.130
   5829352.620 9   4530143.84446  23483038.906    23483040.4394   23483048.1774
     -2876.301       -2241.274
   2889336.332 9   2246264.78048  22320488.680    22320490.6724   22320496.4594
     -1398.085       -1089.417
    449363.438 9    352788.70347  23751303.589    23751305.9204   23751312.3504
      -901.153        -702.197
  -3999708.059 9  -3105009.62048  20179123.571    20179125.8244   20179131.8234
      1066.882         831.337
  -2686560.936 9  -2074140.96646  24647387.768    24647390.1504   24647397.6414
      3669.706        2859.511
  -3184704.050 9  -2466146.01847  22492116.276    22492118.1114   22492124.1114
       643.396         501.348
 96 11 19 16 30 29.9990000  0  8 21  3 17 23  9  1 25 31            -0.000476842
  -1041366.873 9   -808683.30248  20574725.794    20574727.6774   20574733.5634
       162.061         126.281
   2086944.752 9   1625585.23548  21870024.640    21870026.7164   21870032.8104
     -1559.533       -1215.221
   5915764.333 9   4597477.56146  23499481.307    23499484.0584   23499491.9254
     -2884.243       -2247.462
   2931321.481 9   2278980.44848  22328478.433    22328480.1924   22328486.0344
     -1400.845       -1091.568
    476655.061 9    374054.87947  23756497.482    23756499.5034   23756505.8344
      -918.028        -715.346
  -4031458.800 9  -3129750.44148  20173081.761    20173083.8164   20173089.8754
      1050.205         818.341
  -2796696.433 9  -2159960.78846  24626428.692    24626431.9374   24626439.5034
      3672.580        2861.751
  -3203737.751 9  -2480977.50747  22488494.356    22488496.2004   22488502.1764
       625.522         487.420
 96 11 19 16 30 59.9990000  0  8 21  3 17 23  9  1 25 31            -0.000484709
  -1046127.283 9   -812392.72048  20573819.940    20573821.8204   20573827.6614
       155.543         121.202
   2133952.300 9   1662214.47148  21878969.673    21878971.9434   21878978.1074
     -1574.238       -1226.679
   6002411.767 9   4664994.94746  23515970.431    23515972.6584   23515980.5574
     -2892.006       -2253.511
   2973400.548 9   2311769.30348  22336485.823    22336487.6414   22336493.4834
     -1404.309       -1094.267
    504457.814 9    395719.35847  23761787.991    23761790.2194   23761796.5824
      -935.394        -728.878
  -4062711.218 9  -3154102.96248  20167134.710    20167136.6604   20167142.7314
      1033.370         805.223
  -2906898.719 9  -2245832.63546  24605458.845    24605461.0174   24605468.5954
      3674.444        2863.203
  -3222217.980 9  -2495377.70747  22484977.728    22484979.5654   22484985.5584
       606.542         472.630
 96 11 19 16 31 29.9990000  0  8 21  3 17 23  9  1 25 31            -0.000492564
  -1050704.056 9   -815959.03848  20572949.057    20572950.8994   20572956.6994
       149.751         116.689
   2181406.406 9   1699191.66548  21887999.784    21888002.1834   21888008.4224
     -1589.231       -1238.362
   6089279.663 9   4732684.12846  23532500.577    23532503.1094   23532511.0514
     -2898.967       -2258.935
   3015594.029 9   2344647.31448  22344514.950    22344516.8664   22344522.6684
     -1408.364       -1097.426
    532788.395 9    417795.11747  23767179.488    23767181.4304   23767187.7544
      -953.162        -742.724
  -4093461.635 9  -3178064.31248  20161283.187    20161285.0844   20161291.0714
      1016.894         792.385
  -3017165.093 9  -2331754.45046  24584475.242    24584478.0454   24584485.5504
      3676.933        2865.142
  -3240125.543 9  -2509331.68647  22481570.105    22481571.9304   22481577.9664
       587.315         457.648
 96 11 19 16 31 59.9990000  0  8 21  3 17 23  9  1 25 31            -0.000500404
  -1055113.138 9   -819394.68948  20572110.040    20572111.8594   20572117.6374
       143.808         112.058
   2229307.160 9   1736516.90148  21897114.715    21897117.3634   21897123.6934
     -1604.355       -1250.147
   6176341.849 9   4800524.70146  23549067.542    23549070.5424   23549078.4944
     -2905.392       -2263.942
   3057900.633 9   2377613.47048  22352565.725    22352567.6034   22352573.3684
     -1412.242       -1100.448
    561636.539 9    440274.16047  23772669.517    23772671.1744   23772677.3724
      -970.262        -756.048
  -4123733.732 9  -3201652.94748  20155522.573    20155524.4664   20155530.4234
      1001.059         780.046
  -3127516.135 9  -2417742.20946  24563476.375    24563478.9544   24563486.4734
      3679.548        2867.180
  -3257467.147 9  -2522844.64547  22478270.177    22478272.0364   22478278.0094
       568.565         443.038
 96 11 19 16 32 29.9990000  0  8 21  3 17 23  9  1 25 31            -0.000508229
  -1059344.471 9   -822691.83448  20571304.841    20571306.6574   20571312.4204
       138.193         107.683
   2277656.880 9   1774191.96648  21906315.568    21906318.0464   21906324.3584
     -1618.769       -1261.378
   6263590.231 9   4868510.35646  23565669.722    23565673.5054   23565681.4884
     -2911.156       -2268.433
   3100316.729 9   2410664.95048  22360637.405    22360639.1554   22360644.8564
     -1415.487       -1102.977
    590991.093 9    463147.81847  23778255.629    23778257.2804   23778263.2864
      -986.772        -768.913
  -4153536.138 9  -3224875.58748  20149851.098    20149853.2354   20149859.1774
       985.687         768.068
  -3237944.167 9  -2503789.98246  24542462.381    24542465.2114   24542472.7124
      3682.398        2869.401
  -3274244.758 9  -2535918.12747  22475077.502    22475079.4174   22475085.3454
       549.974         428.551
 96 11 19 16 32 59.9990000  0  8 21  3 17 23  9  1 25 31            -0.000516050
  -1063396.565 9   -825849.31648  20570533.713    20570535.5724   20570541.3254
       131.521         102.484
   2326438.223 9   1812203.36748  21915598.342    21915600.8504   21915607.2054
     -1633.612       -1272.944
   6351020.213 9   4936637.52646  23582307.437    23582310.9954   23582318.9134
     -2917.992       -2273.760
   3142839.654 9   2443799.67248  22368729.399    22368730.9994   22368736.7254
     -1419.495       -1106.100
    620853.279 9    486417.01546  23783938.576    23783939.9124   23783945.8264
     -1004.303        -782.574
  -4182852.953 9  -3247719.85048  20144272.214    20144274.4864   20144280.3634
       968.359         754.565
  -3348452.398 9  -2589900.23446  24521433.532    24521436.1264   24521443.6124
      3684.560        2871.086
  -3290459.476 9  -2548552.98847  22471991.994    22471993.9244   22471999.6044
       530.614         413.465
 96 11 19 16 33 29.9990000  0  8 21  3 17 23  9  1 25 31            -0.000523867
  -1067231.796 9   -828837.80948  20569803.815    20569805.7304   20569811.5174
       123.757          96.434
   2375668.036 9   1850564.22348  21924966.585    21924968.9884   21924975.3384
     -1648.501       -1284.546
   6438674.485 9   5004939.47346  23598987.655    23598991.0614   23598999.1344
     -2925.862       -2279.892
   3185481.859 9   2477027.33348  22376843.802    22376845.5644   22376851.3024
     -1423.469       -1109.197
    651235.368 9    510091.35446  23789719.656    23789721.4454   23789727.4004
     -1021.222        -795.757
  -4211646.267 9  -3270156.18248  20138793.256    20138795.3164   20138801.1734
       951.045         741.074
  -3459019.711 9  -2676056.54046  24500392.278    24500395.7524   24500403.3684
      3686.349        2872.480
  -3306092.765 9  -2560734.77847  22469017.068    22469018.9704   22469024.6434
       511.339         398.446
 96 11 19 16 33 59.9990000  0  8 21  3 17 23  9  1 25 31            -0.000531686
  -1070821.667 9   -831635.11348  20569120.655    20569122.6004   20569128.3904
       115.324          89.863
   2425333.714 9   1889264.72548  21934417.747    21934420.1204   21934426.3724
     -1662.728       -1295.632
   6526572.243 9   5073431.14446  23615713.477    23615717.3934   23615725.5254
     -2934.190       -2286.382
   3228242.328 9   2510347.14648  22384980.900    22384982.6354   22384988.3624
     -1427.515       -1112.349
    682116.350 9    534154.41846  23795595.464    23795597.8444   23795603.7254
     -1037.836        -808.703
  -4239917.901 9  -3292186.01948  20133413.421    20133415.4054   20133421.2524
       933.371         727.302
  -3569634.325 9  -2762249.70346  24479342.989    24479346.4624   24479354.1844
      3687.637        2873.483
  -3321157.102 9  -2572473.23847  22466150.267    22466152.1344   22466158.1464
       492.613         383.854
 96 11 19 16 34 29.9990000  0  8 21  3 17 23  9  1 25 31            -0.000539511
  -1074155.212 9   -834232.67948  20568486.389    20568488.2734   20568494.0334
       107.018          83.391
   2475424.271 9   1928296.30848  21943949.778    21943952.0764   21943958.2674
     -1676.564       -1306.414
   6614724.861 8   5142121.39746  23632488.703    23632492.2954   23632500.4764
     -2942.403       -2292.782
   3271126.208 9   2543763.14348  22393141.200    22393143.1934   22393148.9164
     -1431.279       -1115.282
    713507.289 9    558614.86947  23801568.919    23801571.4544   23801577.2314
     -1054.787        -821.912
  -4267642.973 9  -3313789.95948  20128137.669    20128139.5004   20128145.3284
       915.038         713.017
  -3680279.562 9  -2848466.74046  24458288.141    24458291.3894   24458299.0904
      3688.961        2874.515
  -3335648.869 9  -2583765.53247  22463392.472    22463394.4084   22463400.5044
       473.497         368.959
 96 11 19 16 34 59.9990000  0  8 21  3 17 23  9  1 25 31            -0.000547355
  -1077257.873 9   -836650.34148  20567896.004    20567897.8844   20567903.6134
        99.635          77.638
   2525915.176 9   1967639.83648  21953557.842    21953560.0834   21953566.3944
     -1690.016       -1316.896
   6703113.207 9   5210995.33046  23649308.759    23649312.1434   23649320.2964
     -2950.482       -2299.077
   3314104.092 9   2577252.37448  22401319.772    22401321.6774   22401327.4074
     -1434.148       -1117.518
    745401.965 9    583467.83847  23807638.649    23807640.9004   23807646.6714
     -1071.781        -835.154
  -4294833.777 9  -3334977.58848  20122962.940    20122965.2434   20122971.0724
       897.525         699.370
  -3790986.090 9  -2934731.52646  24437221.655    24437224.6194   24437232.2894
      3691.135        2876.209
  -3349584.738 9  -2594624.65247  22460740.589    22460742.5514   22460748.6824
       455.021         354.562
 96 11 19 16 35 29.9990000  0  8 21  3 17 23  9  1 25 31            -0.000555205
  -1080152.856 9   -838906.17448  20567345.067    20567346.9984   20567352.7294
        92.850          72.351
   2576816.339 9   2007303.04848  21963243.960    21963246.1594   21963252.5794
     -1703.979       -1327.776
   6791741.559 9   5280056.29346  23666174.759    23666177.5664   23666185.8484
     -2958.397       -2305.244
   3357169.450 9   2610809.76748  22409514.870    22409516.7754   22409522.5354
     -1437.516       -1120.142
    777804.998 9    608716.92447  23813805.129    23813807.0364   23813812.8204
     -1089.114        -848.660
  -4321512.919 9  -3355766.51948  20117885.948    20117888.3554   20117894.1664
       880.544         686.138
  -3901757.419 9  -3021046.83046  24416142.881    24416145.5444   24416153.1024
      3693.052        2877.703
  -3362960.257 9  -2605047.14748  22458195.479    22458197.3934   22458203.3704
       436.048         339.778
 96 11 19 16 35 59.9990000  0  8 21  3 17 23  9  1 25 31            -0.000563057
  -1082862.805 9   -841017.82648  20566829.425    20566831.3024   20566837.0304
        87.751          68.377
   2628130.692 9   2047288.21148  21973008.410    21973010.9904   21973017.4564
     -1717.139       -1338.030
   6880576.255 9   5349278.02446  23683080.002    23683082.3944   23683090.6224
     -2964.090       -2309.680
   3400319.538 9   2644433.19247  22417725.732    22417727.9584   22417733.7214
     -1439.125       -1121.396
    810727.545 9    634370.82147  23820069.998    23820071.9854   23820077.7984
     -1105.862        -861.711
  -4347693.541 9  -3376166.98848  20112904.083    20112906.3474   20112912.1254
       864.690         673.784
  -4012602.329 9  -3107419.47146  24395049.367    24395052.4004   24395059.8954
      3696.453        2880.353
  -3375775.117 9  -2615032.78048  22455757.224    22455758.9794   22455764.9254
       418.142         325.825
 96 11 19 16 36 29.9990000  0  8 21  3 17 23  9  1 25 31            -0.000570916
  -1085406.510 9   -842999.94348  20566345.430    20566347.2884   20566352.9344
        81.664          63.634
   2679861.915 9   2087598.23748  21982852.753    21982855.1774   21982861.5924
     -1731.653       -1349.340
   6969590.532 9   5418639.69346  23700018.011    23700021.4254   23700029.5454
     -2970.347       -2314.556
   3443524.524 9   2678099.39047  22425947.504    22425949.5894   22425955.3604
     -1441.271       -1123.068
    844164.731 9    660425.73946  23826432.483    23826434.8304   23826440.6424
     -1123.131        -875.167
  -4373383.734 9  -3396185.30648  20108015.557    20108017.6694   20108023.3854
       848.003         660.782
  -4123531.067 9  -3193857.42146  24373939.889    24373943.3544   24373950.7774
      3698.767        2882.156
  -3388033.286 9  -2624584.61247  22453424.549    22453426.3044   22453432.3074
       398.998         310.908
 96 11 19 16 36 59.9990000  0  8 21  3 17 23  9  1 25 31            -0.000578776
  -1087778.546 9   -844848.28948  20565894.041    20565895.9094   20565901.5334
        76.322          59.472
   2732020.447 9   2128241.22948  21992778.386    21992780.6214   21992787.1034
     -1745.630       -1360.231
   7058785.695 9   5488142.31046  23716991.006    23716994.7884   23717002.8734
     -2976.162       -2319.087
   3486787.606 9   2711810.86247  22434180.249    22434182.3134   22434188.0864
     -1443.084       -1124.481
    878105.919 9    686873.37246  23832890.939    23832893.5474   23832899.3724
     -1139.466        -887.896
  -4398590.302 9  -3415826.77248  20103219.178    20103221.0244   20103226.6974
       832.302         648.547
  -4234535.397 9  -3280354.27646  24352816.456    24352819.9274   24352827.3394
      3701.320        2884.145
  -3399733.916 9  -2633702.00147  22451197.974    22451199.6834   22451205.7434
       380.713         296.659
 96 11 19 16 37 29.9990000  0  8 21  3 17 23  9  1 25 31            -0.000586629
  -1089967.269 9   -846553.79948  20565477.568    20565479.4074   20565485.0434
        69.434          54.104
   2784612.229 9   2169221.80348  22002786.559    22002788.6344   22002794.9574
     -1760.194       -1371.580
   7148163.271 9   5557787.07246  23733999.532    23734002.8564   23734011.0094
     -2982.109       -2323.721
   3530125.336 9   2745580.49947  22442427.488    22442429.2574   22442435.0044
     -1446.051       -1126.793
    912537.274 9    713702.94846  23839443.582    23839445.6244   23839451.3904
     -1155.736        -900.574
  -4423307.785 9  -3435087.13748  20098515.584    20098517.4764   20098523.0774
       815.479         635.438
  -4345592.312 9  -3366892.11546  24331683.483    24331686.5274   24331693.8864
      3702.624        2885.162
  -3410864.553 9  -2642375.24647  22449079.744    22449081.5134   22449087.5134
       361.419         281.625
 96 11 19 16 37 59.9990000  0  8 21  3 17 23  9  1 25 31            -0.000594492
  -1091933.139 9   -848085.64748  20565103.440    20565105.3034   20565110.9684
        62.101          48.390
   2837633.951 9   2210537.40548  22012876.298    22012878.3194   22012884.6364
     -1774.032       -1382.362
   7237717.343 9   5627569.36546  23751041.131    23751044.4914   23751052.6844
     -2987.967       -2328.286
   3573552.462 9   2779419.80647  22450691.295    22450693.1784   22450698.9854
     -1448.642       -1128.812
    947456.329 9    740912.55446  23846088.226    23846090.4634   23846096.2864
     -1171.804        -913.094
  -4447507.451 9  -3453944.00648  20093910.508    20093912.4254   20093918.0254
       798.189         621.965
  -4456690.811 9  -3453462.34246  24310542.626    24310545.0584   24310552.5784
      3704.330        2886.491
  -3421422.225 9  -2650602.00247  22447070.594    22447072.4224   22447078.3444
       342.801         267.118
 96 11 19 16 38 29.9990000  0  8 21  3 17 23  9  1 25 31            -0.000602367
  -1093680.092 9   -849446.91948  20564770.996    20564772.8784   20564778.5654
        54.799          42.701
   2891068.362 9   2252174.57548  22023044.672    22023046.6174   22023052.8854
     -1787.665       -1392.986
   7327467.831 8   5697504.67946  23768119.301    23768123.4824   23768131.7074
     -2994.929       -2333.711
   3617071.701 9   2813330.88747  22458972.896    22458974.6454   22458980.4754
     -1452.291       -1131.655
    982865.220 9    768503.85046  23852826.880    23852828.5894   23852834.4124
     -1188.456        -926.070
  -4471177.724 9  -3472388.36048  20089406.171    20089408.0654   20089413.7204
       780.435         608.131
  -4567828.944 9  -3540063.44946  24289393.284    24289396.0994   24289403.6934
      3705.428        2887.346
  -3431410.777 9  -2658385.31947  22445169.971    22445171.8324   22445177.5954
       323.465         252.051
 96 11 19 16 38 59.9990000  0  8 21  3 17 23  9  1 25 31            -0.000610248
  -1095211.627 9   -850640.33348  20564479.569    20564481.4244   20564487.1224
        47.708          37.175
   2944895.188 9   2294117.53448  22033287.450    22033289.5174   22033295.7544
     -1800.359       -1402.877
   7417430.026 9   5767604.98046  23785238.391    23785242.7704   23785251.0074
     -3002.076       -2339.280
   3660703.142 9   2847329.39947  22467275.436    22467277.3954   22467283.3084
     -1456.103       -1134.626
   1018782.189 9    796491.01946  23859660.557    23859663.4464   23859669.2444
     -1205.690        -939.499
  -4494319.672 9  -3490421.02648  20085002.527    20085004.2774   20085009.9844
       762.738         594.341
  -4679011.076 9  -3626698.83946  24268236.403    24268238.8494   24268246.4414
      3707.052        2888.612
  -3440820.031 9  -2665717.22747  22443379.592    22443381.3844   22443387.0084
       304.050         236.922
 96 11 19 16 39 29.9990000  0  8 21  3 17 23  9  1 25 31            -0.000618132
  -1096533.501 9   -851670.37348  20564228.040    20564229.9164   20564235.5714
        41.021          31.964
   2999093.470 9   2336349.93848  22043600.984    22043603.1534   22043609.4194
     -1812.265       -1412.155
   7507591.935 8   5837860.89546  23802396.559    23802399.9894   23802408.4294
     -3008.162       -2344.022
   3704444.100 9   2881413.24247  22475599.179    22475601.0134   22475606.9454
     -1459.431       -1137.219
   1055209.583 9    824875.96846  23866593.080    23866595.4594   23866601.1554
     -1222.480        -952.582
  -4516939.841 9  -3508047.11348  20080697.928    20080699.8174   20080705.5284
       745.828         581.165
  -4790250.214 9  -3713378.64146  24247069.072    24247070.6624   24247078.2724
      3709.527        2890.541
  -3449653.375 9  -2672600.35747  22441698.628    22441700.4324   22441706.0494
       285.384         222.377
 96 11 19 16 39 59.9990000  0  8 21  3 17 23  9  1 25 31            -0.000626039
  -1097679.779 9   -852563.58348  20564009.918    20564011.8084   20564017.4444
        34.811          27.125
   3053627.014 9   2378843.58148  22053978.501    22053980.6054   22053986.9084
     -1824.052       -1421.339
   7597930.770 8   5908254.67846  23819588.940    23819590.9184   23819599.5424
     -3015.217       -2349.520
   3748270.124 9   2915563.37047  22483939.133    22483940.8234   22483946.7594
     -1462.914       -1139.933
   1092138.042 9    853651.33646  23873619.898    23873622.8264   23873628.4914
     -1240.096        -966.309
  -4539071.713 9  -3525292.71448  20076486.408    20076488.2824   20076493.9374
       729.133         568.156
  -4901581.253 9  -3800130.05546  24225883.398    24225885.1214   24225892.6214
      3711.732        2892.259
  -3457944.429 9  -2679060.93847  22440120.932    22440122.6784   22440128.3484
       266.640         207.771
 96 11 19 16 40 29.9990000  0  8 21  3 17 23  9  1 25 31            -0.000633934
  -1098636.401 9   -853309.01048  20563828.000    20563829.8074   20563835.3784
        28.279          22.036
   3108518.265 9   2421615.96148  22064424.136    22064426.1354   22064432.3494
     -1835.867       -1430.546
   7688489.626 9   5978819.90846  23836820.983    23836823.8784   23836832.4224
     -3022.448       -2355.154
   3792209.696 9   2949801.98247  22492300.499    22492302.2254   22492308.2084
     -1466.984       -1143.104
   1129593.091 9    882837.03446  23880747.857    23880750.3014   23880756.0604
     -1257.335        -979.742
  -4560714.744 9  -3542157.39948  20072367.735    20072369.7354   20072375.3634
       713.246         555.776
  -5012966.208 9  -3886923.47746  24204686.875    24204689.1624   24204696.7394
      3713.479        2893.620
  -3465663.482 9  -2685075.80047  22438651.820    22438653.6804   22438659.4644
       247.436         192.807
 96 11 19 16 40 59.9990000  0  9 21  3 17 23  9  1 15 25 31         -0.000641821
  -1099400.115 9   -853904.11748  20563682.666    20563684.4794   20563690.0514
        22.007          17.148
   3163754.342 9   2464657.03248  22074935.233    22074937.2194   22074943.4054
     -1847.383       -1439.519
   7779245.143 9   6049538.37146  23854092.173    23854094.1924   23854102.6834
     -3028.467       -2359.844
   3836263.834 9   2984129.84847  22500683.493    22500685.4614   22500691.4384
     -1470.605       -1145.926
   1167546.523 9    912411.09646  23887969.345    23887972.5294   23887978.3274
     -1273.397        -992.257
  -4581891.999 9  -3558659.15248  20068337.780    20068339.8324   20068345.4614
       697.897         543.816
   -291728.39319   -212563.09856  24646750.330           0.0005          0.0005
      3996.194        3113.917
  -5124412.407 9  -3973764.61846  24183478.361    24183481.5064   24183489.1474
      3715.514        2895.206
  -3472819.745 9  -2690652.12448  22437290.030    22437292.0104   22437297.6274
       228.960         178.410
 96 11 19 16 41 29.9990000  0  9 21  3 17 23  9  1 15 25 31         -0.000649689
  -1099958.778 9   -854339.44648  20563576.404    20563578.1724   20563583.6924
        15.405          12.004
   3219363.828 9   2507989.07248  22085517.257    22085519.3384   22085525.4894
     -1859.727       -1449.138
   7870190.534 8   6120404.80446  23871399.015    23871400.7014   23871409.0444
     -3034.658       -2364.669
   3880442.218 9   3018554.54347  22509090.403    22509092.3734   22509098.3014
     -1474.319       -1148.820
   1205985.858 9    942363.78546  23895283.977    23895287.2334   23895293.1804
     -1289.097       -1004.491
  -4602603.272 9  -3574797.79448  20064396.461    20064398.6054   20064404.2364
       682.894         532.125
   -411620.997 9   -305985.93356  24623935.967           0.0005   24623943.4535
      3996.832        3114.415
  -5235896.170 9  -4060635.05046  24162263.325    24162266.7794   24162274.4744
      3716.870        2896.262
  -3479411.055 9  -2695788.22348  22436036.021    22436037.8824   22436043.4354
       210.532         164.051
 96 11 19 16 41 59.9990000  0  9 21  3 17 23  9  1 15 25 31         -0.000657528
  -1100290.479 9   -854597.91748  20563513.242    20563515.0574   20563520.5774
         7.177           5.592
   3275363.391 9   2551625.06948  22096173.811    22096175.6984   22096181.8754
     -1873.097       -1459.556
   7961359.628 9   6191445.53746  23888749.837    23888749.7384   23888758.0794
     -3042.675       -2370.916
   3924752.923 9   3053082.33947  22517522.785    22517524.4944   22517530.3544
     -1478.992       -1152.461
   1244923.283 9    972704.60846  23902693.895    23902696.8334   23902702.8514
     -1305.929       -1017.607
  -4622831.519 9  -3590560.05048  20060547.378    20060549.2814   20060554.9294
       666.138         519.068
   -531509.562 9   -399405.57956  24601121.999    24601123.1265   24601129.9075
      3996.365        3114.051
  -5347390.017 9  -4147513.32646  24141046.384    24141050.2194   24141057.8444
      3716.535        2896.001
  -3485418.015 9  -2700468.98248  22434893.026    22434894.8884   22434900.4684
       190.504         148.445
 96 11 19 16 42 29.9990000  0  9 21  3 17 23  9  1 15 25 31         -0.000665354
  -1100391.109 9   -854676.33548  20563494.089    20563495.8884   20563501.4094
        -0.472          -0.368
   3331748.248 9   2595561.29448  22106903.515    22106905.4684   22106911.6484
     -1885.954       -1469.575
   8052740.434 8   6262651.26046  23906139.560    23906139.0494   23906147.5144
     -3049.487       -2376.224
   3969177.229 9   3087698.65747  22525976.232    22525978.1484   22525984.0494
     -1482.651       -1155.312
   1284337.167 9   1003416.68546  23910194.543    23910197.0664   23910203.1934
     -1321.713       -1029.906
  -4642566.350 9  -3605937.82348  20056791.957    20056793.8424   20056799.5224
       649.226         505.890
   -651402.091 9   -492828.34346  24578307.116    24578308.3995   24578315.3014
      3996.240        3113.953
  -5458890.640 9  -4234396.89046  24119828.695    24119832.3424   24119839.9944
      3716.715        2896.142
  -3490842.550 9  -2704695.91648  22433860.781    22433862.6944   22433868.4294
       170.990         133.239
 96 11 19 16 42 59.9990000  0  9 21  3 17 23  9  1 15 25 31         -0.000673185
  -1100279.640 9   -854589.48148  20563515.227    20563517.0924   20563522.6524
        -7.566          -5.896
   3388510.332 9   2639791.46948  22117704.944    22117706.9514   22117713.1474
     -1898.859       -1479.630
   8144311.783 9   6334005.45646  23923564.619    23923564.4894   23923573.0844
     -3055.917       -2381.234
   4013687.062 9   3122381.60847  22534446.100    22534448.0914   22534454.0024
     -1485.188       -1157.289
   1324211.052 9   1034487.19446  23917782.232    23917784.8304   23917790.9574
     -1337.270       -1042.029
  -4661795.356 9  -3620921.45748  20053132.874    20053134.6754   20053140.3614
       632.183         492.610
   -771301.402 9   -586256.37546  24555491.036    24555492.4754   24555499.2964
      3996.269        3113.976
  -5570403.826 9  -4321290.25946  24098609.964    24098612.0454   24098619.8124
      3716.824        2896.226
  -3495693.288 9  -2708475.73948  22432937.972    22432939.7764   22432945.6664
       151.763         118.257
 96 11 19 16 43 29.9990000  0  9 21  3 17 23  9  1 15 25 31         -0.000681018
  -1099946.933 9   -854330.23148  20563578.497    20563580.4124   20563585.9644
       -14.903         -11.613
   3445657.110 9   2684321.41348  22128579.581    22128581.6284   22128587.7924
     -1911.179       -1489.230
   8236082.195 9   6405514.76646  23941027.230    23941027.8814   23941036.5354
     -3062.576       -2386.423
   4058264.181 9   3157116.98847  22542928.990    22542930.8544   22542936.7804
     -1487.029       -1158.724
   1364560.114 9   1065927.99346  23925460.427    23925463.0234   23925469.0704
     -1353.170       -1054.418
  -4680515.288 9  -3635508.40448  20049570.478    20049572.3924   20049578.0934
       615.354         479.497
   -891194.826 9   -679679.81646  24532675.876    24532677.4994   24532684.3374
      3996.163        3113.893
  -5681917.718 9  -4408184.17946  24077390.011    24077391.5884   24077399.4044
      3717.106        2896.446
  -3499968.305 9  -2711806.92948  22432124.566    22432126.3934   22432132.3754
       132.739         103.433
 96 11 19 16 43 59.9990000  0  9 21  3 17 23  9  1 15 25 31         -0.000688865
  -1099411.218 9   -853912.79448  20563680.473    20563682.4004   20563687.9004
       -21.153         -16.483
   3503157.687 9   2729127.02748  22139521.572    22139523.6044   22139529.8404
     -1922.673       -1498.187
   8328038.107 9   6477168.60346  23958526.266    23958526.7294   23958535.0794
     -3068.056       -2390.693
   4102891.024 9   3191891.12447  22551421.281    22551423.1034   22551428.9934
     -1488.545       -1159.905
   1405388.323 9   1097742.13846  23933229.763    23933232.5164   23933238.4884
     -1369.060       -1066.800
  -4698731.339 9  -3649702.72248  20046103.871    20046105.9524   20046111.6684
       598.725         466.539
  -1011087.816 9   -773102.91646  24509861.120    24509862.7054   24509869.3894
      3996.258        3113.967
  -5793450.678 9  -4495092.97146  24056166.438    24056167.5824   24056175.3464
      3718.032        2897.168
  -3503678.652 9  -2714698.12448  22431418.503    22431420.2124   22431426.4814
       114.248          89.024
 96 11 19 16 44 29.9990000  0  9 21  3 17 23  9  1 15 25 31         -0.000696725
  -1098688.059 9   -853349.30148  20563818.149    20563820.0394   20563825.5074
       -27.096         -21.114
   3561016.753 9   2774212.01348  22150531.550    22150533.8404   22150540.1234
     -1934.535       -1507.430
   8420157.878 8   6548950.12846  23976055.918    23976056.6674   23976065.0144
     -3073.384       -2394.845
   4147572.385 9   3226707.73247  22559924.000    22559925.6914   22559931.6044
     -1490.379       -1161.334
   1446702.128 9   1129934.68646  23941091.078    23941094.2164   23941100.3924
     -1385.297       -1079.452
  -4716453.075 9  -3663511.86548  20042731.734    20042733.6324   20042739.3104
       582.774         454.110
  -1130975.603 9   -866521.96646  24487046.951    24487048.7874   24487055.4534
      3996.131        3113.868
  -5905007.015 9  -4582019.98646  24034939.878    24034939.1124   24034946.8024
      3718.986        2897.911
  -3506832.951 9  -2717156.03947  22430818.071    22430819.7794   22430826.2534
        95.824          74.668
 96 11 19 16 44 59.9990000  0  9 21  3 17 23  9  1 15 25 31         -0.000704585
  -1097789.152 9   -852648.86048  20563989.194    20563991.0944   20563996.5474
       -33.554         -26.146
   3619224.081 9   2819568.33748  22161607.724    22161610.2824   22161616.7104
     -1946.505       -1516.757
   8512431.873 9   6620851.84346  23993614.719    23993615.8444   23993624.4414
     -3078.773       -2399.044
   4192313.302 9   3261570.74847  22568437.966    22568439.6524   22568445.5304
     -1493.105       -1163.458
   1488509.982 9   1162512.18746  23949046.692    23949050.0984   23949056.2254
     -1402.529       -1092.880
  -4733713.821 9  -3676961.78748  20039447.187    20039449.0324   20039454.6814
       567.405         442.134
  -1250861.954 9   -959939.90446  24464233.325    24464235.2434   24464241.8714
      3995.681        3113.518
  -6016599.772 9  -4668975.37246  24013703.976    24013703.7124   24013711.3834
      3719.950        2898.662
  -3509439.851 9  -2719187.39347  22430321.780    22430323.5184   22430329.9024
        77.398          60.310
 96 11 19 16 45 29.9990000  0  9 21  3 17 23  9  1 15 25 31         -0.000712434
  -1096702.949 9   -851802.47248  20564195.957    20564197.8174   20564203.2504
       -39.532         -30.804
   3677781.631 9   2865197.55848  22172750.691    22172753.3914   22172759.8924
     -1958.051       -1525.754
   8604861.716 8   6692874.97445  24011205.531    24011204.7624   24011213.3504
     -3083.980       -2403.101
   4237140.647 9   3296501.10847  22576968.164    22576970.0274   22576975.9004
     -1496.122       -1165.809
   1530830.867 9   1195489.43446  23957100.158    23957103.5924   23957109.6084
     -1419.432       -1106.051
  -4750521.682 9  -3690058.81648  20036248.542    20036250.6234   20036256.2374
       552.270         430.340
  -1370739.190 9  -1053350.75946  24441421.507    24441423.4374   24441430.1314
      3995.520        3113.392
  -6128235.208 8  -4755964.00346  23992458.816    23992460.2244   23992467.7904
      3721.655        2899.991
  -3511508.040 9  -2720798.98547  22429927.980    22429929.8174   22429936.1464
        59.735          46.547
 96 11 19 16 45 59.9990000  0  9 21  3 17 23  9  1 15 25 31         -0.000720266
  -1095424.262 9   -850806.09848  20564439.368    20564441.1884   20564446.5904
       -45.942         -35.799
   3736705.855 9   2911112.49648  22183963.900    22183966.3564   22183972.8484
     -1970.091       -1535.136
   8697473.478 8   6765039.88445  24028829.517    24028828.5184   24028836.7744
     -3090.202       -2407.950
   4282079.436 9   3331518.31447  22585519.709    22585521.6504   22585527.4824
     -1499.811       -1168.684
   1573669.475 9   1228870.10946  23965252.148    23965255.4604   23965261.6064
     -1436.419       -1119.288
  -4766852.439 9  -3702784.07648  20033140.526    20033142.9844   20033148.5584
       536.342         417.929
  -1490595.238 9  -1146745.09946  24418613.631    24418615.5834   24418622.3724
      3994.881        3112.894
  -6239896.122 8  -4842972.50346  23971208.799    23971211.8104   23971219.3684
      3722.264        2900.465
  -3513029.873 9  -2721984.84847  22429638.357    22429640.1444   22429646.1774
        41.537          32.366
 96 11 19 16 46 29.9990000  0  9 21  3 17 23  9  1 15 25 31         -0.000728088
  -1093941.684 9   -849650.84648  20564721.463    20564723.3004   20564728.7194
       -52.911         -41.229
   3795991.936 9   2957309.42248  22195245.942    22195248.1824   22195254.6484
     -1982.140       -1544.525
   8790273.397 8   6837351.37445  24046490.057    24046487.8764   24046496.0574
     -3096.447       -2412.816
   4327127.702 9   3366620.83347  22594092.107    22594094.0694   22594099.8904
     -1503.396       -1171.477
   1617006.218 9   1262638.94146  23973498.878    23973502.2414   23973508.3634
     -1452.720       -1131.990
  -4782707.546 9  -3715138.69748  20030123.556    20030125.8664   20030131.4194
       520.599         405.662
  -1610435.984 9  -1240127.50446  24395808.818    24395810.6154   24395817.5444
      3994.509        3112.604
  -6351576.652 8  -4929996.27846  23949957.117    23949959.7394   23949967.3564
      3722.928        2900.983
  -3514010.652 9  -2722749.11347  22429451.763    22429453.4104   22429459.3584
        23.631          18.414
 96 11 19 16 46 59.9990000  0  9 21  3 17 23  9  1 15 25 31         -0.000735909
  -1092253.221 9   -848335.17548  20565042.855    20565044.6384   20565050.0534
       -59.489         -46.355
   3855627.680 9   3003778.80448  22206594.391    22206596.4694   22206602.9824
     -1993.573       -1553.434
   8883258.143 8   6909806.91145  24064182.625    24064182.2034   24064190.4434
     -3102.275       -2417.357
   4372280.992 9   3401805.18047  22602684.681    22602686.4904   22602692.3794
     -1506.714       -1174.063
   1660825.306 9   1296783.63346  23981838.721    23981840.7204   23981846.9154
     -1468.361       -1144.177
  -4798087.033 9  -3727122.70848  20027196.969    20027199.2744   20027204.7994
       504.742         393.305
  -1730269.461 9  -1333504.24446  24373005.197    24373007.1044   24373014.1544
      3994.532        3112.622
  -6463276.630 8  -5017035.20346  23928701.103    23928703.8904   23928711.6184
      3723.722        2901.602
  -3514461.644 9  -2723100.55947  22429365.574    22429367.4234   22429373.5724
         6.665           5.194
 96 11 19 16 47 29.9990000  0  9 21  3 17 23  9  1 15 25 31         -0.000743743
  -1090352.671 9   -846854.23548  20565404.597    20565406.3094   20565411.7274
       -67.027         -52.229
   3915619.720 9   3050525.82848  22218010.240    22218012.5294   22218019.1624
     -2005.676       -1562.864
   8976434.102 8   6982411.43545  24081912.852    24081913.1804   24081921.3114
     -3109.088       -2422.666
   4417538.231 9   3437070.52147  22611296.771    22611298.7334   22611304.6444
     -1510.014       -1176.634
   1705113.543 9   1331293.88246  23990266.297    23990268.5704   23990274.7384
     -1483.863       -1156.257
  -4812966.292 9  -3738716.92848  20024365.751    20024367.8804   20024373.3664
       487.467         379.844
  -1850089.798 9  -1426870.74046  24350204.086    24350206.0184   24350213.1314
      3993.810        3112.060
  -6574976.626 8  -5104074.15446  23907446.065    23907448.0674   23907455.8254
      3723.136        2901.145
  -3514391.413 9  -2723045.81947  22429378.896    22429380.8314   22429386.8934
       -11.249          -8.765
 96 11 19 16 47 59.9990000  0  9 21  3 17 23  9  1 15 25 31         -0.000751587
  -1088220.771 9   -845193.02548  20565810.287    20565812.0104   20565817.4084
       -74.811         -58.294
   3975969.041 9   3097551.22048  22229494.727    22229496.7054   22229503.3034
     -2017.238       -1571.874
   9069805.697 8   7055168.39445  24099682.166    24099681.4854   24099689.4474
     -3115.183       -2427.415
   4462891.732 9   3472410.86747  22619927.122    22619929.2024   22619935.1804
     -1513.192       -1179.111
   1749863.532 9   1366163.94446  23998782.213    23998784.2894   23998790.4104
     -1499.300       -1168.286
  -4827326.588 9  -3749906.75748  20021633.147    20021635.2054   20021640.7214
       470.257         366.434
  -1969886.251 9  -1520218.61546  24327407.737    24327409.5014   24327416.6014
      3992.902        3111.352
  -6686653.023 8  -5191094.70746  23886194.790    23886196.7464   23886204.4964
      3722.292        2900.487
  -3513777.296 9  -2722567.29447  22429496.100    22429497.9604   22429503.7314
       -29.476         -22.968
 96 11 19 16 48 29.9990000  0  9 21  3 17 23  9  1 15 25 31         -0.000759449
  -1085864.296 9   -843356.81848  20566258.699    20566260.4504   20566265.8414
       -82.178         -64.035
   4036660.258 9   3144843.04448  22241044.276    22241045.8694   22241052.5024
     -2028.802       -1580.885
   9163337.203 8   7128049.95145  24117480.117    24117479.9484   24117487.9864
     -3120.178       -2431.307
   4508330.816 9   3507817.91547  22628573.950    22628575.9914   22628582.0034
     -1516.032       -1181.324
   1795067.958 9   1401388.10546  24007384.328    24007386.3924   24007392.5174
     -1514.280       -1179.958
  -4841182.399 9  -3760703.48148  20018996.392    20018998.5024   20019004.0514
       453.577         353.437
  -2089665.215 9  -1613552.88146  24304614.573    24304616.3574   24304623.3664
      3992.272        3110.861
  -6798316.018 9  -5278104.81846  23864945.917    23864947.9754   23864955.6954
      3721.819        2900.119
  -3512625.713 9  -2721669.98247  22429715.473    22429717.3144   22429722.8274
       -47.338         -36.887
 96 11 19 16 48 59.9990000  0  9 21  3 17 23  9  1 15 25 31         -0.000767331
  -1083287.558 9   -841348.98148  20566749.007    20566750.7884   20566756.1874
       -89.278         -69.567
   4097694.611 9   3192402.27348  22252658.457    22252660.3304   22252667.0504
     -2039.988       -1589.601
   9257019.219 8   7201048.78845  24135307.647    24135307.1574   24135315.3944
     -3125.049       -2435.103
   4553857.997 9   3543293.60147  22637237.594    22637239.5514   22637245.5974
     -1518.862       -1183.529
   1840720.127 9   1436961.16746  24016071.404    24016073.7524   24016079.8534
     -1528.847       -1191.309
  -4854530.737 9  -3771104.76848  20016456.167    20016458.4194   20016463.9164
       436.598         340.206
  -2209421.956 9  -1706869.83246  24281825.424    24281827.3384   24281834.4724
      3991.678        3110.398
  -6909956.664 9  -5365097.50946  23843701.065    23843703.5664   23843711.2304
      3721.197        2899.634
  -3510938.787 9  -2720355.48947  22430036.396    22430038.3284   22430043.7914
       -64.964         -50.621
 96 11 19 16 49 29.9990000  0  9 21  3 17 23  9  1 15 25 31         -0.000775233
  -1080491.124 9   -839169.95648  20567281.098    20567282.9294   20567288.3264
       -96.731         -75.375
   4159064.201 9   3240222.70448  22264336.160    22264338.5484   22264345.3514
     -2050.813       -1598.036
   9350853.394 8   7274166.22445  24153163.044    24153163.1934   24153171.4524
     -3130.015       -2438.973
   4599469.574 9   3578835.06147  22645917.186    22645919.2274   22645925.2524
     -1521.542       -1185.617
   1886810.665 9   1472875.81546  24024842.666    24024844.6184   24024850.6414
     -1543.421       -1202.666
  -4867369.336 9  -3781108.86048  20014013.059    20014015.3484   20014020.7864
       419.775         327.097
  -2329154.066 9  -1800167.62046  24259041.265    24259043.0894   24259050.2114
      3990.861        3109.762
  -7021572.638 9  -5452070.95446  23822460.545    23822463.6864   23822471.4564
      3720.437        2899.042
  -3508702.451 9  -2718612.92747  22430461.972    22430463.8704   22430469.4934
       -83.753         -65.262
 96 11 19 16 49 59.9990000  0  9 21  3 17 23  9  1 15 25 31         -0.000783149
  -1077481.576 9   -836824.86448  20567853.721    20567855.5974   20567861.0074
      -103.888         -80.952
   4220751.489 9   3288290.67647  22276074.690    22276077.2344   22276084.0684
     -2061.892       -1606.669
   9444826.570 8   7347391.95445  24171044.730    24171045.7324   24171054.1944
     -3135.153       -2442.976
   4645165.690 9   3614442.38847  22654612.703    22654614.9514   22654621.0024
     -1525.078       -1188.372
   1933339.396 9   1509131.92546  24033696.648    24033698.7404   24033704.8444
     -1558.701       -1214.572
  -4879717.293 9  -3790730.63348  20011663.598    20011665.6064   20011671.0574
       403.326         314.280
  -2448867.095 9  -1893450.52546  24236260.751    24236262.4234   24236269.5504
      3989.772        3108.913
  -7133173.171 9  -5539032.34546  23801222.412    23801226.7084   23801234.6324
      3719.487        2898.302
  -3505908.936 9  -2716436.19148  22430993.582    22430995.4694   22431001.1934
      -102.662         -79.996
 96 11 19 16 50 29.9990000  0  9 21  3 17 23  9  1 15 25 31         -0.000791065
  -1074276.282 9   -834327.24348  20568463.763    20568465.5584   20568470.9474
      -110.274         -85.928
   4282765.234 9   3336613.04448  22287875.657    22287878.0884   22287884.8394
     -2072.724       -1615.110
   9538948.125 8   7420733.29045  24188954.762    24188956.7244   24188965.1954
     -3140.061       -2446.801
   4690959.331 9   3650125.71647  22663326.861    22663329.1864   22663335.2374
     -1528.203       -1190.808
   1980313.407 9   1545735.01146  24042635.574    24042637.6424   24042643.7594
     -1573.127       -1225.813
  -4891588.016 9  -3799980.53648  20009404.717    20009406.6634   20009412.1024
       387.660         302.073
  -2568560.567 9  -1986718.15546  24213483.582    24213485.5874   24213492.6444
      3989.339        3108.576
  -7244762.912 9  -5625985.32746  23779988.134    23779991.8164   23779999.7824
      3719.418        2898.248
  -3502568.613 9  -2713833.35448  22431629.233    22431631.2584   22431636.9854
      -120.544         -93.930
 96 11 19 16 50 59.9990000  0  9 21  3 17 23  9  1 15 25 31         -0.000798980
  -1070861.269 9   -831666.20748  20569113.585    20569115.4424   20569120.8294
      -117.483         -91.545
   4345117.789 9   3385199.42848  22299741.183    22299743.4204   22299750.1644
     -2084.212       -1624.061
   9633235.773 8   7494204.08646  24206896.149    24206899.1114   24206907.6644
     -3145.894       -2451.346
   4736858.947 9   3685891.61247  22672061.378    22672063.5344   22672069.6334
     -1531.872       -1193.666
   2027735.696 9   1582687.40746  24051660.263    24051661.9304   24051668.0264
     -1588.496       -1237.789
  -4902968.985 9  -3808848.81148  20007238.859    20007240.8814   20007246.3764
       370.944         289.047
  -2688224.798 9  -2079963.01246  24190712.235    24190714.2794   24190721.2054
      3988.025        3107.552
  -7356334.473 9  -5712924.12346  23758757.411    23758760.4464   23758768.4764
      3718.742        2897.721
  -3498679.424 9  -2710802.82948  22432369.448    22432371.4124   22432377.1674
      -138.938        -108.263
 96 11 19 16 51 29.9990000  0  9 21  3 17 23  9  1 15 25 31         -0.000806924
  -1067231.167 9   -828837.56248  20569804.402    20569806.2564   20569811.6384
      -124.446         -96.971
   4407809.923 9   3434050.39448  22311671.410    22311673.3944   22311680.1444
     -2095.097       -1632.543
   9727694.167 8   7567807.92746  24224871.300    24224873.8704   24224882.5444
     -3151.165       -2455.453
   4782863.690 9   3721739.43147  22680815.831    22680817.9744   22680824.1044
     -1535.054       -1196.146
   2075629.049 9   1620006.83646  24060774.587    24060775.7544   24060781.8344
     -1604.152       -1249.989
  -4913859.254 9  -3817334.72748  20005166.671    20005168.4914   20005174.0084
       355.222         276.796
  -2807852.316 9  -2173179.28046  24167947.939    24167949.9904   24167956.7284
      3987.197        3106.907
  -7467897.408 9  -5799856.16246  23737527.141    23737530.7004   23737538.7334
      3718.919        2897.859
  -3494240.623 9  -2707344.05048  22433214.399    22433216.2134   22433222.0004
      -156.765        -122.155
 96 11 19 16 51 59.9990000  0  9 21  3 17 23  9  1 15 25 31         -0.000814836
  -1063391.554 9   -825845.66148  20570535.056    20570536.9154   20570542.2974
      -131.569        -102.521
   4470831.478 9   3483158.06248  22323664.014    22323666.0634   22323672.7964
     -2106.334       -1641.299
   9822311.539 8   7641535.62446  24242875.285    24242878.9754   24242887.6944
     -3156.817       -2459.857
   4828972.809 9   3757668.58547  22689590.192    22689592.2514   22689598.4014
     -1538.977       -1199.203
   2123989.458 9   1657690.24246  24069977.020    24069978.5344   24069984.7104
     -1619.895       -1262.256
  -4924275.378 9  -3825451.17748  20003184.388    20003186.3424   20003191.8604
       339.120         264.249
  -2927452.094 9  -2266373.94846  24145188.883    24145190.9904   24145197.6324
      3985.965        3105.947
  -7579469.649 9  -5886795.44646  23716295.026    23716299.1944   23716307.2214
      3719.169        2898.054
  -3489279.337 9  -2703478.15548  22434158.642    22434160.4024   22434166.0834
      -174.135        -135.690
 96 11 19 16 52 29.9990000  0  9 21  3 17 23  9  1 15 25 31         -0.000822754
  -1059339.732 9   -822688.40748  20571306.122    20571307.9584   20571313.3494
      -138.798        -108.154
   4534175.837 9   3532517.25748  22335718.213    22335720.1234   22335726.8584
     -2116.713       -1649.387
   9917092.280 8   7715390.62946  24260910.465    24260915.2364   24260923.9394
     -3161.870       -2463.795
   4875189.113 9   3793681.26047  22698385.210    22698386.9744   22698393.1054
     -1542.286       -1201.781
   2172810.723 9   1695732.73946  24079267.495    24079268.8594   24079275.0814
     -1635.003       -1274.028
  -4934208.635 9  -3833191.36848  20001294.031    20001296.0874   20001301.6034
       322.895         251.606
  -3047018.975 9  -2359542.96746  24122436.263    24122438.1294   24122444.8884
      3984.984        3105.182
  -7691059.053 9  -5973748.09846  23695061.145    23695064.3594   23695072.4474
      3719.884        2898.611
  -3483803.259 9  -2699211.10748  22435200.784    22435202.5464   22435208.1804
      -191.260        -149.034
 96 11 19 16 52 59.9990000  0  9 21  3 17 23  9  1 15 25 31         -0.000830687
  -1055072.644 9   -819363.41248  20572118.174    20572119.9634   20572125.3514
      -145.776        -113.592
   4597819.199 9   3582109.44348  22347829.260    22347831.1444   22347837.7024
     -2126.302       -1656.859
  10012020.263 8   7789360.36846  24278975.140    24278979.4074   24278988.3374
     -3166.832       -2467.661
   4921506.632 9   3829772.80547  22707199.129    22707200.9324   22707207.0924
     -1545.853       -1204.561
   2222087.558 9   1734130.21046  24088643.917    24088645.7834   24088652.2734
     -1650.493       -1286.098
  -4943657.795 9  -3840554.33948  19999495.895    19999497.9164   19999503.4704
       306.968         239.196
  -3166554.194 9  -2452687.28546  24099689.221    24099691.4414   24099698.1474
      3983.750        3104.221
  -7802663.957 9  -6060712.81746  23673823.362    23673826.6344   23673834.6594
      3720.149        2898.817
  -3477807.908 9  -2694539.41648  22436341.852    22436343.5544   22436349.0934
      -208.790        -162.694
 96 11 19 16 53 29.9990000  0  9 21  3 17 23  9  1 15 25 31         -0.000838621
  -1050599.252 9   -815877.66448  20572969.406    20572971.2034   20572976.6324
      -152.205        -118.601
   4661740.243 9   3631918.01248  22359993.223    22359994.9204   22360001.5084
     -2134.881       -1663.544
  10107103.364 8   7863450.99146  24297069.541    24297073.2154   24297082.2224
     -3171.556       -2471.342
   4967938.167 9   3865953.19247  22716034.395    22716036.5904   22716042.7244
     -1549.379       -1207.308
   2271830.567 9   1772890.92546  24098109.150    24098111.6234   24098118.0094
     -1665.304       -1297.639
  -4952640.409 9  -3847553.77748  19997786.673    19997788.5854   19997794.1214
       292.145         227.645
  -3286048.797 9  -2545799.95046  24076950.306    24076952.3884   24076959.0584
      3982.810        3103.488
  -7914273.448 9  -6147681.12146  23652584.540    23652587.9704   23652595.9904
      3720.561        2899.138
  -3471279.669 9  -2689452.49548  22437584.095    22437585.9024   22437591.5074
      -226.289        -176.329
 96 11 19 16 53 59.9990000  0  9 21  3 17 23  9  1 15 25 31         -0.000846553
  -1045922.949 9   -812233.80648  20573859.323    20573861.1054   20573866.5024
      -159.144        -124.008
   4725929.973 9   3681935.93047  22372207.850    22372209.8974   22372216.4404
     -2144.186       -1670.794
  10202336.258 8   7937658.34846  24315191.818    24315195.6664   24315204.5614
     -3176.939       -2475.537
   5014486.946 9   3902224.93947  22724892.521    22724894.5524   22724900.7134
     -1553.421       -1210.458
   2322020.859 9   1812000.18446  24107660.511    24107662.6024   24107668.8724
     -1680.521       -1309.497
  -4961159.838 9  -3854192.28948  19996165.682    19996167.4104   19996172.9274
       276.091         215.136
  -3405501.317 8  -2638879.84646  24054219.159    24054221.3214   24054227.9264
      3980.895        3101.996
  -8025865.169 9  -6234635.57146  23631350.238    23631352.6634   23631360.7114
      3719.071        2897.977
  -3464209.558 9  -2683943.34347  22438929.577    22438931.2214   22438936.9704
      -244.825        -190.773
 96 11 19 16 54 29.9990000  0  9 21  3 17 23  9  1 15 25 31         -0.000854485
  -1041060.157 9   -808444.63048  20574784.744    20574786.4694   20574791.8804
      -164.580        -128.244
   4790389.431 9   3732164.04447  22384474.179    22384476.1414   22384482.6654
     -2152.729       -1677.451
  10297717.237 8   8011981.08946  24333342.402    24333346.2774   24333355.0184
     -3181.244       -2478.891
   5061128.174 9   3938568.72047  22733768.016    22733770.0654   22733776.2564
     -1555.493       -1212.072
   2372662.837 9   1851461.40046  24117296.917    24117299.5394   24117305.8124
     -1695.155       -1320.900
  -4969213.639 9  -3860467.97848  19994633.176    19994634.8424   19994640.3354
       261.353         203.652
  -3524907.492 8  -2731923.57645  24031497.008    24031498.9944   24031505.6344
      3979.930        3101.244
  -8137410.900 9  -6321554.19046  23610123.250    23610126.0674   23610134.1324
      3717.710        2896.917
  -3456599.249 9  -2678013.27447  22440377.653    22440379.3114   22440385.2374
      -262.086        -204.223
 96 11 19 16 54 59.9990000  0  9 21  3 17 23  9  1 15 25 31         -0.000862413
  -1036025.149 9   -804521.26248  20575742.820    20575744.5984   20575750.0434
      -170.413        -132.789
   4855117.008 9   3782601.08448  22396791.735    22396793.4324   22396799.9324
     -2161.904       -1684.601
  10393237.454 8   8086412.31646  24351520.382    24351523.4054   24351532.0114
     -3186.316       -2482.844
   5107841.820 9   3974968.92847  22742657.663    22742659.4734   22742665.6334
     -1558.008       -1214.032
   2423754.473 9   1891272.99146  24127019.400    24127022.0314   24127028.1354
     -1710.211       -1332.632
  -4976820.319 9  -3866395.25748  19993185.351    19993187.3124   19993192.8484
       246.361         191.970
  -3644269.803 8  -2824933.14146  24008782.846    24008785.0004   24008791.6814
      3978.215        3099.908
  -8248896.890 9  -6408426.27746  23588908.516    23588910.9074   23588918.9474
      3715.373        2895.096
  -3448462.202 9  -2671672.73847  22441925.957    22441927.6844   22441933.6934
      -279.672        -217.926
 96 11 19 16 55 29.9990000  0  9 21  3 17 23  9  1 15 25 31         -0.000870361
  -1030818.168 9   -800463.88248  20576733.672    20576735.4664   20576740.9414
      -176.359        -137.423
   4920120.137 9   3833252.83447  22409161.332    22409163.1774   22409169.6854
     -2171.291       -1691.915
  10488898.458 8   8160953.26246  24369723.838    24369727.1544   24369735.9894
     -3190.574       -2486.162
   5154614.417 9   4011415.07447  22751558.550    22751560.0454   22751566.2374
     -1559.596       -1215.270
   2475279.204 9   1931422.04646  24136824.404    24136826.9084   24136833.0514
     -1724.158       -1343.500
  -4983977.183 9  -3871972.02748  19991823.348    19991825.3424   19991830.9174
       231.129         180.101
  -3763589.575 9  -2917909.60746  23986076.946    23986079.2514   23986085.8934
      3976.952        3098.924
  -8360317.127 9  -6495247.11246  23567707.041    23567708.2764   23567716.2254
      3713.228        2893.424
  -3439809.325 9  -2664930.24647  22443572.493    22443574.1684   22443580.3544
      -296.751        -231.234
 96 11 19 16 55 59.9990000  0  9 21  3 17 23  9  1 15 25 31         -0.000878305
  -1025420.620 9   -796258.01948  20577760.849    20577762.5844   20577768.0734
      -182.432        -142.155
   4985421.759 9   3884137.17247  22421587.823    22421589.6664   22421596.1914
     -2181.312       -1699.724
  10584697.165 8   8235601.51946  24387954.313    24387957.1624   24387966.0894
     -3195.055       -2489.653
   5201438.345 9   4047901.23047  22760468.777    22760470.4084   22760476.6004
     -1561.200       -1216.519
   2527234.100 9   1971906.31546  24146712.080    24146713.7314   24146719.6834
     -1738.668       -1354.806
  -4990660.270 9  -3877179.62548  19990551.590    19990553.5534   19990559.1624
       215.421         167.861
  -3882861.997 8  -3010849.15446  23963380.416    23963382.4654   23963389.0024
      3975.441        3097.746
  -8471662.860 9  -6582009.91046  23546519.112    23546519.8514   23546527.6774
      3711.006        2891.693
  -3430638.857 9  -2657784.46247  22445317.580    22445319.1624   22445325.3694
      -313.653        -244.405
 96 11 19 16 56 29.9990000  0  9 21  3 17 23  9  1 15 25 31         -0.000886261
  -1019838.487 9   -791908.32148  20578823.112    20578824.8304   20578830.3374
      -189.664        -147.790
   5051030.334 9   3935260.68147  22434072.294    22434074.4564   22434081.1294
     -2192.356       -1708.329
  10680627.856 8   8310352.60546  24406208.897    24406212.1874   24406221.2584
     -3200.131       -2493.609
   5248319.942 9   4084432.31447  22769390.086    22769391.7614   22769397.8814
     -1564.306       -1218.940
   2579627.828 9   2012732.54646  24156682.321    24156684.0944   24156689.9824
     -1754.047       -1366.790
  -4996877.913 9  -3882024.54148  19989368.424    19989370.3814   19989375.9714
       199.210         155.228
  -4002087.000 8  -3103751.69246  23940692.333    23940694.5024   23940701.1444
      3973.022        3095.861
  -8582954.124 9  -6668730.26246  23525339.089    23525341.7204   23525349.5194
      3708.731        2889.920
  -3420962.706 9  -2650244.63547  22447158.430    22447160.2124   22447166.5824
      -331.412        -258.243
 96 11 19 16 56 59.9990000  0  9 21  3 17 23  9  1 15 25 31         -0.000894215
  -1014042.927 9   -787392.31248  20579926.040    20579927.7134   20579933.2104
      -196.957        -153.473
   5116949.988 9   3986626.60447  22446616.233    22446618.5404   22446625.3004
     -2202.579       -1716.295
  10776693.431 9   8385208.79646  24424489.853    24424492.9844   24424501.9754
     -3204.366       -2496.909
   5295296.121 9   4121037.08647  22778328.933    22778331.0294   22778337.1914
     -1567.667       -1221.559
   2632464.863 9   2053904.20446  24166737.086    24166738.7934   24166744.4554
     -1768.572       -1378.108
  -5002622.218 9  -3886500.62148  19988275.491    19988277.3174   19988282.8474
       183.566         143.038
  -4121254.978 8  -3196609.84346  23918015.409    23918017.4954   23918024.2834
      3971.267        3094.494
  -8694200.959 9  -6755415.99246  23504168.474    23504172.0224   23504179.7484
      3707.590        2889.031
  -3410755.833 9  -2642291.24947  22449100.801    22449102.6114   22449108.8404
      -349.203        -272.106
 96 11 19 16 57 29.9990000  0  9 21  3 17 23  9  1 15 25 31         -0.000902167
  -1008029.838 9   -782706.80948  20581070.309    20581071.9784   20581077.4814
      -204.046        -158.997
   5183172.738 9   4038228.72047  22459218.214    22459220.3324   22459227.1644
     -2212.389       -1723.939
  10872881.957 9   8460160.79746  24442794.266    24442797.1674   24442806.0654
     -3208.227       -2499.917
   5342377.062 9   4157723.48747  22787288.175    22787290.2354   22787296.4594
     -1571.367       -1224.442
   2685733.599 9   2095412.27146  24176874.290    24176875.5244   24176881.0804
     -1782.995       -1389.347
  -5007902.101 9  -3890614.81748  19987270.827    19987272.6094   19987278.1434
       168.279         131.126
  -4240374.144 8  -3289429.99546  23895347.645    23895350.0144   23895356.6274
      3969.723        3093.291
  -8805420.775 9  -6842080.67246  23483004.256    23483007.5434   23483015.1794
      3706.935        2888.521
  -3400015.066 9  -2633921.85447  22451144.700    22451146.5734   22451152.4784
      -367.062        -286.022
 96 11 19 16 57 59.9990000  0  9 21  3 17 23  9  1 15 25 31         -0.000910109
  -1001803.587 9   -777855.20048  20582255.096    20582256.8204   20582262.3164
      -210.197        -163.790
   5249694.719 9   4090064.00447  22471876.906    22471879.0984   22471885.8484
     -2221.481       -1731.024
  10969202.617 8   8535215.77746  24461123.293    24461126.4904   24461135.3484
     -3212.098       -2502.934
   5389583.797 9   4194507.92247  22796271.706    22796273.4374   22796279.5854
     -1574.952       -1227.235
   2739453.803 9   2137272.12146  24187096.655    24187098.0974   24187103.7684
     -1797.430       -1400.595
  -5012720.268 9  -3894369.23348  19986354.103    19986355.7674   19986361.3004
       153.751         119.806
  -4359431.933 8  -3382202.25945  23872691.551    23872694.0134   23872700.5294
      3968.250        3092.143
  -8916611.633 9  -6928722.79446  23461845.311    23461848.5934   23461856.2114
      3706.615        2888.271
  -3388735.423 9  -2625132.55347  22453291.256    22453293.0754   22453298.7004
      -384.045        -299.256
 96 11 19 16 58 29.9990000  0  9 21  3 17 23  9  1 15 25 31         -0.000918052
   -995383.216 9   -772852.32848  20583476.895    20583478.6034   20583484.1144
      -217.521        -169.497
   5316486.277 9   4142109.33047  22484587.084    22484589.1454   22484595.9244
     -2230.724       -1738.226
  11065643.996 8   8610364.80546  24479473.712    24479478.6954   24479487.6824
     -3216.856       -2506.641
   5436900.283 9   4231377.86047  22805275.590    22805277.5004   22805283.6654
     -1578.879       -1230.295
   2793601.035 9   2179464.72046  24197401.018    24197401.9184   24197407.8024
     -1811.835       -1411.819
  -5017103.117 9  -3897784.43648  19985520.088    19985521.7614   19985527.2904
       138.879         108.217
  -4478441.404 8  -3474936.84845  23850044.814    23850047.1644   23850053.7674
      3966.137        3090.496
  -9027787.802 9  -7015353.45946  23440688.078    23440692.3414   23440700.0714
      3705.418        2887.339
  -3376943.508 9  -2615944.05847  22455535.193    22455537.0154   22455542.5384
      -401.718        -313.027
 96 11 19 16 58 59.9990000  0  9 21  3 17 23  9  1 15 25 31         -0.000925980
   -988724.140 9   -767663.45148  20584744.044    20584745.8234   20584751.3364
      -225.563        -175.763
   5383560.201 9   4194374.68747  22497350.464    22497352.8704   22497359.7164
     -2240.007       -1745.460
  11162249.715 8   8685641.89546  24497857.784    24497862.3204   24497871.2944
     -3222.629       -2511.139
   5484342.121 9   4268345.48947  22814303.732    22814305.4484   22814311.5914
     -1582.920       -1233.444
   2848189.064 9   2222000.80546  24207788.390    24207789.5954   24207795.6624
     -1826.379       -1423.152
  -5021026.162 9  -3900841.35348  19984773.313    19984775.2324   19984780.7214
       123.674          96.369
  -4597371.153 8  -3567609.38546  23827413.351    23827415.5934   23827422.2464
      3963.432        3088.389
  -9138904.305 9  -7101937.64646  23419543.570    23419547.4684   23419555.2194
      3703.216        2885.623
  -3364614.419 9  -2606337.01047  22457881.331    22457883.1814   22457888.7764
      -419.366        -326.779
 96 11 19 16 59 29.9990000  0  9 21  3 17 23  9  1 15 25 31         -0.000933909
   -981839.740 9   -762299.00048  20586054.061    20586055.9084   20586061.4304
      -232.911        -181.489
   5450888.298 9   4246838.09247  22510162.417    22510164.9044   22510171.8744
     -2248.131       -1751.790
  11259007.125 8   8761037.20046  24516270.689    24516274.5794   24516283.7434
     -3227.597       -2515.011
   5531879.472 9   4305387.53447  22823349.474    22823351.5324   22823357.6574
     -1585.777       -1235.670
   2903191.853 9   2264860.06746  24218254.535    24218256.4084   24218262.4784
     -1840.102       -1433.846
  -5024509.697 9  -3903555.79548  19984110.347    19984112.3994   19984117.8284
       108.904          84.860
  -4716234.911 8  -3660230.44346  23804794.033    23804796.5814   23804803.1624
      3961.140        3086.602
  -9249962.438 9  -7188476.37247  23398410.260    23398413.8184   23398421.4744
      3701.091        2883.967
  -3351771.513 9  -2596329.57247  22460325.058    22460327.0654   22460332.6764
      -436.432        -340.077
 96 11 19 16 59 59.9990000  0  9 21  3 17 23  9  1 15 25 31         -0.000941842
   -974732.281 9   -756760.73348  20587406.655    20587408.4284   20587413.9704
      -240.521        -187.419
   5518465.501 9   4299495.60547  22523021.652    22523024.3944   22523031.3984
     -2256.558       -1758.357
  11355908.066 8   8836544.32646  24534710.475    24534714.0844   24534723.3844
     -3232.166       -2518.571
   5579496.384 9   4342491.57647  22832411.015    22832412.7674   22832418.8824
     -1588.166       -1237.532
   2958608.120 9   2308041.52446  24228799.073    24228801.8034   24228808.1074
     -1853.795       -1444.515
  -5027551.356 9  -3905925.92148  19983531.810    19983533.6424   19983538.9954
        94.439          73.589
  -4835026.622 8  -3752795.39446  23782189.088    23782191.1424   23782197.9024
      3958.771        3084.757
  -9360954.679 9  -7274963.75847  23377288.855    23377292.7034   23377300.2464
      3698.805        2882.186
  -3338421.681 9  -2585927.12947  22462865.562    22462867.4964   22462873.0744
      -453.227        -353.164
 96 11 19 17  0 29.9990000  0  9 21  3 17 23  9  1 15 25 31         -0.000949781
   -967393.691 9   -751042.36048  20588803.197    20588804.9564   20588810.4904
      -248.563        -193.685
   5586283.644 9   4352340.87647  22535926.925    22535929.8234   22535936.7344
     -2264.699       -1764.701
  11452934.218 8   8912149.01846  24553174.002    24553177.6554   24553186.8344
     -3236.418       -2521.884
   5627176.959 9   4379645.23147  22841484.088    22841486.0664   22841492.2694
     -1590.551       -1239.390
   3014422.320 9   2351533.04146  24239420.203    24239422.9384   24239429.2754
     -1867.250       -1455.000
  -5030167.100 9  -3907964.16648  19983033.941    19983035.8814   19983041.1974
        79.914          62.271
  -4953756.060 8  -3845311.85045  23759595.575    23759597.7074   23759604.2554
      3956.506        3082.992
  -9471883.057 9  -7361401.39047  23356180.450    23356183.7854   23356191.2394
      3696.379        2880.295
  -3324570.720 9  -2575134.19747  22465501.241    22465503.1354   22465508.8134
      -470.264        -366.439
 96 11 19 17  0 59.9990000  0  9 21  3 17 23  9  1 15 25 31         -0.000957719
   -959822.546 9   -745142.78048  20590243.896    20590245.7194   20590251.2534
      -255.889        -199.394
   5654353.156 9   4405382.01047  22548880.134    22548883.0324   22548889.9534
     -2273.201       -1771.325
  11550090.964 8   8987855.47446  24571663.879    24571666.2224   24571675.3514
     -3240.550       -2525.104
   5674939.462 9   4416862.72347  22850573.298    22850574.9474   22850581.2634
     -1593.518       -1241.702
   3070653.429 9   2395349.43346  24250121.307    24250123.3534   24250129.7754
     -1881.305       -1465.952
  -5032331.851 9  -3909650.98848  19982621.893    19982623.9314   19982629.2444
        64.486          50.249
  -5072408.872 8  -3937768.60745  23737016.574    23737018.8984   23737025.3294
      3953.794        3080.878
  -9582728.082 9  -7447774.06547  23335088.225    23335090.6014   23335098.1044
      3693.379        2877.958
  -3310196.132 9  -2563933.25947  22468236.650    22468238.5614   22468244.1584
      -488.106        -380.342
 96 11 19 17  1 29.9990000  0  9 21  3 17 23  9  1 15 25 31         -0.000965666
   -952057.449 9   -739092.06748  20591721.621    20591723.3774   20591728.9134
      -261.811        -204.008
   5722664.838 9   4458611.85047  22561879.665    22561882.3324   22561889.3114
     -2280.978       -1777.385
  11647353.554 8   9063644.42046  24590172.603    24590174.6354   24590183.9204
     -3243.571       -2527.458
   5722774.826 9   4454136.99647  22859675.820    22859677.7234   22859684.0364
     -1595.465       -1243.219
   3127288.816 9   2439480.84546  24260898.435    24260900.8514   24260907.2284
     -1894.334       -1476.104
  -5034044.107 9  -3910985.21548  19982295.945    19982298.0724   19982303.4254
        49.634          38.676
  -5190992.637 8  -4030171.51045  23714450.904    23714453.0774   23714459.5454
      3951.825        3079.344
  -9693496.099 9  -7534086.74147  23314010.234    23314012.1024   23314019.5644
      3691.291        2876.331
  -3295298.087 9  -2552324.40547  22471071.711    22471073.5994   22471079.1114
      -505.081        -393.570
 96 11 19 17  1 59.9990000  0  9 21  3 17 23  9  1 15 25 31         -0.000973623
   -944108.552 9   -732898.12848  20593234.280    20593235.9834   20593241.5464
      -268.285        -209.053
   5791232.618 9   4512041.26447  22574927.914    22574930.4414   22574937.2744
     -2290.254       -1784.614
  11744729.447 8   9139521.65545  24608703.378    24608704.7544   24608714.1754
     -3248.324       -2531.162
   5770691.271 9   4491474.43847  22868794.000    22868795.9024   22868802.2684
     -1599.101       -1246.053
   3184331.757 9   2483929.81146  24271753.142    24271755.8934   24271762.2244
     -1908.584       -1487.208
  -5035298.326 9  -3911962.53048  19982057.424    19982059.4164   19982064.7634
        33.820          26.353
  -5309504.359 8  -4122518.29646  23691898.431    23691901.0954   23691907.5484
      3948.926        3077.085
  -9804191.455 9  -7620342.79647  23292945.820    23292947.4264   23292954.8594
      3688.247        2873.959
  -3279888.677 9  -2540317.06447  22474003.916    22474005.9384   22474011.4324
      -522.470        -407.119
 96 11 19 17  2 29.9990000  0  9 21  3 17 23  9  1 15 25 31         -0.000981582
   -935973.676 9   -726559.27748  20594782.240    20594784.0324   20594789.6124
      -274.163        -213.633
   5860065.806 9   4565677.46947  22588026.265    22588028.9794   22588035.8794
     -2298.671       -1791.172
  11842246.955 8   9215509.21945  24627259.232    24627261.7014   24627271.0984
     -3252.791       -2534.642
   5818718.324 9   4528898.07147  22877933.264    22877935.1574   22877941.6234
     -1602.814       -1248.946
   3241789.730 8   2528702.20446  24282686.477    24282689.6784   24282696.3314
     -1921.961       -1497.632
  -5036069.671 9  -3912563.58148  19981910.583    19981912.6434   19981917.9924
        17.561          13.684
  -5427932.457 9  -4214799.91446  23669362.531    23669364.7104   23669371.5714
      3946.244        3074.995
  -9914794.901 9  -7706527.23647  23271897.910    23271900.2734   23271907.6004
      3685.344        2871.697
  -3263962.806 9  -2527907.35147  22477034.957    22477036.7414   22477042.1494
      -539.443        -420.345
 96 11 19 17  2 59.9990000  0  9 21  3 17 23  9  1 15 25 31         -0.000989548
   -927659.950 9   -720081.05948  20596364.257    20596366.0854   20596371.7024
      -280.140        -218.291
   5929152.469 9   4619511.18847  22601173.331    22601175.9024   22601182.7714
     -2306.977       -1797.644
  11939901.837 8   9291603.84345  24645841.550    24645844.9584   24645854.3244
     -3257.136       -2538.028
   5866863.803 9   4566413.98047  22887095.164    22887096.9284   22887103.4294
     -1606.684       -1251.962
   3299650.442 8   2573788.41346  24293697.270    24293700.0664   24293706.9714
     -1935.214       -1507.959
  -5036351.108 9  -3912782.88548  19981856.950    19981859.0864   19981864.4414
         1.595           1.243
  -5546275.031 9  -4307014.89746  23646842.832    23646844.8444   23646851.8954
      3943.432        3072.804
 -10025310.833 9  -7792643.47647  23250867.764    23250869.7004   23250876.9844
      3682.569        2869.534
  -3247524.713 9  -2515098.44847  22480163.094    22480164.9164   22480170.4064
      -556.264        -433.452
 96 11 19 17  3 29.9990000  0  9 21  3 17 23  9  1 15 25 31         -0.000997525
   -919152.417 9   -713451.82448  20597983.214    20597985.0414   20597990.6554
      -287.322        -223.887
   5998481.588 9   4673533.83247  22614366.788    22614368.8574   22614375.7884
     -2314.926       -1803.838
  12037673.034 8   9367789.07545  24664447.067    24664450.2754   24664459.5284
     -3260.799       -2540.882
   5915125.458 9   4604020.41247  22896278.750    22896280.8904   22896287.3704
     -1610.717       -1255.104
   3357904.898 8   2619181.43646  24304783.036    24304785.4944   24304792.5284
     -1948.545       -1518.347
  -5036170.009 9  -3912641.77648  19981891.207    19981893.5394   19981898.9174
       -13.678         -10.658
  -5664538.801 9  -4399168.49746  23624338.210    23624340.1484   23624347.1144
      3940.742        3070.708
 -10135756.663 9  -7878705.08047  23229850.410    23229852.5154   23229859.7374
      3680.451        2867.884
  -3230599.930 9  -2501910.34247  22483383.669    22483385.4204   22483391.1904
      -572.041        -445.746
 96 11 19 17  3 59.9990000  0  9 21  3 17 23  9  1 15 25 31         -0.001005500
   -910404.286 9   -706635.11348  20599647.984    20599649.7764   20599655.3954
      -295.760        -230.462
   6068057.855 9   4727749.04947  22627606.549    22627608.8414   22627615.7354
     -2323.347       -1810.400
  12135565.583 8   9444068.89845  24683075.430    24683078.5144   24683087.9674
     -3265.127       -2544.255
   5963527.980 9   4641736.61147  22905489.380    22905491.6624   22905498.1474
     -1615.936       -1259.171
   3416586.286 8   2664907.13846  24315950.102    24315952.0554   24315959.2234
     -1963.436       -1529.950
  -5035513.679 9  -3912130.35148  19982016.037    19982018.4104   19982023.8134
       -29.894         -23.294
  -5782705.243 9  -4491246.30946  23601852.162    23601853.9194   23601860.7864
      3937.029        3067.815
 -10246118.447 9  -7964701.20347  23208849.404    23208851.3334   23208858.5574
      3677.172        2865.329
  -3213190.340 9  -2488344.45047  22486696.797    22486698.4364   22486704.2564
      -588.676        -458.709
 96 11 19 17  4 29.9980000  0  9 21  3 17 23  9  1 15 25 31         -0.001013476
   -901416.069 9   -699631.31948  20601358.450    20601360.1994   20601365.7784
      -303.286        -236.327
   6137859.085 9   4782139.57447  22640889.169    22640891.6134   22640898.4664
     -2330.031       -1815.609
  12233546.968 8   9520417.91245  24701720.982    24701723.7634   24701733.4594
     -3266.974       -2545.694
   6012056.544 9   4679551.01847  22914724.377    22914726.4284   22914732.9244
     -1619.154       -1261.678
   3475691.041 8   2710962.73146  24327197.189    24327199.2404   24327206.5094
     -1976.780       -1540.348
  -5034395.434 9  -3911258.99348  19982229.144    19982231.2244   19982236.6244
       -44.376         -34.579
  -5900770.724 9  -4583245.35546  23579385.447    23579386.7564   23579393.6984
      3934.459        3065.812
 -10356397.180 9  -8050632.59047  23187863.494    23187865.8534   23187873.0884
      3675.275        2863.851
  -3195292.545 9  -2474398.16947  22490102.550    22490104.3234   22490110.2784
      -604.444        -470.995
 96 11 19 17  4 59.9980000  0  9 21  3 17 23  9  1 15 25 31         -0.001021461
   -892191.615 9   -692443.44948  20603113.743    20603115.5314   20603121.1294
      -311.583        -242.792
   6207867.808 9   4836691.80447  22654211.097    22654213.8734   22654220.6854
     -2337.411       -1821.359
  12331589.740 8   9596814.75645  24720378.426    24720380.6904   24720390.6684
     -3269.261       -2547.476
   6060683.203 9   4717441.87747  22923977.632    22923979.8594   22923986.3424
     -1622.474       -1264.265
   3535213.488 8   2757343.76646  24338522.918    24338525.9434   24338533.2384
     -1991.303       -1551.665
  -5032848.645 9  -3910053.70148  19982523.564    19982525.5744   19982530.9804
       -58.725         -45.760
  -6018756.008 9  -4675181.94446  23556933.118    23556934.7304   23556941.9824
      3931.193        3063.267
 -10466621.042 9  -8136521.22147  23166889.075    23166890.8994   23166898.0924
      3673.049        2862.116
  -3176917.220 9  -2460079.75247  22493599.414    22493601.1494   22493607.1614
      -620.497        -483.504
 96 11 19 17  5 29.9980000  0  9 21  3 17 23  9  1 15 25 31         -0.001029436
   -882709.262 9   -685054.61848  20604918.187    20604919.9694   20604925.5754
      -320.093        -249.423
   6278116.788 9   4891431.21347  22667579.054    22667581.8334   22667588.7324
     -2345.530       -1827.686
  12429714.860 8   9673275.78145  24739052.268    24739053.3654   24739063.1614
     -3272.282       -2549.830
   6109414.748 9   4755414.46447  22933251.541    22933253.1754   22933259.6754
     -1625.885       -1266.923
   3595190.228 8   2804078.80346  24349935.344    24349939.1154   24349946.5174
     -2006.612       -1563.594
  -5030858.800 9  -3908503.17248  19982902.181    19982904.2464   19982909.6204
       -73.696         -57.425
  -6136634.440 9  -4767035.22646  23534501.407    23534503.1564   23534510.5634
      3927.604        3060.471
 -10576763.346 9  -8222346.30947  23145929.856    23145931.5144   23145938.5514
      3670.066        2859.792
  -3158061.228 9  -2445386.78647  22497187.559    22497189.3254   22497195.4684
      -636.501        -495.975
 96 11 19 17  5 59.9980000  0  9 21  3 17 23  9  1 15 25 31         -0.001037354
   -873004.147 9   -677492.21148  20606765.157    20606766.7954   20606772.3934
      -326.760        -254.618
   6348596.232 9   4946350.21347  22680991.023    22680993.6154   22681000.5614
     -2353.310       -1833.748
  12527925.817 8   9749803.68345  24757741.933    24757742.5744   24757752.1134
     -3275.035       -2551.975
   6158226.084 9   4793449.22047  22942539.696    22942541.6784   22942548.1644
     -1628.191       -1268.720
   3655593.923 8   2851146.52346  24361431.235    24361433.7344   24361441.0304
     -2020.230       -1574.205
  -5028434.338 9  -3906613.97748  19983363.484    19983365.6164   19983370.9974
       -87.983         -68.558
  -6254420.760 9  -4858816.82046  23512087.747    23512089.4264   23512096.6404
      3924.760        3058.255
 -10686831.706 9  -8308113.77147  23124984.615    23124986.1984   23124993.0674
      3667.850        2858.065
  -3138727.895 9  -2430321.87447  22500866.394    22500868.1674   22500874.4934
      -652.565        -508.492
 96 11 19 17  6 29.9980000  0  9 21  3 17 23  9  1 15 25 31         -0.001045349
   -863100.614 9   -669775.18948  20608649.552    20608651.3504   20608656.9864
      -333.308        -259.721
   6419314.889 9   5001455.62147  22694448.624    22694451.0004   22694457.9094
     -2360.901       -1839.663
  12626221.996 8   9826397.95745  24776445.337    24776447.6324   24776457.3914
     -3277.902       -2554.209
   6207098.308 9   4831531.42147  22951839.661    22951841.7244   22951848.2504
     -1629.797       -1269.972
   3716395.501 8   2898524.29646  24373000.237    24373003.8274   24373011.2874
     -2032.985       -1584.144
  -5025581.363 9  -3904390.88348  19983906.463    19983908.5194   19983913.8824
      -102.035         -79.508
  -6372122.168 9  -4950532.19746  23489689.577    23489691.6114   23489698.8594
      3922.181        3056.245
 -10796827.998 9  -8393825.07847  23104053.172    23104054.5484   23104061.3414
      3665.457        2856.200
  -3118908.451 9  -2414878.16447  22504637.853    22504639.6834   22504645.9374
      -668.462        -520.879
 96 11 19 17  6 59.9980000  0  9 21  3 17 23  9  1 15 25 31         -0.001053356
   -852984.040 9   -661892.16148  20610574.719    20610576.4524   20610582.1384
      -341.122        -265.809
   6490273.134 9   5056747.69947  22707951.722    22707953.9464   22707960.9204
     -2369.681       -1846.505
  12724633.806 8   9903082.37245  24795171.000    24795174.7204   24795184.7054
     -3282.653       -2557.911
   6256038.632 9   4869666.68847  22961152.580    22961154.7244   22961161.3084
     -1632.765       -1272.284
   3777594.513 8   2946211.76646  24384646.337    24384649.7484   24384657.2564
     -2046.868       -1594.962
  -5022290.465 9  -3901826.54648  19984532.700    19984534.7364   19984540.1374
      -117.418         -91.495
  -6489731.238 9  -5042175.62246  23467309.702    23467311.2164   23467318.5344
      3918.324        3053.239
 -10906731.132 9  -8479463.78547  23083139.053    23083140.5664   23083147.4224
      3661.377        2853.021
  -3098600.701 9  -2399053.96147  22508502.206    22508504.0854   22508510.4104
      -685.425        -534.097
 96 11 19 17  7 29.9980000  0  9 21  3 17 23  9  1 15 25 31         -0.001061369
   -842647.105 9   -653837.43248  20612541.761    20612543.5114   20612549.1914
      -348.080        -271.231
   6561484.673 9   5112237.16747  22721502.912    22721505.1454   22721512.1094
     -2377.652       -1852.716
  12823172.434 8   9979865.59645  24813922.891    24813926.1534   24813935.9804
     -3286.681       -2561.050
   6305058.817 9   4907864.19347  22970481.023    22970483.0114   22970489.4864
     -1635.441       -1274.370
   3839191.345 8   2994209.20046  24396368.864    24396371.4354   24396378.7914
     -2059.533       -1604.831
  -5018541.467 9  -3898905.24948  19985245.931    19985248.1634   19985253.5874
      -132.718        -103.417
  -6607234.194 9  -5133736.36446  23444949.917    23444951.0984   23444958.3514
      3915.066        3050.701
 -11016516.421 9  -8565010.67847  23062247.690    23062248.9704   23062255.8724
      3657.446        2849.958
  -3077791.419 9  -2382838.95447  22512462.042    22512464.0454   22512470.3704
      -702.222        -547.186
 96 11 19 17  7 59.9980000  0  9 21  3 17 23  9  1 15 25 31         -0.001069391
   -832091.604 9   -645612.38948  20614550.454    20614552.1554   20614557.8714
      -355.205        -276.783
   6632931.555 9   5167910.00147  22735098.934    22735101.1714   22735108.0794
     -2384.990       -1858.434
  12921834.489 8  10056745.02245  24832698.029    24832701.1614   24832710.7074
     -3290.317       -2563.883
   6354169.626 9   4946132.30847  22979826.528    22979828.6344   22979835.0174
     -1638.284       -1276.585
   3901168.304 8   3042502.82246  24408162.041    24408165.3634   24408172.7714
     -2072.001       -1614.546
  -5014321.196 9  -3895616.73448  19986049.113    19986051.2694   19986056.6924
      -148.200        -115.481
  -6724626.495 9  -5225210.93946  23422610.859    23422612.2724   23422619.1834
      3911.476        3047.903
 -11126166.086 9  -8650451.89547  23041381.554    23041383.3174   23041390.1074
      3652.981        2846.479
  -3056456.746 9  -2366214.56947  22516522.133    22516524.0234   22516530.2184
      -719.611        -560.736
 96 11 19 17  8 29.9980000  0  9 21  3 17 23  9  1 15 25 31         -0.001077424
   -821317.020 9   -637216.63348  20616600.768    20616602.4954   20616608.2424
      -362.816        -282.714
   6704579.594 9   5223739.58247  22748733.009    22748735.3574   22748742.2874
     -2391.174       -1863.252
  13020606.557 8  10133710.11845  24851493.977    24851496.8694   24851506.8734
     -3294.220       -2566.925
   6403366.340 9   4984467.36647  22989188.583    22989190.5514   22989196.8454
     -1641.418       -1279.027
   3963527.435 8   3091094.23746  24420028.303    24420032.0644   24420039.3414
     -2084.870       -1624.574
  -5009647.215 9  -3891974.67948  19986938.694    19986940.7234   19986946.1374
      -162.934        -126.962
  -6841913.798 9  -5316603.61646  23400291.765    23400293.3464   23400300.2484
      3907.930        3045.140
 -11235685.205 9  -8735791.39447  23020540.379    23020542.5704   23020549.2054
      3648.678        2843.126
  -3034615.987 9  -2349195.81047  22520678.533    22520680.3124   22520686.3794
      -736.073        -573.563
 96 11 19 17  8 59.9980000  0  8 21  3 23  9  1 15 25 31            -0.001085454
   -810319.922 9   -628647.48148  20618693.378    20618695.1794   20618700.9554
      -370.024        -288.330
   6776414.189 9   5279714.57047  22762402.676    22762404.9974   22762412.0964
     -2397.760       -1868.384
   6452671.306 9   5022886.78147  22998571.297    22998573.0544   22998579.3414
     -1645.357       -1282.096
   4026270.197 8   3139984.62246  24431968.676    24431971.8304   24431979.0704
     -2097.643       -1634.527
  -5004534.432 9  -3887990.69348  19987911.544    19987913.6644   19987919.0854
      -177.704        -138.471
  -6959090.895 9  -5407910.43446  23377993.762    23377995.3214   23378002.2974
      3904.046        3042.114
 -11345075.460 9  -8821030.46347  22999723.609    22999726.1664   22999732.7864
      3644.271        2839.692
  -3012287.433 9  -2331796.94747  22524927.450    22524929.2874   22524935.3684
      -752.323        -586.226
 96 11 19 17  9 29.9980000  0  8 21  3 23  9  1 15 25 31            -0.001093477
   -799105.103 9   -619908.67948  20620827.518    20620829.3104   20620835.0974
      -377.695        -294.308
   6848453.868 9   5335849.32747  22776111.221    22776113.6044   22776120.8944
     -2404.864       -1873.920
   6502105.234 9   5061406.66747  23007978.247    23007980.0604   23007986.4844
     -1650.413       -1286.036
   4089396.576 8   3189173.92746  24443981.265    24443984.4944   24443991.7474
     -2110.811       -1644.788
  -4998973.444 9  -3883657.46448  19988969.719    19988971.8964   19988977.2994
      -192.937        -150.341
  -7076145.933 9  -5499122.10646  23355718.695    23355720.2674   23355727.5174
      3899.523        3038.589
 -11454339.208 9  -8906170.97147  22978931.828    22978933.8694   22978940.4644
      3639.883        2836.272
  -2989462.704 9  -2314011.45347  22529271.091    22529272.7724   22529278.7284
      -769.314        -599.465
 96 11 19 17  9 59.9980000  0  8 21  3 23  9  1 15 25 31            -0.001101493
   -787690.678 9   -611014.33848  20622999.675    20623001.4104   20623007.2284
      -383.466        -298.805
   6920668.577 9   5392120.45847  22789853.060    22789855.5784   22789862.9194
     -2409.806       -1877.771
   6551666.001 9   5100025.37847  23017409.425    23017411.2044   23017417.6824
     -1653.798       -1288.674
   4152894.732 9   3238652.93046  24456065.187    24456067.8464   24456075.1874
     -2122.707       -1654.057
  -4992995.779 9  -3878999.55348  19990107.279    19990109.3974   19990114.8254
      -205.694        -160.281
  -7193091.149 9  -5590248.29346  23333464.712    23333466.4384   23333473.3984
      3896.556        3036.277
 -11563504.404 9  -8991234.69847  22958159.104    22958160.3774   22958166.9204
      3637.525        2834.435
  -2966163.701 9  -2295856.42347  22533704.770    22533706.4854   22533712.4624
      -784.163        -611.036
 96 11 19 17 10 29.9980000  0  8 21  3 23  9  1 15 25 31            -0.001109496
   -776072.674 9   -601961.36448  20625210.588    20625212.2644   20625218.0804
      -390.662        -304.412
   6993070.090 9   5448537.17347  22803631.094    22803633.1824   22803640.4634
     -2416.530       -1883.010
   6601360.969 9   5138748.69047  23026865.606    23026867.8974   23026874.3524
     -1658.663       -1292.465
   4216774.338 8   3288429.17946  24468221.938    24468223.6764   24468231.0594
     -2135.394       -1663.943
  -4986612.254 9  -3874025.38548  19991322.246    19991324.1094   19991329.5774
      -219.458        -171.006
  -7309917.106 9  -5681281.50146  23311233.443    23311235.2684   23311242.1864
      3892.234        3032.910
 -11672570.913 9  -9076221.51147  22937404.172    22937405.6014   22937412.1904
      3633.970        2831.665
  -2942399.391 9  -2277338.77447  22538226.707    22538228.5784   22538234.7204
      -799.821        -623.237
 96 11 19 17 10 59.9980000  0  8 21  3 23  9  1 15 25 31            -0.001117482
   -764247.859 9   -592747.24148  20627460.723    20627462.4324   20627468.2834
      -397.821        -309.990
   7065672.050 9   5505110.06647  22817447.126    22817448.9464   22817456.2814
     -2423.652       -1888.560
   6651187.840 9   5177574.76947  23036347.846    23036349.5994   23036356.1084
     -1663.043       -1295.878
   4281021.230 9   3338491.62246  24480447.682    24480449.4584   24480456.8634
     -2147.919       -1673.703
  -4979815.690 9  -3868729.37148  19992615.579    19992617.4504   19992622.9274
      -233.807        -182.187
  -7426621.115 9  -5772219.68946  23289025.488    23289027.2784   23289034.1664
      3887.898        3029.531
 -11781535.354 9  -9161128.81447  22916669.529    22916670.3674   22916676.8774
      3630.078        2828.632
  -2918164.394 9  -2258454.39147  22542838.267    22542840.3264   22542846.4154
      -816.028        -635.866
 96 11 19 17 11 29.9980000  0  8 21  3 23  9  1 15 25 31            -0.001125458
   -752201.486 9   -583360.46848  20629752.981    20629754.7974   20629760.6694
      -405.177        -315.722
   7138476.458 9   5561840.71247  22831301.022    22831303.0994   22831310.5584
     -2429.901       -1893.429
   6701139.554 9   5216498.11347  23045853.265    23045855.1894   23045861.6874
     -1666.807       -1298.811
   4345651.804 9   3388853.04446  24492747.043    24492748.3904   24492755.6154
     -2160.701       -1683.663
  -4972589.242 9  -3863098.38248  19993990.946    19993992.6274   19993998.0884
      -247.717        -193.026
  -7543195.580 9  -5863056.92546  23266842.400    23266843.7654   23266850.7144
      3883.826        3026.358
 -11890377.832 9  -9245941.07447  22895957.170    22895958.2894   22895964.7484
      3626.154        2825.575
  -2893441.845 9  -2239190.09447  22547543.198    22547544.9324   22547550.9934
      -831.905        -648.238
 96 11 19 17 11 59.9980000  0  8 21  3 23  9  1 15 25 31            -0.001133432
   -739934.231 9   -573801.58448  20632087.370    20632089.1994   20632095.1104
      -412.484        -321.416
   7211467.460 9   5618716.74747  22845190.878    22845192.8864   22845200.2964
     -2436.074       -1898.239
   6751194.516 9   5255501.92447  23055378.000    23055380.2974   23055386.8124
     -1669.815       -1301.155
   4410662.513 8   3439510.67846  24505117.860    24505119.5164   24505126.6794
     -2173.021       -1693.263
  -4964949.134 9  -3857145.06748  19995444.914    19995446.5534   19995451.9534
      -261.485        -203.755
  -7659647.393 9  -5953798.60946  23244682.458    23244683.7224   23244690.7294
      3879.795        3023.217
 -11999093.757 9  -9330654.72147  22875268.392    22875270.1974   22875276.6634
      3621.710        2822.112
  -2868251.519 9  -2219561.28047  22552336.629    22552338.4454   22552344.5874
      -847.379        -660.295
 96 11 19 17 12 29.9980000  0  8 21  3 23  9  1 15 25 31            -0.001141410
   -727435.316 9   -564062.18448  20634465.932    20634467.7064   20634473.6244
      -420.329        -327.529
   7284651.473 9   5675743.18547  22859117.352    22859119.4424   22859126.7434
     -2442.342       -1903.124
   6801336.015 9   5294573.16447  23064919.492    23064921.9274   23064928.5384
     -1672.411       -1303.177
   4476038.146 9   3490452.65446  24517557.847    24517560.2134   24517567.1994
     -2184.844       -1702.476
  -4956886.802 9  -3850862.73948  19996978.989    19996980.8034   19996986.1794
      -275.527        -214.696
  -7775976.675 9  -6044444.77447  23222545.356    23222546.9544   23222554.1244
      3875.861        3020.151
 -12107672.806 9  -9415261.70447  22854605.580    22854608.1954   22854614.7434
      3617.374        2818.733
  -2842593.121 9  -2199567.74547  22557219.200    22557221.1604   22557227.0384
      -862.755        -672.277
 96 11 19 17 12 59.9980000  0  8 21  3 23  9  1 15 25 31            -0.001149391
   -714689.732 9   -554130.57648  20636891.437    20636893.1404   20636899.0614
      -428.389        -333.810
   7358034.791 9   5732924.94747  22873081.969    22873083.9534   22873091.1224
     -2448.911       -1908.242
   6851563.566 9   5333711.45747  23074477.911    23074479.9854   23074486.5574
     -1675.218       -1305.365
   4541786.808 9   3541685.31146  24530068.804    24530071.7574   24530078.7904
     -2197.456       -1712.303
  -4948389.177 9  -3844241.22648  19998596.134    19998597.8944   19998603.2124
      -289.932        -225.921
  -7892173.020 9  -6134987.35746  23200433.889    23200435.4574   23200442.6994
      3871.462        3016.724
 -12216106.116 9  -9499755.13147  22833971.742    22833974.0224   22833980.5614
      3612.505        2814.939
  -2816467.195 9  -2179209.89547  22562190.927    22562192.7754   22562198.6514
      -878.016        -684.168
 96 11 19 17 13 29.9980000  0  8 21  3 23  9  1 15 25 31            -0.001157382
   -701714.576 9   -544020.08148  20639360.471    20639362.2414   20639368.1654
      -436.323        -339.992
   7431603.878 9   5790251.46347  22887081.546    22887083.7424   22887090.8804
     -2455.501       -1913.377
   6901865.747 9   5372907.88747  23084050.561    23084052.2164   23084058.8584
     -1678.000       -1307.532
   4607898.699 9   3593201.02846  24542649.713    24542652.4304   24542659.5834
     -2209.719       -1721.859
  -4939481.107 9  -3837299.88548  20000291.025    20000293.0294   20000298.3394
      -303.701        -236.650
  -8008244.848 9  -6225432.94346  23178346.098    23178347.7204   23178354.9364
      3866.888        3013.159
 -12324404.436 9  -9584143.37547  22813363.624    22813365.5504   22813372.0184
      3607.778        2811.256
  -2789900.423 9  -2158508.52447  22567246.144    22567248.0764   22567253.9514
      -892.835        -695.716
 96 11 19 17 13 59.9980000  0  8 21  3 23  9  1 15 25 31            -0.001165386
   -688515.524 9   -533735.12348  20641872.229    20641873.9464   20641879.8294
      -443.669        -345.716
   7505360.314 9   5847723.92347  22901117.176    22901119.0694   22901126.3404
     -2461.556       -1918.096
   6952239.717 9   5412160.27147  23093636.330    23093638.1224   23093644.6874
     -1680.366       -1309.376
   4674363.533 9   3644991.75746  24555297.496    24555300.2994   24555307.5254
     -2221.292       -1730.877
  -4930168.586 9  -3830043.38848  20002063.180    20002065.1214   20002070.4584
      -317.357        -247.291
  -8124189.310 9  -6315779.24746  23156282.594    23156284.0584   23156291.3514
      3862.661        3009.866
 -12432574.168 9  -9668431.42147  22792778.959    22792781.4774   22792787.9404
      3603.493        2807.917
  -2762899.600 9  -2137468.95347  22572384.354    22572386.2364   22572392.0474
      -907.440        -707.096
 96 11 19 17 14 29.9980000  0  8 21  3 23  9  1 15 25 31            -0.001173396
   -675084.488 9   -523269.39448  20644427.955    20644429.8094   20644435.6824
      -451.478        -351.801
   7579306.625 9   5905344.36747  22915188.888    22915190.5864   22915197.9184
     -2467.961       -1923.086
   7002704.039 9   5451483.04647  23103239.894    23103241.1744   23103247.8144
     -1683.760       -1312.021
   4741192.346 9   3697066.10046  24568015.371    24568017.4814   24568024.8054
     -2233.839       -1740.654
  -4920427.444 9  -3822452.89948  20003916.886    20003918.8174   20003924.1274
      -331.909        -258.630
  -8239992.226 9  -6406015.26247  23134246.258    23134247.5604   23134254.8744
      3857.670        3005.977
 -12540605.159 9  -9752611.35247  22772221.897    22772223.7544   22772230.2654
      3598.646        2804.140
  -2735449.217 9  -2116079.06147  22577607.970    22577609.8874   22577615.8914
      -922.489        -718.822
 96 11 19 17 14 59.9980000  0  8 21  3 23  9  1 15 25 31            -0.001181420
   -661437.049 9   -512635.04648  20647025.082    20647026.8894   20647032.7134
      -458.127        -356.982
   7653428.542 9   5963101.64547  22929293.889    22929295.5144   22929302.9654
     -2473.169       -1927.145
   7053259.463 9   5490876.82147  23112860.447    23112861.6134   23112868.2734
     -1686.498       -1314.154
   4808386.944 9   3749425.49046  24580802.255    24580804.2474   24580811.5594
     -2245.571       -1749.796
  -4910260.015 9  -3814530.24048  20005851.485    20005853.5844   20005858.9414
      -345.685        -269.365
  -8355655.701 9  -6496142.63246  23112235.964    23112237.5874   23112244.8324
      3853.395        3002.645
 -12648493.341 9  -9836680.00047  22751691.737    22751693.2124   22751699.7544
      3594.125        2800.617
  -2707561.961 9  -2094348.74947  22582914.845    22582916.6704   22582922.8114
      -936.658        -729.863
 96 11 19 17 15 29.9980000  0  8 21  3 23  9  1 15 25 31            -0.001189461
   -647587.940 9   -501843.54548  20649660.467    20649662.3164   20649668.1634
      -465.125        -362.435
   7727703.766 9   6020978.38247  22943427.930    22943429.6114   22943437.1024
     -2478.333       -1931.168
   7103903.661 9   5530339.76747  23122497.889    23122498.8984   23122505.6704
     -1689.693       -1316.644
   4875937.588 9   3802062.30946  24593656.513    24593658.9054   24593666.1054
     -2257.705       -1759.251
  -4899676.324 9  -3806283.22048  20007865.380    20007867.5934   20007872.9274
      -359.885        -280.430
  -8471185.007 9  -6586165.42447  23090251.479    23090253.0694   23090260.2564
      3848.654        2998.951
 -12756238.495 9  -9920637.19147  22731187.458    22731189.9314   22731196.4924
      3589.010        2796.631
  -2679236.370 9  -2072276.90447  22588305.074    22588306.7964   22588313.1084
      -951.685        -741.573
 96 11 19 17 15 59.9980000  0  8 21  3 23  9  1 15 25 31            -0.001197512
   -633511.949 9   -490875.26048  20652339.134    20652340.9224   20652346.7964
      -473.014        -368.582
   7802138.980 9   6078979.79347  22957592.553    22957594.2794   22957601.6414
     -2483.627       -1935.294
   7154652.651 9   5569884.39047  23132154.745    23132156.1134   23132162.9604
     -1693.368       -1319.508
   4943864.030 9   3854991.98446  24606582.319    24606584.9534   24606592.1304
     -2270.377       -1769.125
  -4888648.268 9  -3797689.94348  20009964.032    20009966.1804   20009971.4984
      -374.926        -292.150
  -8586561.355 9  -6676069.07047  23068296.240    23068297.9314   23068304.7434
      3843.385        2994.845
 -12863816.934 9 -10004464.47647  22710715.837    22710718.3614   22710724.8964
      3583.223        2792.122
  -2650446.643 9  -2049843.38347  22593783.229    22593785.1094   22593791.5944
      -967.476        -753.877
 96 11 19 17 16 29.9980000  0  8 21  3 23  9  1 15 25 31            -0.001205572
   -619209.853 9   -479730.78848  20655060.808    20655062.5614   20655068.4384
      -480.645        -374.529
   7876725.863 9   6137099.36347  22971785.559    22971787.7024   22971795.0474
     -2488.866       -1939.376
   7205501.133 9   5609506.52347  23141831.271    23141832.2934   23141839.1384
     -1696.723       -1322.122
   5012161.080 8   3908210.47646  24619579.346    24619581.4354   24619588.6404
     -2282.784       -1778.793
  -4877189.278 9  -3788760.87148  20012144.548    20012146.7454   20012152.0974
      -388.989        -303.108
  -8701788.298 9  -6765856.26646  23046369.152    23046370.9324   23046377.7694
      3838.284        2990.871
 -12971226.238 9 -10088159.97547  22690276.354    22690278.9894   22690285.5174
      3577.245        2787.464
  -2621202.141 9  -2027055.48247  22599348.483    22599350.2804   22599357.0374
      -982.332        -765.454
 96 11 19 17 16 59.9980000  0  8 21  3 23  9  1 15 25 31            -0.001213636
   -604679.556 9   -468408.49948  20657826.009    20657827.6144   20657833.4754
      -487.697        -380.024
   7951462.960 9   6195335.98647  22986007.042    22986009.6374   22986016.9584
     -2493.422       -1942.926
   7256446.306 9   5649204.00347  23151525.761    23151526.8764   23151533.7114
     -1699.367       -1324.182
   5080816.161 9   3961707.96746  24632644.044    24632645.8894   24632653.3114
     -2293.847       -1787.413
  -4865321.772 9  -3779513.47648  20014403.078    20014405.0574   20014410.4614
      -401.807        -313.096
  -8816865.331 9  -6855526.63146  23024471.012    23024472.3264   23024479.3074
      3833.834        2987.403
 -13078467.344 9 -10171724.39347  22669869.017    22669871.6434   22669878.1864
      3572.476        2783.747
  -2591513.217 9  -2003921.26347  22604997.981    22604999.8834   22605006.7214
      -996.738        -776.679
 96 11 19 17 17 29.9980000  0  8 21  3 23  9  1 15 25 31            -0.001221696
   -589919.211 9   -456906.95448  20660634.712    20660636.4324   20660642.3044
      -496.254        -386.691
   8026359.920 9   6253697.20647  23000259.185    23000262.0784   23000269.3704
     -2499.634       -1947.767
   7307488.769 9   5688977.27947  23161238.753    23161239.9294   23161246.8444
     -1703.309       -1327.254
   5149815.644 8   4015473.83146  24645774.423    24645776.0714   24645783.5664
     -2305.894       -1796.801
  -4853055.872 9  -3769955.64148  20016737.228    20016739.1794   20016744.5924
      -415.891        -324.071
  -8931790.811 9  -6945078.97047  23002601.755    23002602.9494   23002609.6344
      3827.968        2982.832
 -13185551.051 9 -10255166.17047  22649492.281    22649494.2054   22649500.7914
      3566.504        2779.094
  -2561377.047 9  -1980438.57347  22610732.569    22610734.5124   22610741.4274
     -1012.268        -788.780
 96 11 19 17 17 59.9980000  0  8 21  3 23  9  1 15 25 31            -0.001229749
   -574911.341 9   -445212.53048  20663490.612    20663492.3534   20663498.2224
      -504.164        -392.855
   8101434.092 9   6312196.50147  23014545.605    23014548.2734   23014555.6304
     -2505.330       -1952.205
   7358636.984 9   5728832.97447  23170972.150    23170973.2464   23170980.0594
     -1706.644       -1329.852
   5219157.543 8   4069506.48946  24658969.009    24658971.4504   24658979.0054
     -2316.961       -1805.424
  -4840381.338 9  -3760079.38848  20019149.177    20019151.0524   20019156.4554
      -429.115        -334.375
  -9046552.832 9  -7034503.86646  22980763.424    22980764.4764   22980771.1494
      3822.676        2978.709
 -13292470.321 9 -10338479.80947  22629145.817    22629148.0194   22629154.6784
      3561.271        2775.016
  -2530790.618 9  -1956605.03547  22616553.194    22616555.0914   22616561.9084
     -1026.957        -800.226
 96 11 19 17 18 29.9980000  0  8 21  3 23  9  1 15 25 31            -0.001237801
   -559686.485 9   -433349.02548  20666387.807    20666389.5784   20666395.4294
      -511.492        -398.565
   8176669.452 9   6370821.40547  23028862.858    23028865.1644   23028872.5134
     -2510.752       -1956.430
   7409878.991 9   5768761.75447  23180723.119    23180724.4534   23180731.1854
     -1710.295       -1332.697
   5288816.332 8   4123786.05346  24672224.816    24672227.1484   24672234.6924
     -2327.573       -1813.693
  -4827322.514 9  -3749903.68948  20021634.012    20021636.0444   20021641.4504
      -442.214        -344.582
  -9161163.169 9  -7123810.63546  22958953.578    22958954.8354   22958961.3024
      3817.339        2974.550
 -13399233.329 9 -10421671.69547  22608829.096    22608831.6484   22608838.3314
      3555.737        2770.704
  -2499774.795 9  -1932436.88747  22622455.619    22622457.4524   22622463.7794
     -1041.536        -811.586
 96 11 19 17 18 59.9980000  0  8 21  3 23  9  1 15 25 31            -0.001245838
   -544227.289 9   -421302.92148  20669329.640    20669331.4024   20669337.2554
      -518.959        -404.384
   8252073.956 9   6429578.11047  23043212.158    23043214.1594   23043221.6844
     -2515.976       -1960.501
   7461250.065 9   5808791.10147  23190499.178    23190500.1294   23190506.8254
     -1714.438       -1335.926
   5358805.273 8   4178322.88745  24685544.078    24685545.7004   24685553.1334
     -2338.359       -1822.098
  -4813845.531 9  -3739402.15248  20024198.562    20024200.6144   20024206.0464
      -456.220        -355.496
  -9275596.311 9  -7212979.27647  22937177.643    22937178.8514   22937185.3794
      3811.582        2970.064
 -13505823.453 9 -10504728.85947  22588546.529    22588548.1994   22588554.8444
      3550.203        2766.392
  -2468293.712 9  -1907906.20547  22628446.485    22628448.2384   22628454.3374
     -1057.145        -823.749
 96 11 19 17 19 29.9980000  0  8 21  3 23  9  1 15 25 31            -0.001253870
   -528552.220 9   -409088.59848  20672312.453    20672314.2974   20672320.1604
      -526.157        -409.992
   8327613.445 9   6488439.95147  23057587.256    23057588.9644   23057596.4674
     -2519.899       -1963.558
   7512747.927 9   5848919.24547  23200298.867    23200299.9244   23200306.5984
     -1718.815       -1339.336
   5429119.347 8   4233113.06845  24698924.249    24698926.2614   24698933.5714
     -2349.385       -1830.690
  -4799958.012 9  -3728580.71348  20026841.224    20026843.3434   20026848.7574
      -469.739        -366.030
  -9389861.707 9  -7302017.26447  22915433.734    22915434.9974   22915441.4254
      3806.000        2965.714
 -13612245.436 9 -10587655.00047  22568295.081    22568296.7794   22568303.3144
      3544.496        2761.945
  -2436348.171 9  -1883013.60047  22634525.314    22634527.1464   22634533.2954
     -1072.560        -835.761
 96 11 19 17 19 59.9980000  0  8 21  3 23  9  1 15 25 31            -0.001261902
   -512673.468 9   -396715.56148  20675334.161    20675335.9444   20675341.8354
      -532.599        -415.012
   8403252.248 9   6547379.21847  23071980.784    23071982.6384   23071990.1404
     -2522.798       -1965.817
   7564366.349 9   5889141.32647  23210122.175    23210122.5484   23210129.2644
     -1722.572       -1342.264
   5499762.110 8   4288159.35145  24712368.169    24712368.9844   24712376.4414
     -2360.254       -1839.159
  -4785676.787 9  -3717452.49348  20029558.865    20029560.9724   20029566.3964
      -482.516        -375.986
  -9503967.909 9  -7390931.14747  22893719.490    22893721.1394   22893727.7644
      3800.881        2961.725
 -13718508.238 9 -10670457.10247  22548073.889    22548075.6654   22548082.0464
      3539.503        2758.054
  -2403948.342 9  -1857767.02947  22640690.866    22640692.5574   22640698.8704
     -1087.650        -847.519
 96 11 19 17 20 29.9980000  0  8 21  3 23  9  1 15 25 31            -0.001269932
   -496585.995 9   -384179.88348  20678395.480    20678397.2804   20678403.2164
      -539.867        -420.675
   8478983.474 9   6606390.52447  23086391.425    23086393.8894   23086401.3014
     -2525.705       -1968.082
   7616117.352 9   5929466.72047  23219969.318    23219970.4094   23219977.2034
     -1727.314       -1345.959
   5570741.452 8   4343467.90945  24725875.285    24725876.0654   24725883.1364
     -2371.426       -1847.864
  -4770997.066 9  -3706013.75848  20032352.141    20032354.4604   20032359.9004
      -495.936        -386.444
  -9617906.170 9  -7479714.22546  22872037.190    22872039.3394   22872045.9814
      3795.173        2957.278
 -13824611.044 9 -10753134.54147  22527883.014    22527884.9244   22527891.2364
      3534.208        2753.928
  -2371080.749 9  -1832155.96047  22646945.143    22646947.0224   22646953.5674
     -1103.296        -859.711
 96 11 19 17 20 59.9980000  0  8 21  3 23  9  1 15 25 31            -0.001277953
   -480274.558 9   -371469.69148  20681499.503    20681501.2644   20681507.1894
      -547.383        -426.532
   8554805.224 9   6665472.33747  23100819.920    23100822.3394   23100829.7794
     -2529.195       -1970.801
   7668005.505 9   5969898.97347  23229843.062    23229844.4804   23229851.3854
     -1731.682       -1349.362
   5642058.772 8   4399039.81545  24739445.157    24739447.2384   24739454.2834
     -2382.876       -1856.786
  -4755917.649 9  -3694263.56748  20035221.743    20035223.9824   20035229.4274
      -509.228        -396.801
  -9731671.622 9  -7568362.64347  22850388.351    22850390.5304   22850397.0984
      3789.301        2952.702
 -13930556.313 9 -10835689.22547  22507722.331    22507724.1754   22507730.4714
      3528.766        2749.688
  -2337746.620 9  -1806181.34847  22653288.453    22653290.3774   22653296.8924
     -1118.581        -871.622
 96 11 19 17 21 29.9980000  0  8 21  3 23  9  1 15 25 31            -0.001285972
   -463746.718 9   -358590.87248  20684644.666    20684646.4654   20684652.3254
      -554.871        -432.367
   8630734.473 9   6724637.92547  23115268.968    23115271.2234   23115278.7234
     -2533.168       -1973.897
   7720008.334 9   6010420.59447  23239738.978    23239740.4024   23239747.2734
     -1735.268       -1352.157
   5713707.968 8   4454870.30845  24753079.284    24753081.5584   24753088.8114
     -2393.970       -1865.431
  -4740454.950 9  -3682214.71848  20038164.371    20038166.4764   20038171.8874
      -521.908        -406.682
  -9845270.952 9  -7656881.60446  22828771.374    22828773.3364   22828779.8204
      3783.704        2948.341
 -14036342.301 9 -10918119.79447  22487591.739    22487593.7094   22487600.0034
      3523.378        2745.489
  -2303983.411 9  -1779872.39447  22659713.753    22659715.3444   22659721.9204
     -1132.571        -882.523
 96 11 19 17 21 59.9980000  0  8 21  3 23  9  1 15 25 31            -0.001293989
   -446982.108 9   -345527.55948  20687834.963    20687836.7064   20687842.4834
      -562.529        -438.334
   8706810.024 9   6783917.52547  23129745.671    23129748.0064   23129755.5044
     -2538.198       -1977.817
   7772118.251 9   6051025.64647  23249655.283    23249656.7464   23249663.5674
     -1738.445       -1354.632
   5785691.516 8   4510961.36045  24766777.490    24766779.6474   24766787.0454
     -2404.549       -1873.675
  -4724595.783 9  -3669856.93948  20041182.221    20041184.4224   20041189.7754
      -535.061        -416.931
  -9958689.310 9  -7745259.52447  22807188.896    22807190.4694   22807197.0454
      3777.771        2943.718
 -14141953.386 9 -11000414.07947  22467494.189    22467496.4724   22467502.8154
      3517.527        2740.930
  -2269794.107 9  -1753231.39447  22666219.558    22666221.3474   22666227.9304
     -1146.517        -893.390
 96 11 19 17 22 29.9980000  0  8 21  3 23  9  1 15 25 31            -0.001302009
   -429984.897 9   -332282.99448  20691069.415    20691071.1784   20691076.9634
      -570.423        -444.485
   8783038.230 9   6843316.05847  23144251.154    23144253.8934   23144261.2774
     -2543.488       -1981.939
   7824321.785 9   6091703.63947  23259589.419    23259590.7514   23259597.6404
     -1741.590       -1357.083
   5857990.361 8   4567298.08245  24780536.318    24780537.4854   24780545.2094
     -2415.192       -1881.968
  -4708343.912 9  -3657193.15248  20044274.671    20044277.0784   20044282.4234
      -548.301        -427.248
 -10071929.317 9  -7833498.50947  22785639.968    22785641.7064   22785648.0344
      3771.654        2938.951
 -14247376.396 9 -11082561.81647  22447432.544    22447435.0434   22447441.3604
      3510.809        2735.695
  -2235195.983 9  -1726271.84947  22672803.444    22672805.1414   22672811.9574
     -1159.846        -903.776
 96 11 19 17 22 59.9980000  0  8 21  3 23  9  1 15 25 31            -0.001310042
   -412758.231 9   -318859.63448  20694347.614    20694349.3384   20694355.0794
      -578.407        -450.707
   8859426.057 9   6902838.99147  23158787.709    23158790.1214   23158797.3764
     -2549.383       -1986.532
   7876608.603 9   6132446.56047  23269539.147    23269540.5764   23269547.4764
     -1744.540       -1359.382
   5930606.243 8   4623881.85245  24794354.327    24794355.7284   24794363.7494
     -2426.383       -1890.688
  -4691693.577 9  -3644218.87348  20047443.204    20047445.5184   20047450.9174
      -562.143        -438.034
 -10184986.408 9  -7921594.88446  22764125.632    22764127.5124   22764134.0334
      3765.003        2933.769
 -14352593.445 9 -11164549.07747  22427410.708    22427412.8224   22427419.1034
      3503.241        2729.798
  -2200210.012 9  -1699010.07847  22679461.137    22679462.7874   22679469.4164
     -1173.023        -914.044
 96 11 19 17 23 29.9980000  0  8 21  3 23  9  1 15 25 31            -0.001318094
   -395310.726 9   -305264.19848  20697667.833    20697669.5314   20697675.2564
      -584.963        -455.815
   8935956.528 9   6962473.07147  23173351.032    23173353.3674   23173360.5844
     -2552.576       -1989.020
   7928960.168 9   6173239.89447  23279501.089    23279502.7204   23279509.7684
     -1745.796       -1360.361
   6003534.549 8   4680709.06545  24808231.812    24808233.9084   24808241.4064
     -2435.769       -1898.002
  -4674652.859 9  -3630940.40448  20050685.988    20050688.2464   20050693.6754
      -574.084        -447.338
 -10297864.020 9  -8009551.49647  22742645.697    22742647.6654   22742654.0734
      3759.946        2929.828
 -14457600.996 9 -11246373.08447  22407428.854    22407430.4384   22407436.7774
      3497.221        2725.107
  -2164846.709 9  -1671454.29847  22686190.484    22686192.2954   22686198.8704
     -1184.902        -923.300
 96 11 19 17 23 59.9980000  0  8 21  3 23  9  1 15 25 31            -0.001326172
   -377646.061 9   -291499.54048  20701029.291    20701031.0154   20701036.7514
      -592.565        -461.739
   9012587.155 9   7022185.17847  23187933.449    23187935.7564   23187942.8484
     -2555.893       -1991.605
   7981375.575 9   6214083.00147  23289475.513    23289477.0794   23289484.1794
     -1748.525       -1362.487
   6076760.853 8   4737768.46745  24822164.191    24822168.3644   24822175.8624
     -2445.825       -1905.838
  -4657228.225 9  -3617362.77748  20054001.836    20054004.0394   20054009.4914
      -587.289        -457.628
 -10410563.170 9  -8097368.96047  22721199.414    22721201.5874   22721208.3314
      3753.484        2924.793
 -14562408.904 9 -11328041.52947  22387484.518    22387486.0694   22387492.4464
      3490.131        2719.582
  -2129095.391 9  -1643596.20147  22692993.722    22692995.5584   22693002.2654
     -1198.450        -933.857
 96 11 19 17 24 29.9980000  0  7 21  3 23  1 15 25 31               -0.001334261
   -359742.822 9   -277548.98748  20704436.315    20704437.8924   20704443.6574
      -601.057        -468.356
   9089315.054 9   7081973.08247  23202534.487    23202536.5824   23202543.7734
     -2559.391       -1994.331
   8033884.758 9   6254999.16247  23299467.730    23299469.4214   23299476.4394
     -1752.173       -1365.330
  -4639400.980 9  -3603471.42748  20057394.460    20057396.4764   20057401.8944
      -601.233        -468.493
 -10523064.597 9  -8185032.40847  22699791.140    22699793.1504   22699799.8784
      3746.500        2919.351
 -14666994.562 9 -11409536.80547  22367582.419    22367584.0574   22367590.3424
      3482.369        2713.534
  -2092936.728 9  -1615420.65947  22699874.493    22699876.4514   22699883.2274
     -1212.328        -944.671
 96 11 19 17 24 59.9980000  0  7 21  3 23  1 15 25 31               -0.001342366
   -341606.215 9   -263416.59048  20707887.429    20707889.1844   20707894.9894
      -609.030        -474.569
   9166126.741 9   7141826.27247  23217151.316    23217153.2894   23217160.8284
     -2562.279       -1996.581
   8086486.351 9   6295987.34547  23309477.594    23309479.2624   23309486.2634
     -1755.502       -1367.924
  -4621181.696 9  -3589274.60048  20060861.731    20060863.4784   20060868.8844
      -614.038        -478.471
 -10635376.501 9  -8272548.15747  22678419.260    22678421.0254   22678427.7314
      3740.087        2914.354
 -14771374.711 9 -11490871.95147  22347719.828    22347721.1434   22347727.3704
      3475.417        2708.117
  -2056378.347 9  -1586933.65247  22706831.606    22706833.2604   22706840.1104
     -1226.043        -955.358
 96 11 19 17 25 29.9980000  0  7 21  3 23  1 15 25 31               -0.001350472
   -323229.983 9   -249097.47048  20711384.487    20711386.0774   20711391.9124
      -616.572        -480.446
   9243022.070 9   7201744.65047  23231784.025    23231786.0214   23231793.5914
     -2564.634       -1998.416
   8139191.090 9   6337055.88247  23319506.935    23319508.6814   23319515.7384
     -1758.603       -1370.340
  -4602589.469 9  -3574787.16548  20064399.739    20064401.4504   20064406.8474
      -625.972        -487.770
 -10747501.447 9  -8359918.23247  22657083.246    22657084.4184   22657090.9674
      3734.388        2909.913
 -14875557.805 9 -11572053.53747  22327893.115    22327895.7184   22327901.9214
      3469.718        2703.676
  -2019404.415 9  -1558122.84047  22713867.674    22713869.2794   22713875.8644
     -1239.588        -965.913
 96 11 19 17 25 59.9980000  0  7 21  3 23  1 15 25 31               -0.001358576
   -304609.544 9   -234588.06148  20714927.774    20714929.4444   20714935.2904
      -624.932        -486.960
   9320018.127 9   7261741.49746  23246436.005    23246437.9384   23246445.4924
     -2568.575       -2001.487
   8192008.842 9   6378212.50146  23329558.087    23329559.5714   23329566.6164
     -1762.625       -1373.474
  -4583619.309 9  -3560005.24148  20068009.615    20068011.3734   20068016.7254
      -638.868        -497.819
 -10859436.421 9  -8447140.21247  22635782.522    22635783.7664   22635790.5684
      3727.802        2904.781
 -14979552.675 9 -11653088.47347  22308102.727    22308106.1174   22308112.3164
      3463.044        2698.476
  -1982001.788 9  -1528977.97947  22720985.064    22720986.6764   22720993.2704
     -1254.012        -977.152
 96 11 19 17 26 29.9980000  0  7 21  3 23  1 15 25 31               -0.001366671
   -285733.340 9   -219879.35348  20718519.920    20718521.5044   20718527.3194
      -633.578        -493.697
   9397148.484 9   7321843.00646  23261113.387    23261115.4254   23261123.0134
     -2573.576       -2005.384
   8244957.151 9   6419470.84346  23339633.372    23339635.4174   23339642.4454
     -1767.393       -1377.189
  -4564251.342 9  -3544913.33848  20071695.082    20071696.9724   20071702.3014
      -652.516        -508.454
 -10971166.260 9  -8534202.43947  22614520.749    22614522.3104   22614528.9404
      3720.597        2899.166
 -15083334.263 9 -11733957.21447  22288353.679    22288357.1034   22288363.2754
      3455.633        2692.701
  -1944167.205 9  -1499496.50947  22728184.652    22728186.4314   22728193.0064
     -1268.525        -988.461
 96 11 19 17 26 59.9980000  0  7 21  3 23  1 15 25 31               -0.001374759
   -266629.110 9   -204992.96748  20722155.357    20722156.9274   20722162.7534
      -640.302        -498.937
   9474404.376 9   7382042.32946  23275814.374    23275816.8474   23275824.3664
     -2577.041       -2008.084
   8298028.249 9   6460824.88547  23349732.426    23349734.6134   23349741.6874
     -1770.804       -1379.847
  -4544504.469 9  -3529526.18048  20075452.642    20075454.6794   20075460.0084
      -664.262        -517.607
 -11082697.855 9  -8621110.15747  22593297.423    22593298.7024   22593305.2454
      3714.534        2894.442
 -15186921.666 9 -11814674.63347  22268641.539    22268645.0434   22268651.2374
      3449.836        2688.184
  -1905919.907 9  -1469693.45547  22735463.067    22735464.7274   22735471.2514
     -1281.655        -998.692
 96 11 19 17 27 29.9980000  0  7 21  3 23  1 15 25 31               -0.001382844
   -247303.413 9   -189933.99548  20725832.922    20725834.4804   20725840.3174
      -647.736        -504.729
   9551779.872 9   7442334.84846  23290538.551    23290540.9564   23290548.4544
     -2580.877       -2011.073
   8351219.133 9   6502272.24747  23359854.718    23359856.5084   23359863.6584
     -1774.815       -1382.973
  -4524374.236 9  -3513840.29948  20079283.501    20079285.3674   20079290.6564
      -677.419        -527.859
 -11194022.282 9  -8707856.40147  22572113.216    22572114.2234   22572120.9964
      3707.421        2888.899
 -15290314.487 9 -11895240.43047  22248966.656    22248969.9754   22248976.2134
      3443.223        2683.031
  -1867259.969 9  -1439568.87547  22742819.913    22742821.5874   22742828.1304
     -1295.267       -1009.299
 96 11 19 17 27 59.9980000  0  7 21  3 23  1 15 25 31               -0.001390939
   -227765.951 9   -174710.02548  20729550.641    20729552.3324   20729558.2174
      -655.070        -510.444
   9629257.624 9   7502707.05246  23305281.931    23305284.4044   23305292.0084
     -2584.331       -2013.764
   8404515.594 9   6543801.89447  23369997.134    23369998.5744   23370005.8524
     -1778.644       -1385.956
  -4503867.272 9  -3497860.86248  20083186.087    20083187.7324   20083193.0584
      -689.943        -537.618
 -11305141.332 9  -8794442.68347  22550967.450    22550968.9954   22550975.7204
      3700.206        2883.277
 -15393508.757 9 -11975651.51047  22229329.291    22229332.6754   22229338.9684
      3435.996        2677.399
  -1828215.244 9  -1409144.44747  22750249.719    22750251.5324   22750258.1364
     -1307.952       -1019.183
 96 11 19 17 28 29.9980000  0  7 21  3 23  1 15 25 31               -0.001399036
   -208009.318 9   -159315.26948  20733310.188    20733311.9024   20733317.8184
      -662.142        -515.955
   9706824.580 9   7563148.75246  23320042.477    23320044.9704   23320052.5744
     -2586.742       -2015.643
   8457925.533 9   6585419.95147  23380160.876    23380162.1244   23380169.6374
     -1782.033       -1388.597
  -4482989.520 9  -3481592.49548  20087159.120    20087160.6374   20087165.9954
      -701.761        -546.827
 -11416045.470 9  -8880861.46747  22529862.602    22529864.5764   22529871.3654
      3693.340        2877.927
 -15496487.591 9 -12055894.71547  22209732.577    22209736.3754   22209742.6894
      3429.333        2672.207
  -1788805.600 9  -1378435.68447  22757748.856    22757750.9044   22757757.5644
     -1319.482       -1028.168
 96 11 19 17 28 59.9980000  0  7 21  3 23  1 15 25 31               -0.001407133
   -188024.772 9   -143742.91848  20737113.016    20737114.8444   20737120.7944
      -670.635        -522.573
   9784460.011 9   7623643.82446  23334816.037    23334818.5314   23334826.2684
     -2589.284       -2017.624
   8511437.995 9   6627117.89246  23390343.909    23390345.3074   23390352.7594
     -1785.777       -1391.514
  -4461761.672 9  -3465051.32348  20091198.665    20091200.1584   20091205.5674
      -713.853        -556.249
 -11526735.486 9  -8967113.45147  22508798.916    22508800.9604   22508807.6154
      3685.638        2871.926
 -15599268.533 9 -12135983.70547  22190174.632    22190177.7764   22190184.1584
      3422.259        2666.695
  -1749040.671 9  -1347450.07947  22765316.184    22765317.8814   22765324.5124
     -1331.900       -1037.844
 96 11 19 17 29 29.9980000  0  7 21  3 23  1 15 25 31               -0.001415224
   -167782.477 9   -127969.72748  20740965.164    20740966.8324   20740972.7964
      -679.250        -529.286
   9862159.611 9   7684188.87746  23349602.830    23349604.4824   23349612.0724
     -2590.983       -2018.948
   8565057.620 9   6668899.36046  23400547.549    23400548.9154   23400556.3394
     -1789.203       -1394.184
  -4440175.430 9  -3448230.88748  20095306.223    20095307.8654   20095313.3264
      -725.418        -565.261
 -11637201.398 9  -9053190.74047  22487777.756    22487779.8854   22487786.6664
      3678.414        2866.297
 -15701832.167 9 -12215903.37047  22170657.615    22170660.5634   22170666.9404
      3415.018        2661.053
  -1708912.079 9  -1316181.07047  22772952.264    22772954.1974   22772960.5514
     -1343.712       -1047.048
 96 11 19 17 29 59.9980000  0  7 21  3 23  1 15 25 31               -0.001423304
   -147262.054 9   -111979.80948  20744870.108    20744871.7714   20744877.7014
      -689.069        -536.937
   9939915.958 9   7744778.15046  23364399.559    23364401.1304   23364408.5984
     -2593.178       -2020.658
   8618790.174 9   6710768.81646  23410772.133    23410773.9974   23410781.3194
     -1793.515       -1397.544
  -4418240.861 9  -3431139.02748  20099480.108    20099481.8844   20099487.3364
      -737.398        -574.596
 -11747440.215 9  -9139091.12147  22466800.132    22466802.1234   22466808.8754
      3670.373        2860.031
 -15804167.957 9 -12295645.49747  22151183.739    22151186.7614   22151193.0604
      3406.976        2654.786
  -1668420.217 9  -1284629.02947  22780657.917    22780659.6594   22780665.9494
     -1356.318       -1056.871
 96 11 19 17 30 29.9980000  0  7 21  3 23  1 15 25 31               -0.001431378
   -126475.597 9    -95782.59348  20748825.648    20748827.3354   20748833.2124
      -696.745        -542.918
  10017709.432 9   7805396.37046  23379203.175    23379204.8074   23379212.3834
     -2593.377       -2020.813
   8672637.140 9   6752727.42946  23421018.914    23421020.8554   23421028.0644
     -1796.454       -1399.834
  -4395956.724 9  -3413774.77548  20103720.431    20103722.4064   20103727.8554
      -748.268        -583.066
 -11857457.459 9  -9224818.80747  22445864.195    22445866.5604   22445873.3804
      3663.946        2855.023
 -15906283.406 9 -12375215.91747  22131751.875    22131754.8704   22131761.1114
      3400.610        2649.826
  -1627567.301 9  -1252795.61747  22788431.789    22788433.7654   22788440.0804
     -1367.580       -1065.647
 96 11 19 17 30 59.9980000  0  7 21  3 23  1 15 25 31               -0.001439445
   -105429.515 9    -79383.06848  20752830.706    20752832.3074   20752838.1224
      -705.628        -549.840
  10095548.305 9   7866049.95146  23394015.481    23394017.0634   23394024.7574
     -2595.244       -2022.268
   8726605.180 9   6794780.35946  23431289.042    23431290.6234   23431297.8464
     -1800.813       -1403.231
  -4373312.882 9  -3396130.23848  20108029.573    20108031.4354   20108036.8384
      -760.731        -592.777
 -11967248.312 9  -9310370.12547  22424971.593    22424974.0904   22424980.7764
      3656.115        2848.921
 -16008172.250 9 -12454609.76547  22112363.332    22112366.0874   22112372.2464
      3392.408        2643.435
  -1586332.090 9  -1220664.35047  22796278.676    22796280.5214   22796286.9894
     -1380.868       -1076.001
 96 11 19 17 31 29.9980000  0  7 21  3 23  1 15 25 31               -0.001447505
    -84131.049 9    -62786.88048  20756883.693    20756885.3044   20756891.1094
      -713.799        -556.207
  10173440.847 9   7926745.36746  23408837.863    23408839.5784   23408847.2794
     -2597.212       -2023.802
   8780704.697 9   6836935.76046  23441584.238    23441585.4464   23441592.7394
     -1805.242       -1406.682
  -4350296.815 9  -3378195.65048  20112409.454    20112411.2824   20112416.6454
      -773.121        -602.432
 -12076809.249 9  -9395742.24547  22404122.837    22404125.2704   22404132.0304
      3648.360        2842.878
 -16109803.277 9 -12533802.71447  22093023.629    22093026.3874   22093032.5004
      3383.499        2636.493
  -1544702.866 9  -1188226.01647  22804200.485    22804202.3874   22804208.8134
     -1393.984       -1086.221
 96 11 19 17 31 59.9980000  0  7 21  3 23  1 15 25 31               -0.001455569
    -62605.329 9    -46013.61348  20760979.913    20760981.5284   20760987.3404
      -720.517        -561.442
  10251393.758 9   7987487.80946  23423671.544    23423673.6554   23423681.3714
     -2599.126       -2025.293
   8834921.429 9   6879182.48146  23451900.917    23451902.4804   23451909.8844
     -1808.650       -1409.338
  -4326914.808 9  -3359975.91348  20116858.848    20116860.7594   20116866.1094
      -785.211        -611.853
 -12186145.164 9  -9480939.07647  22383317.498    22383319.3724   22383326.1294
      3641.254        2837.341
 -16211182.590 9 -12612799.52747  22073732.086    22073734.5584   22073740.6634
      3375.652        2630.378
  -1502687.427 9  -1155486.76647  22812195.571    22812197.6244   22812204.0014
     -1406.477       -1095.956
 96 11 19 17 32 29.9980000  0  7 21  3 23  1 15 25 31               -0.001463659
    -40896.219 9    -29097.44548  20765111.086    20765112.6714   20765118.4664
      -726.917        -566.429
  10329406.202 9   8048276.62946  23438516.912    23438519.0854   23438526.7274
     -2601.748       -2027.336
   8889237.081 9   6921506.27446  23462236.535    23462238.3954   23462245.9014
     -1812.355       -1412.225
  -4303164.707 9  -3341469.35348  20121378.386    20121380.2584   20121385.5994
      -798.004        -621.821
 -12295268.103 9  -9565969.91547  22362552.050    22362553.9834   22362560.6744
      3633.582        2831.363
 -16312326.511 9 -12691612.91847  22054485.709    22054487.5024   22054493.5464
      3367.323        2623.888
  -1460298.476 9  -1122456.44447  22820262.007    22820264.0684   22820270.4254
     -1419.527       -1106.125
 96 11 19 17 32 59.9980000  0  7 21  3 23  1 15 25 31               -0.001471761
    -18983.152 9    -12022.34948  20769281.058    20769282.6294   20769288.3804
      -733.741        -571.746
  10407512.044 9   8109138.25546  23453380.130    23453382.2654   23453389.7744
     -2604.827       -2029.735
   8943663.945 9   6963916.73846  23472593.590    23472595.5544   23472603.0384
     -1815.837       -1414.938
  -4279025.071 9  -3322659.25748  20125971.969    20125973.8874   20125979.2454
      -810.942        -631.903
 -12404151.801 9  -9650814.32547  22341831.767    22341834.0524   22341840.7724
      3625.612        2825.152
 -16413214.737 9 -12770227.05847  22035287.259    22035289.1054   22035295.0764
      3358.772        2617.225
  -1417508.785 9  -1089113.86247  22828404.463    22828406.6624   22828413.0384
     -1432.739       -1116.420
 96 11 19 17 33 29.9980000  0  7 21  3 23  1 15 25 31               -0.001479874
      3135.519 9      5212.96548  20773490.008    20773491.7104   20773497.4264
      -741.059        -577.449
  10485702.961 9   8170066.15446  23468259.429    23468261.5804   23468269.1844
     -2607.975       -2032.188
   8998192.379 9   7006406.35346  23482970.321    23482972.0814   23482979.5174
     -1819.379       -1417.698
  -4254506.771 9  -3303554.10148  20130637.664    20130639.5544   20130644.9574
      -823.631        -641.790
 -12512792.523 9  -9735469.41847  22321157.791    22321160.2894   22321167.0574
      3617.013        2818.452
 -16513844.767 9 -12848640.01847  22016138.082    22016139.7804   22016145.7204
      3349.994        2610.385
  -1374325.933 9  -1055464.94147  22836622.166    22836624.1294   22836630.5784
     -1446.221       -1126.925
 96 11 19 17 33 59.9980000  0  7 21  3 23  1 15 25 31               -0.001487997
     25472.039 9     22618.02548  20777740.791    20777742.2144   20777747.9354
      -747.996        -582.854
  10563981.767 9   8231062.53746  23483155.120    23483157.3694   23483165.1384
     -2610.234       -2033.949
   9052810.287 9   7048965.69446  23493364.475    23493365.5694   23493372.9094
     -1821.808       -1419.591
  -4229615.820 9  -3284158.57348  20135374.435    20135376.1854   20135381.5934
      -835.564        -651.089
 -12621180.343 9  -9819927.42447  22300532.651    22300534.6874   22300541.5754
      3609.023        2812.226
 -16614229.071 9 -12926861.50647  21997035.153    21997037.2134   21997043.1994
      3342.441        2604.499
  -1330746.293 9  -1021506.83247  22844915.128    22844916.9684   22844923.7554
     -1458.952       -1136.846
 96 11 19 17 34 29.9980000  0  7 21  3 23  1 15 25 31               -0.001496124
     48039.959 9     40203.39948  20782035.190    20782036.7164   20782042.4784
      -756.472        -589.459
  10642329.008 9   8292112.25546  23498063.943    23498066.2874   23498074.3304
     -2612.501       -2035.715
   9107524.338 9   7091599.93546  23503776.380    23503777.3704   23503784.7604
     -1825.437       -1422.418
  -4204362.685 9  -3264480.81948  20140179.856    20140181.7304   20140187.0964
      -847.610        -660.475
 -12729315.292 9  -9904188.41447  22279955.641    22279957.3584   22279964.1884
      3600.272        2805.407
 -16714371.333 9 -13004894.39347  21977978.270    21977980.7134   21977986.7414
      3333.983        2597.909
  -1286773.606 9   -987242.43947  22853282.545    22853284.6044   22853291.6464
     -1472.199       -1147.168
 96 11 19 17 34 59.9980000  0  7 21  3 23  1 15 25 31               -0.001504243
     70868.364 9     57991.74748  20786379.149    20786380.8354   20786386.6204
      -765.374        -596.395
  10720733.863 9   8353206.85646  23512984.112    23512986.1154   23512994.4634
     -2614.342       -2037.150
   9162340.809 9   7134313.99246  23514207.473    23514208.5734   23514216.1614
     -1828.996       -1425.192
  -4178767.328 9  -3244536.39348  20145050.465    20145052.3744   20145057.7474
      -858.520        -668.977
 -12837196.996 9  -9988252.05647  22259426.585    22259428.2074   22259435.0454
      3591.889        2798.875
 -16814262.080 9 -13082731.29547  21958969.565    21958972.0784   21958978.1084
      3325.384        2591.208
  -1242418.875 9   -952680.36147  22861723.198    22861725.0774   22861732.0094
     -1484.578       -1156.814
 96 11 19 17 35 29.9980000  0  7 21  3 23  1 15 25 31               -0.001512341
     93965.700 9     75989.64448  20790774.449    20790776.1344   20790781.9324
      -774.583        -603.571
  10799193.674 9   8414344.28046  23527914.433    23527916.6324   23527924.8944
     -2616.454       -2038.795
   9217268.712 9   7177114.87146  23524659.578    23524661.0974   23524668.6694
     -1832.904       -1428.237
  -4152855.585 9  -3224345.43948  20149981.243    20149983.2154   20149988.6414
      -869.170        -677.275
 -12944825.080 9 -10072118.06647  22238945.430    22238947.2164   22238954.2174
      3583.266        2792.155
 -16913888.652 9 -13160362.34748  21940011.516    21940013.7114   21940019.7454
      3316.391        2584.201
  -1197701.730 9   -917835.89547  22870232.736    22870234.5054   22870241.3654
     -1496.570       -1166.158
 96 11 19 17 35 59.9980000  0  7 21  3 23  1 15 25 31               -0.001520419
    117337.175 9     94201.16348  20795221.862    20795223.6194   20795229.4114
      -783.367        -610.416
  10877714.185 9   8475529.01246  23542856.552    23542858.7434   23542866.8914
     -2618.116       -2040.090
   9272315.838 9   7220008.62846  23535134.370    23535136.1664   23535143.9634
     -1837.149       -1431.545
  -4126614.112 9  -3203897.54848  20154974.924    20154976.7724   20154982.2474
      -880.261        -685.918
 -13052195.919 9 -10155783.64147  22218513.433    22218515.2254   22218522.2114
      3574.755        2785.523
 -17013244.684 9 -13237782.59148  21921104.513    21921106.8614   21921112.8524
      3307.258        2577.084
  -1152634.761 9   -882718.81947  22878808.540    22878810.4464   22878817.4524
     -1507.831       -1174.933
 96 11 19 17 36 29.9980000  0  7 21  3 23  1 15 25 31               -0.001528487
    140962.444 9    112610.43648  20799717.711    20799719.3974   20799725.1574
      -791.416        -616.688
  10956275.804 9   8536745.75146  23557806.459    23557808.6404   23557816.7584
     -2619.016       -2040.792
   9327489.661 9   7263001.15146  23545633.667    23545635.4904   23545643.2384
     -1840.890       -1434.460
  -4100042.523 9  -3183192.42848  20160031.091    20160033.1254   20160038.6734
      -890.997        -694.283
 -13159314.644 9 -10239252.74147  22198129.258    22198131.2114   22198138.2834
      3566.648        2779.206
 -17112320.598 9 -13314984.57848  21902251.389    21902253.3634   21902259.3124
      3297.963        2569.841
  -1107242.304 9   -847348.11447  22887446.818    22887448.4774   22887455.1624
     -1518.198       -1183.011
 96 11 19 17 36 59.9980000  0  7 21  3 23  1 15 25 31               -0.001536548
    164839.952 9    131216.25948  20804261.520    20804263.1564   20804268.9194
      -800.301        -623.611
  11034875.453 9   8597992.14346  23572763.457    23572765.6444   23572773.8264
     -2620.814       -2042.193
   9382791.654 9   7306093.52646  23556156.769    23556159.2024   23556167.0404
     -1845.762       -1438.256
  -4073135.524 9  -3162225.95349  20165151.409    20165153.3544   20165158.9194
      -902.804        -703.484
 -13266170.386 9 -10322516.96547  22177794.945    22177797.2984   22177804.1594
      3557.074        2771.746
 -17211093.109 9 -13391950.15648  21883455.117    21883457.6174   21883463.5274
      3286.999        2561.298
  -1061523.055 9   -811722.78947  22896147.068    22896148.6194   22896155.2504
     -1529.749       -1192.012
 96 11 19 17 37 29.9980000  0  7 21  3 23  1 15 25 31               -0.001544607
    188971.801 9    150020.27148  20808853.542    20808855.2834   20808861.0444
      -808.299        -629.843
  11113512.951 9   8659268.01946  23587727.930    23587729.9034   23587738.2504
     -2621.355       -2042.614
   9438220.809 9   7349284.99846  23566704.045    23566706.9794   23566714.9424
     -1849.230       -1440.958
  -4045865.343 9  -3140976.47848  20170340.769    20170342.7044   20170348.2484
      -915.096        -713.062
 -13372742.200 9 -10405559.89347  22157514.730    22157517.2914   22157524.1844
      3547.944        2764.632
 -17309552.906 9 -13468672.06948  21864718.636    21864721.3104   21864727.1614
      3277.281        2553.725
  -1015459.029 9   -775828.77147  22904912.785    22904914.3304   22904921.0314
     -1541.019       -1200.794
 96 11 19 17 37 59.9980000  0  7 21  3 23  1 15 25 31               -0.001552693
    213335.968 9    169005.30948  20813489.959    20813491.6324   20813497.4034
      -815.363        -635.348
  11192141.254 9   8720536.73646  23602690.645    23602692.5574   23602700.8164
     -2619.899       -2041.480
   9493746.708 9   7392551.84946  23577270.630    23577273.3704   23577281.1784
     -1852.010       -1443.125
  -4018229.535 9  -3119442.10049  20175599.696    20175601.6594   20175607.1864
      -926.475        -721.928
 -13479045.990 9 -10488394.02247  22137285.932    22137288.5074   22137295.1074
      3539.530        2758.075
 -17407734.113 9 -13545176.89647  21846035.632    21846038.0094   21846043.8214
      3268.765        2547.090
   -969065.029 9   -739677.65347  22913741.158    22913742.8544   22913749.5664
     -1551.541       -1208.993
 96 11 19 17 38 29.9980000  0  7 21  3 23  1 15 25 31               -0.001560806
    237913.919 9    188156.93348  20818166.976    20818168.7084   20818174.4624
      -823.167        -641.429
  11270719.577 9   8781766.48946  23617644.020    23617645.6644   23617653.8434
     -2618.638       -2040.497
   9549357.753 9   7435885.03146  23587854.181    23587855.9554   23587863.7264
     -1855.269       -1445.664
  -3990271.908 9  -3097656.95749  20180919.897    20180921.8744   20180927.3524
      -937.266        -730.337
 -13585102.410 9 -10571035.37847  22117104.802    22117106.7654   22117113.1524
      3530.980        2751.413
 -17505665.617 9 -13621487.16147  21827400.176    21827402.2224   21827408.0474
      3260.157        2540.382
   -922351.265 9   -703277.36547  22922630.641    22922632.0394   22922638.9714
     -1562.684       -1217.676
 96 11 19 17 38 59.9980000  0  7 21  3 23  1 15 25 31               -0.001568930
    262739.944 9    207501.86148  20822891.238    20822892.9534   20822898.7464
      -831.925        -648.253
  11349273.105 9   8842976.92946  23632592.207    23632594.0054   23632602.1534
     -2618.582       -2040.454
   9605077.226 9   7479302.70046  23598456.708    23598459.1984   23598466.7514
     -1859.485       -1448.949
  -3961986.521 9  -3075616.41349  20186302.492    20186304.4514   20186309.8934
      -948.695        -739.243
 -13690894.122 9 -10653470.44847  22096973.241    22096975.1394   22096981.5394
      3521.615        2744.116
 -17603342.185 9 -13697598.77048  21808812.942    21808814.9054   21808820.7844
      3251.538        2533.666
   -875301.946 9   -666615.57747  22931583.600    22931585.2974   22931592.1514
     -1574.141       -1226.603
 96 11 19 17 39 29.9980000  0  7 21  3 23  1 15 25 31               -0.001577060
    287807.210 9    227034.75848  20827661.589    20827663.1554   20827668.9314
      -840.114        -654.634
  11427814.728 9   8904178.11446  23647538.453    23647540.0464   23647548.3794
     -2618.465       -2040.362
   9660906.314 9   7522805.81446  23609080.388    23609083.1454   23609090.6814
     -1863.542       -1452.111
  -3933373.831 9  -3053320.82549  20191747.441    20191749.2984   20191754.7164
      -959.601        -747.741
 -13796424.955 9 -10735702.25347  22076891.421    22076893.1724   22076899.6424
      3512.838        2737.276
 -17700789.214 9 -13773531.53348  21790269.064    21790271.3424   21790277.2814
      3243.749        2527.597
   -827930.637 9   -629702.93247  22940598.374    22940599.8664   22940606.7164
     -1584.851       -1234.949
 96 11 19 17 39 59.9980000  0  7 21  3 23  1 15 25 31               -0.001585164
    313140.528 9    246774.97048  20832482.381    20832483.9744   20832489.6904
      -848.327        -661.034
  11506380.114 9   8965397.78146  23662488.910    23662490.5254   23662498.9854
     -2618.957       -2040.746
   9716891.646 9   7566430.67046  23619734.142    23619736.8374   23619744.4604
     -1868.340       -1455.849
  -3904431.691 9  -3030768.52449  20197254.925    20197256.7924   20197262.2394
      -969.413        -755.387
 -13901674.042 9 -10817714.52147  22056862.825    22056864.9314   22056871.4574
      3504.171        2730.523
 -17797972.784 9 -13849258.99848  21771775.369    21771777.9364   21771783.8484
      3235.398        2521.089
   -780227.741 9   -592531.89947  22949675.794    22949677.3954   22949684.4754
     -1595.017       -1242.870
 96 11 19 17 40 29.9980000  0  7 21  3 23  1 15 25 31               -0.001593239
    338734.358 9    266718.18248  20837352.767    20837354.3284   20837360.0394
      -857.988        -668.562
  11584992.868 9   9026654.36846  23677448.298    23677450.0774   23677458.4924
     -2622.023       -2043.135
   9773024.187 9   7610170.22546  23630415.597    23630418.5554   23630426.2344
     -1873.975       -1460.240
  -3875179.902 9  -3007974.93349  20202821.484    20202823.2014   20202828.6914
      -980.997        -764.413
 -14006648.302 9 -10899512.62547  22036886.878    22036888.9204   22036895.5554
      3493.919        2722.534
 -17894879.240 9 -13924770.53048  21753334.758    21753337.2744   21753343.1744
      3224.951        2512.949
   -732209.824 9   -555115.37747  22958813.569    22958815.0544   22958821.9594
     -1606.196       -1251.581
 96 11 19 17 40 59.9980000  0  7 21  3 23  1 15 25 31               -0.001601296
    364588.094 9    286863.91548  20842272.526    20842274.1704   20842279.8744
      -865.655        -674.536
  11663675.511 9   9087965.44346  23692421.017    23692422.8634   23692431.2754
     -2623.512       -2044.295
   9829296.527 9   7654018.74546  23641123.943    23641126.7504   23641134.6894
     -1877.713       -1463.153
  -3845591.836 9  -2984919.31349  20208451.592    20208453.6094   20208459.1004
      -991.591        -772.668
 -14111333.743 9 -10981085.69247  22016965.742    22016967.9114   22016974.5974
      3484.908        2715.513
 -17991496.249 9 -14000056.52548  21734949.533    21734951.7324   21734957.6214
      3215.915        2505.908
   -683881.757 9   -517457.19847  22968009.940    22968011.5944   22968018.5294
     -1615.952       -1259.183
 96 11 19 17 41 29.9980000  0  7 21  3 23  1 15 25 31               -0.001609349
    390681.231 9    307196.19948  20847237.900    20847239.5674   20847245.2904
      -873.871        -680.938
  11742402.044 9   9149310.72146  23707402.426    23707404.2514   23707412.3794
     -2624.656       -2045.186
   9885683.612 9   7697956.61846  23651855.079    23651856.9854   23651864.8904
     -1881.364       -1465.998
  -3815679.238 9  -2961610.80849  20214143.732    20214145.7734   20214151.2914
     -1002.424        -781.110
 -14215736.421 9 -11062438.42847  21997098.510    21997100.7664   21997107.3814
      3475.409        2708.111
 -18087818.185 9 -14075112.58248  21716620.093    21716622.3264   21716628.2254
      3205.626        2497.890
   -635246.383 9   -479559.55547  22977264.563    22977266.4464   22977273.5674
     -1626.361       -1267.294
 96 11 19 17 41 59.9980000  0  7 21  3 23  1 15 25 31               -0.001617412
    417018.873 9    327719.00148  20852249.698    20852251.4894   20852257.2194
      -882.075        -687.331
  11821153.729 9   9210675.56746  23722387.939    23722390.2484   23722398.4744
     -2625.546       -2045.880
   9942170.023 9   7741971.92046  23662603.923    23662606.1124   23662613.9604
     -1884.382       -1468.350
  -3785443.902 9  -2938050.82049  20219897.487    20219899.3854   20219904.8764
     -1013.489        -789.732
 -14319856.953 9 -11143571.27247  21977285.233    21977287.2664   21977293.9494
      3465.783        2700.610
 -18183836.301 9 -14149931.89848  21698348.472    21698350.7144   21698356.6284
      3195.534        2490.026
   -586299.630 9   -441419.29447  22986578.937    22986580.5974   22986587.8424
     -1636.970       -1275.561
 96 11 19 17 42 29.9980000  0  7 21  3 23  1 15 25 31               -0.001625494
    443596.906 9    348429.12148  20857307.454    20857309.1754   20857314.9104
      -889.900        -693.428
  11899926.465 9   9272056.82346  23737377.900    23737380.3444   23737388.6944
     -2625.987       -2046.224
   9998740.430 9   7786052.67646  23673368.218    23673371.0614   23673378.9934
     -1887.331       -1470.648
  -3754866.806 9  -2914224.52749  20225716.075    20225718.0274   20225723.4614
     -1025.131        -798.803
 -14423683.942 9 -11224475.42647  21957527.605    21957529.7194   21957536.2074
      3455.841        2692.863
 -18279554.663 9 -14224517.64148  21680134.115    21680136.1374   21680141.9954
      3185.706        2482.368
   -537025.073 9   -403023.58047  22995955.880    22995957.3634   22995964.4544
     -1648.166       -1284.285
 96 11 19 17 42 59.9980000  0  7 21  3 23  1 15 25 31               -0.001633591
    470408.059 9    369320.89848  20862409.295    20862411.1844   20862416.9634
      -897.679        -699.490
  11978691.772 9   9333432.29146  23752366.235    23752368.8454   23752377.4794
     -2625.102       -2045.534
  10055400.823 9   7830203.55846  23684151.073    23684153.3824   23684161.2104
     -1890.203       -1472.885
  -3723946.453 9  -2890130.76549  20231600.085    20231601.9814   20231607.3754
     -1036.224        -807.447
 -14527215.477 9 -11305149.32047  21937826.767    21937828.2654   21937834.8264
      3446.145        2685.308
 -18374986.829 9 -14298880.37148  21661973.880    21661976.0024   21661981.8334
      3176.129        2474.906
   -487409.944 9   -364362.47047  23005397.385    23005398.9734   23005406.0034
     -1659.523       -1293.135
 96 11 19 17 43 29.9980000  0  7 21  3 23  1 15 25 31               -0.001641699
    497462.317 9    390402.10448  20867557.669    20867559.4594   20867565.2364
      -905.824        -705.837
  12057440.417 9   9394794.76746  23767351.715    23767354.2904   23767363.0644
     -2624.752       -2045.261
  10112162.031 9   7874432.99846  23694952.621    23694954.7834   23694962.6284
     -1893.777       -1475.670
  -3692692.294 9  -2865776.89449  20237547.448    20237549.4284   20237554.8264
     -1047.297        -816.076
 -14630449.978 9 -11385591.78147  21918181.844    21918183.4964   21918189.9924
      3436.228        2677.580
 -18470121.401 9 -14373011.20948  21643870.058    21643872.4784   21643878.2894
      3166.239        2467.199
   -437450.580 9   -325433.15847  23014904.664    23014906.1004   23014912.9244
     -1670.924       -1302.019
 96 11 19 17 43 59.9980000  0  7 21  3 23  1 15 25 31               -0.001649820
    524745.302 9    411661.54548  20872749.424    20872751.2864   20872757.0564
      -913.357        -711.707
  12136165.841 9   9456139.17046  23782333.179    23782335.4744   23782344.0764
     -2624.090       -2044.745
  10169021.561 9   7918739.02946  23705772.296    23705775.0124   23705782.8194
     -1897.185       -1478.326
  -3661117.468 9  -2841173.15249  20243555.988    20243557.9254   20243563.3004
     -1058.008        -824.422
 -14733395.270 9 -11465808.86747  21898591.780    21898593.5784   21898600.1014
      3426.368        2669.897
 -18564971.843 9 -14446920.63948  21625820.623    21625823.0424   21625828.8474
      3156.555        2459.653
   -387162.210 9   -286247.45147  23024474.469    23024475.7244   23024482.6244
     -1682.014       -1310.660
 96 11 19 17 44 29.9980000  0  7 21  3 23  1 15 25 31               -0.001657946
    552265.754 9    433106.01948  20877986.553    20877988.3084   20877994.0384
      -921.523        -718.070
  12214870.632 9   9517467.50746  23797310.160    23797312.6464   23797321.1724
     -2623.060       -2043.943
  10226000.820 9   7963138.36146  23716614.031    23716617.8514   23716625.5294
     -1901.744       -1481.878
  -3629216.799 9  -2816315.50849  20249626.566    20249628.4444   20249633.7924
     -1068.860        -832.878
 -14836036.487 9 -11545789.04347  21879059.881    21879061.5414   21879068.0564
      3416.143        2661.930
 -18659513.949 9 -14520589.80348  21607830.242    21607832.2824   21607838.0654
      3145.980        2451.413
   -336538.377 9   -246800.36647  23034107.610    23034109.1824   23034116.0594
     -1693.126       -1319.319
 96 11 19 17 44 59.9980000  0  7 21  3 23  1 15 25 31               -0.001666061
    580041.007 9    454749.04948  20883271.879    20883273.8034   20883279.5264
      -930.079        -724.737
  12293541.065 9   9578769.03846  23812280.971    23812283.3234   23812291.8244
     -2621.613       -2042.815
  10283114.146 9   8007642.19046  23727483.145    23727486.3254   23727493.7914
     -1905.884       -1485.104
  -3596996.626 9  -2791208.89649  20255757.673    20255759.7624   20255765.1324
     -1079.115        -840.869
 -14938368.855 9 -11625528.54747  21859586.903    21859588.3764   21859594.8934
      3406.001        2654.027
 -18753728.246 9 -14594003.52848  21589901.559    21589903.9324   21589909.6714
      3134.945        2442.814
   -285586.061 9   -207097.30747  23043803.367    23043805.0644   23043811.8724
     -1703.510       -1327.410
 96 11 19 17 45 29.9980000  0  7 21  3 23  1 15 25 31               -0.001674177
    608075.688 9    476594.23048  20888606.684    20888608.5914   20888614.3724
      -938.379        -731.204
  12372175.496 9   9640042.49946  23827244.818    23827247.0774   23827255.5984
     -2620.109       -2041.643
  10340353.796 9   8052244.44046  23738375.430    23738378.7104   23738386.3184
     -1909.385       -1487.832
  -3564467.826 9  -2765861.80249  20261947.832    20261949.8294   20261955.1894
     -1088.946        -848.529
 -15040390.736 9 -11705026.10447  21840172.651    21840174.2194   21840180.7534
      3395.987        2646.224
 -18847605.795 9 -14667154.85248  21572037.246    21572039.6354   21572045.3934
      3124.129        2434.386
   -234332.709 9   -167159.68547  23053556.832    23053558.3844   23053565.1614
     -1712.870       -1334.704
 96 11 19 17 45 59.9980000  0  7 21  3 23  1 15 25 31               -0.001682307
    636366.086 9    498638.67148  20893990.094    20893992.0664   20893997.9004
      -947.252        -738.118
  12450763.461 9   9701279.80146  23842199.767    23842201.9484   23842210.4374
     -2618.888       -2040.692
  10397696.782 9   8096927.22146  23749287.550    23749290.8204   23749298.4334
     -1913.103       -1490.730
  -3531635.832 9  -2740278.43949  20268195.405    20268197.5634   20268202.8874
     -1099.524        -856.772
 -15142107.621 9 -11784286.01547  21820816.038    21820818.0704   21820824.5204
      3385.433        2638.000
 -18941154.215 9 -14740049.70248  21554235.961    21554237.9604   21554243.7344
      3112.844        2425.593
   -182803.580 9   -127007.20147  23063362.642    23063364.2094   23063370.8524
     -1722.103       -1341.898
 96 11 19 17 46 29.9980000  0  7 21  3 23  1 15 25 31               -0.001690441
    664922.493 9    520890.38948  20899424.223    20899426.1684   20899432.0494
      -956.027        -744.956
  12529319.348 9   9762492.08246  23857148.400    23857150.5204   23857159.1024
     -2617.806       -2039.849
  10455155.000 9   8141699.76546  23760222.154    23760224.8004   23760232.5064
     -1916.932       -1493.713
  -3498495.721 9  -2714454.99448  20274501.995    20274503.9394   20274509.2254
     -1109.246        -864.348
 -15243507.703 9 -11863299.04247  21801520.255    21801522.2584   21801528.7924
      3375.006        2629.875
 -19034368.740 9 -14812684.37248  21536497.930    21536499.8274   21536505.5694
      3102.078        2417.204
   -131007.451 9    -86646.63247  23073218.981    23073220.5704   23073227.4034
     -1730.632       -1348.544
 96 11 19 17 46 59.9980000  0  7 21  3 23  1 15 25 31               -0.001698569
    693740.202 9    543345.72548  20904908.221    20904910.0254   20904915.9614
      -964.797        -751.790
  12607851.787 9   9823686.09346  23872092.478    23872094.8364   23872103.3254
     -2617.547       -2039.647
  10512726.436 9   8186560.53546  23771178.560    23771180.5484   23771188.0244
     -1920.902       -1496.807
  -3465073.998 9  -2688412.10649  20280861.902    20280863.9074   20280869.1424
     -1118.731        -871.738
 -15344592.922 9 -11942066.72447  21782284.846    21782286.4074   21782292.9464
      3364.237        2621.483
 -19127266.841 9 -14885072.46948  21518819.984    21518821.8864   21518827.6144
      3091.521        2408.977
    -78960.916 9    -46090.93547  23083122.758    23083124.6754   23083131.5824
     -1738.893       -1354.982
 96 11 19 17 47 29.9980000  0  7 21  3 23  1 15 25 31               -0.001706693
    722812.405 9    565999.36848  20910440.667    20910442.3234   20910448.2634
      -973.044        -758.216
  12686390.123 9   9884884.70346  23887038.381    23887040.3204   23887048.9074
     -2618.021       -2040.016
  10570411.718 9   8231510.02146  23782155.301    23782157.6734   23782165.3184
     -1924.567       -1499.663
  -3431362.340 9  -2662143.29648  20287277.201    20287279.0524   20287284.2614
     -1128.483        -879.337
 -15445355.204 9 -12020582.79347  21763110.137    21763111.8544   21763118.3804
      3353.493        2613.111
 -19219859.119 9 -14957222.26548  21501200.416    21501202.0944   21501207.8784
      3081.500        2401.169
    -26668.510 9     -5343.66347  23093073.609    23093075.5754   23093082.5614
     -1747.308       -1361.539
 96 11 19 17 47 59.9980000  0  7 21  3 23  1 15 25 31               -0.001714803
    752119.074 9    588835.71048  20916017.598    20916019.2404   20916025.1734
      -980.288        -763.861
  12764943.108 9   9946094.70746  23901986.714    23901988.4864   23901997.0724
     -2618.399       -2040.311
  10628216.557 9   8276552.64646  23793155.323    23793157.3854   23793165.4044
     -1928.762       -1502.931
  -3397362.788 9  -2635650.15048  20293747.111    20293748.9354   20293754.1834
     -1137.689        -886.511
 -15545797.686 9 -12098849.62747  21743996.651    21743998.2934   21744005.0374
      3343.050        2604.974
 -19312153.652 9 -15029140.05448  21483636.786    21483638.9674   21483644.8224
      3071.799        2393.610
     25887.405 9     35608.93347  23103074.774    23103076.6514   23103083.6784
     -1756.217       -1368.481
 96 11 19 17 48 29.9980000  0  7 21  3 23  1 15 25 31               -0.001722898
    781647.951 9    611845.19848  20921636.754    20921638.4174   20921644.3494
      -988.659        -770.384
  12843503.942 8  10007310.86146  23916936.019    23916937.9574   23916946.7564
     -2619.059       -2040.825
  10686153.561 8   8321698.29546  23804179.496    23804182.3654   23804190.3954
     -1933.857       -1506.902
  -3363087.491 9  -2608942.14148  20300269.550    20300271.2954   20300276.5384
     -1147.747        -894.348
 -15645921.617 9 -12176868.28347  21724943.870    21724945.4094   21724952.0474
      3331.584        2596.039
 -19404145.064 9 -15100821.65048  21466131.675    21466133.6054   21466139.4344
      3060.540        2384.836
     78728.531 9     76783.78447  23113130.279    23113132.1004   23113139.1034
     -1766.909       -1376.812
 96 11 19 17 48 59.9980000  0  8 21  3 23  1 15 29 25 31            -0.001730971
    811427.160 9    635049.75548  20927303.363    20927305.2224   20927311.1784
      -996.545        -776.529
  12922076.124 9  10068535.86746  23931887.846    23931889.8784   23931898.4984
     -2618.887       -2040.691
  10744233.360 9   8366955.17946  23815232.183    23815234.6044   23815242.7444
     -1937.989       -1510.121
  -3328492.737 9  -2581985.19749  20306852.615    20306854.4464   20306859.7514
     -1158.684        -902.871
 -15745701.283 9 -12254618.65547  21705956.434    21705957.9494   21705964.6114
      3320.414        2587.336
   -271211.78319   -195625.35556  24219538.165    24219541.1945   24219549.7265
      3373.924        2629.032
 -19495792.616 9 -15172235.29648  21448691.554    21448693.6754   21448699.4794
      3049.199        2375.999
    131893.280 9    118210.79947  23123246.956    23123248.9554   23123256.0984
     -1777.443       -1385.021
 96 11 19 17 49 29.9980000  0  8 21  3 23  1 15 29 25 31            -0.001739052
    841442.575 9    658438.36048  20933015.252    20933016.9814   20933022.9604
     -1005.264        -783.322
  13000631.713 9  10129747.93246  23946836.309    23946838.6984   23946847.1674
     -2618.512       -2040.399
  10802438.529 8   8412309.77146  23826307.679    23826310.8494   23826318.9474
     -1943.175       -1514.162
  -3293563.686 9  -2554767.77148  20313499.274    20313501.2344   20313506.5724
     -1170.465        -912.051
 -15845146.266 9 -12332108.25847  21687032.144    21687034.2454   21687040.7384
      3308.541        2578.084
   -372355.171 9   -274438.31256  24200291.464    24200294.1765   24200302.5675
      3368.223        2624.589
 -19587085.489 9 -15243372.58048  21431318.537    21431321.2364   21431327.0014
      3036.210        2365.878
    185383.749 9    159891.62247  23133426.187    23133427.9604   23133435.0614
     -1789.366       -1394.311
 96 11 19 17 49 59.9980000  0  8 21  3 23  1 15 29 25 31            -0.001747144
    871711.243 9    682024.30248  20938775.231    20938776.9324   20938782.9244
     -1012.913        -789.283
  13079134.070 9  10190918.48446  23961775.192    23961777.3184   23961785.9274
     -2614.992       -2037.656
  10860778.531 9   8457769.41746  23837408.942    23837412.7714   23837420.7264
     -1946.282       -1516.583
  -3258306.598 9  -2527294.73248  20320208.425    20320210.4374   20320215.7654
     -1180.102        -919.560
 -15944252.991 9 -12409334.26347  21668172.928    21668174.8694   21668181.4144
      3298.421        2570.198
   -473333.593 8   -353122.71745  24181075.569    24181078.9304   24181086.9364
      3363.450        2620.870
 -19678001.776 9 -15314216.41948  21414018.032    21414020.4464   21414026.1734
      3024.815        2356.999
    239205.824 9    201830.81847  23143668.272    23143670.0544   23143677.1334
     -1798.878       -1401.723
 96 11 19 17 50 29.9980000  0  8 21  3 23  1 15 29 25 31            -0.001755263
    902245.251 9    705817.01048  20944585.553    20944587.3934   20944593.3624
     -1022.592        -796.825
  13157540.894 9  10252014.60346  23976695.431    23976697.7694   23976706.1494
     -2612.240       -2035.512
  10919229.445 9   8503315.51146  23848531.900    23848535.7364   23848543.6074
     -1950.345       -1519.749
  -3222732.612 9  -2499574.76248  20326978.204    20326979.9614   20326985.3044
     -1191.387        -928.354
 -16043028.888 9 -12486302.48047  21649376.751    21649378.4224   21649384.9344
      3286.604        2560.990
   -574135.239 9   -431669.43346  24161893.065    24161896.7184   24161905.0464
      3356.936        2615.794
 -19768554.530 9 -15384776.98548  21396786.471    21396788.8024   21396794.5184
      3012.177        2347.151
    293326.353 9    244002.59747  23153966.794    23153968.8594   23153975.9994
     -1808.998       -1409.609
 96 11 19 17 50 59.9980000  0  8 21  3 23  1 15 29 25 31            -0.001763393
    933059.240 9    729827.88248  20950449.130    20950451.1044   20950457.0824
     -1031.697        -803.920
  13235858.654 8  10313041.40146  23991598.714    23991601.1054   23991609.4784
     -2609.158       -2033.110
  10977797.036 9   8548952.48846  23859678.624    23859680.8214   23859688.7224
     -1954.297       -1522.829
  -3186837.766 9  -2471604.77849  20333808.772    20333810.5484   20333815.9074
     -1201.466        -936.207
 -16141460.086 9 -12563002.09547  21630645.616    21630647.4034   21630654.1204
      3275.394        2552.255
   -674761.787 9   -510079.64646  24142744.780    24142748.1614   24142756.5604
      3351.445        2611.515
 -19858745.363 9 -15455055.54548  21379623.951    21379626.0564   21379631.7164
      3000.595        2338.126
    347727.675 9    286393.20447  23164318.986    23164321.1424   23164328.2234
     -1817.699       -1416.389
 96 11 19 17 51 29.9980000  0  8 21  3 23  1 15 29 25 31            -0.001771515
    964158.498 9    754061.04148  20956367.292    20956369.1034   20956375.1014
     -1041.821        -811.809
  13314094.192 8  10374004.02946  24006486.246    24006488.6204   24006497.2824
     -2606.855       -2031.316
  11036495.104 9   8594691.17046  23870849.460    23870850.7894   23870858.6234
     -1959.058       -1526.539
  -3150646.825 9  -2443404.06349  20340695.775    20340697.5004   20340702.8324
     -1211.411        -943.957
 -16239546.202 9 -12639432.82547  21611980.389    21611982.1974   21611988.9754
      3263.409        2542.916
   -775216.360 9   -588355.82446  24123628.952    24123632.4644   24123640.6804
      3345.267        2606.702
 -19948588.620 9 -15525063.26248  21362527.702    21362529.4664   21362535.1104
      2988.947        2329.050
    402389.155 9    328986.48147  23174720.782    23174722.8154   23174730.0184
     -1826.503       -1423.249
 96 11 19 17 51 59.9980000  0  8 21  3 23  1 15 29 25 31            -0.001779621
    995551.179 9    778522.83748  20962341.039    20962342.9344   20962348.9814
     -1051.444        -819.307
  13392256.554 8  10434909.64946  24021359.908    24021362.3204   24021371.2984
     -2604.685       -2029.625
  11095318.145 9   8640527.21946  23882042.337    23882044.5024   23882052.5344
     -1962.857       -1529.499
  -3114172.320 9  -2414982.39649  20347636.629    20347638.4134   20347643.7384
     -1220.764        -951.245
 -16337281.592 9 -12715590.27447  21593381.845    21593383.8014   21593390.5934
      3251.781        2533.855
   -875500.544 9   -666499.27846  24104545.383    24104549.0974   24104557.4304
      3339.792        2602.435
 -20038106.682 9 -15594817.59148  21345492.589    21345494.7324   21345500.3754
      2978.393        2320.826
    457288.029 9    371764.78547  23185168.135    23185169.8444   23185176.9844
     -1834.003       -1429.093
 96 11 19 17 52 29.9980000  0  8 21  3 23  1 15 29 25 31            -0.001787716
   1027215.290 9    803196.13148  20968366.620    20968368.4084   20968374.5004
     -1059.706        -825.745
  13470366.349 9  10495774.33446  24036223.916    24036226.2314   24036235.1894
     -2602.885       -2028.222
  11154248.264 9   8686446.74446  23893256.872    23893258.6764   23893266.5874
     -1966.042       -1531.981
  -3077426.475 9  -2386349.29749  20354629.234    20354630.9714   20354636.2884
     -1229.149        -957.778
 -16434673.323 9 -12791479.91347  21574848.807    21574850.7604   21574857.5914
      3240.748        2525.258
   -975637.206 9   -744527.78446  24085490.137    24085493.6334   24085501.9634
      3335.725        2599.266
 -20127313.907 9 -15664329.70748  21328516.918    21328519.1074   21328524.7464
      2968.363        2313.010
    512405.804 9    414713.65447  23195656.816    23195658.5794   23195665.7064
     -1840.682       -1434.298
 96 11 19 17 52 59.9980000  0  8 21  3 23  1 15 29 25 31            -0.001795798
   1059151.629 9    828081.55448  20974444.055    20974445.7324   20974451.7824
     -1068.963        -832.958
  13548451.625 9  10556619.92145  24051083.104    24051085.4574   24051094.2914
     -2602.454       -2027.886
  11213303.692 9   8732463.85746  23904494.708    23904496.5774   23904504.6204
     -1970.451       -1535.416
  -3040402.796 9  -2357499.69849  20361674.443    20361676.3454   20361681.6934
     -1238.762        -965.269
 -16531707.763 9 -12867091.15847  21556384.093    21556385.7384   21556392.5134
      3228.638        2515.822
  -1075625.897 9   -822440.97946  24066462.962    24066466.4584   24066474.7894
      3330.373        2595.096
 -20216181.959 9 -15733577.53548  21311606.148    21311608.0374   21311613.6804
      2956.529        2303.789
    567748.272 9    457837.59447  23206188.166    23206189.8364   23206197.1384
     -1848.556       -1440.433
 96 11 19 17 53 29.9980000  0  8 21  3 23  1 15 29 25 31            -0.001803877
   1091350.586 9    853171.62348  20980571.323    20980573.0214   20980579.0154
     -1077.604        -839.691
  13626513.475 8  10617447.21146  24065937.720    24065940.2514   24065949.0514
     -2601.619       -2027.236
  11272472.392 8   8778569.26046  23915754.462    23915756.1054   23915764.1974
     -1973.989       -1538.173
  -3003094.885 9  -2328428.62849  20368773.907    20368775.8144   20368781.1794
     -1248.335        -972.729
 -16628386.610 9 -12942425.32347  21537986.560    21537988.5024   21537995.1244
      3216.636        2506.470
  -1175457.282 9   -900231.62246  24047466.149    24047469.2434   24047477.4054
      3325.162        2591.035
 -20304699.542 9 -15802552.27148  21294761.745    21294763.6974   21294769.3034
      2944.633        2294.519
    623323.103 9    501142.57247  23216763.661    23216765.3814   23216772.6924
     -1856.528       -1446.645
 96 11 19 17 53 59.9980000  0  8 21  3 23  1 15 29 25 31            -0.001811964
   1123799.607 9    878456.54248  20986746.048    20986747.8864   20986753.8204
     -1085.974        -846.214
  13704546.368 9  10678252.01146  24080786.922    24080789.4634   24080798.2754
     -2600.793       -2026.592
  11331741.380 8   8824752.78446  23927032.078    23927034.5924   23927042.7884
     -1977.733       -1541.091
  -2965506.297 9  -2299138.84649  20375926.896    20375928.7174   20375934.0724
     -1257.959        -980.228
 -16724708.237 9 -13017481.11647  21519656.900    21519659.0794   21519665.7484
      3204.430        2496.958
  -1275134.452 9   -977902.07846  24028498.124    24028501.2124   24028509.4324
      3319.617        2586.715
 -20392857.998 9 -15871247.17248  21277985.558    21277987.7434   21277993.2954
      2932.173        2284.810
    679140.856 9    544636.83447  23227385.587    23227387.2794   23227394.5284
     -1865.183       -1453.389
 96 11 19 17 54 29.9980000  0  8 21  3 23  1 15 29 25 31            -0.001820020
   1156482.725 9    903923.87748  20992965.327    20992967.3134   20992973.1794
     -1093.566        -852.129
  13782538.641 8  10739025.11546  24095628.713    24095631.1104   24095639.9844
     -2599.158       -2025.318
  11391120.796 8   8871022.35046  23938331.219    23938334.0214   23938342.3444
     -1981.431       -1543.972
  -2927639.373 9  -2269632.17849  20383132.681    20383134.5964   20383139.9234
     -1267.161        -987.398
 -16820674.453 9 -13092259.98047  21501395.362    21501397.2754   21501403.8674
      3192.652        2487.781
  -1374660.539 9  -1055454.88546  24009558.799    24009562.0684   24009570.1744
      3314.831        2582.985
 -20480648.064 9 -15939655.01248  21261279.854    21261281.8684   21261287.4094
      2919.893        2275.241
    735211.770 9    588328.39247  23238055.548    23238057.3184   23238064.4614
     -1873.473       -1459.849
 96 11 19 17 54 59.9980000  0  8 21  3 23  1 15 29 25 31            -0.001828129
   1189413.198 9    929583.95448  20999231.934    20999233.8004   20999239.6914
     -1101.932        -858.648
  13860490.348 8  10799766.65745  24110462.329    24110464.7484   24110473.8114
     -2597.706       -2024.186
  11450625.130 8   8917389.28146  23949655.189    23949657.2724   23949665.7574
     -1985.678       -1547.282
  -2889473.145 9  -2239892.28449  20390395.587    20390397.4124   20390402.7384
     -1277.286        -995.288
 -16916269.881 9 -13166749.89448  21483204.100    21483206.1324   21483212.7714
      3180.226        2478.098
  -1474018.739 9  -1132876.83446  23990651.740    23990654.8794   23990662.7474
      3309.012        2578.451
 -20568054.073 9 -16007763.59148  21244647.049    21244649.0344   21244654.5844
      2907.191        2265.344
    791552.980 9    632230.58147  23248776.887    23248778.7304   23248785.8554
     -1882.831       -1467.141
 96 11 19 17 55 29.9980000  0  8 21  3 23  1 15 29 25 31            -0.001836241
   1222588.202 9    955434.57448  21005544.983    21005546.8184   21005552.7584
     -1109.741        -864.733
  13938379.798 8  10860459.61546  24125284.211    24125286.5854   24125295.7014
     -2594.802       -2021.924
  11510245.620 9   8963846.72446  23960999.982    23961002.7044   23961011.0794
     -1989.187       -1550.016
  -2851021.274 9  -2209929.80949  20397712.497    20397714.5414   20397719.8954
     -1286.102       -1002.157
 -17011500.499 9 -13240955.56947  21465082.657    21465084.4054   21465090.9044
      3168.438        2468.913
  -1573210.910 9  -1210169.44146  23971776.358    23971779.3524   23971787.0694
      3303.856        2574.433
 -20655101.915 9 -16075593.07348  21228082.339    21228084.3734   21228089.9324
      2895.923        2256.563
    848164.427 9    676343.34247  23259549.715    23259551.4394   23259558.6814
     -1891.179       -1473.646
 96 11 19 17 55 59.9980000  0  8 21  3 23  1 15 29 25 31            -0.001844348
   1256000.067 9    981469.76048  21011903.108    21011904.9394   21011910.9034
     -1117.869        -871.067
  14016178.692 8  10921082.09146  24140089.006    24140091.3264   24140100.4894
     -2591.889       -2019.654
  11569985.398 9   9010397.09446  23972368.521    23972371.0114   23972379.3824
     -1993.716       -1553.545
  -2812301.959 9  -2179758.93848  20405080.697    20405082.6114   20405087.9384
     -1295.328       -1009.346
 -17106370.647 9 -13314880.34547  21447029.142    21447031.1934   21447037.7744
      3156.119        2459.314
  -1672239.495 9  -1287334.57146  23952931.910    23952934.7924   23952942.5044
      3297.955        2569.835
 -20741809.090 9 -16143157.10148  21211582.237    21211584.5474   21211590.0994
      2884.473        2247.641
    905024.294 9    720649.63547  23270370.344    23270371.8314   23270378.7324
     -1899.585       -1480.196
 96 11 19 17 56 29.9980000  0  8 21  3 23  1 15 29 25 31            -0.001852442
   1289659.996 9   1007698.24348  21018308.617    21018310.2064   21018316.2224
     -1126.464        -877.764
  14093889.889 8  10981636.17946  24154876.966    24154879.3954   24154888.6584
     -2588.955       -2017.368
  11629857.368 8   9057050.55246  23983762.732    23983764.3844   23983772.6214
     -1997.847       -1556.764
  -2773309.143 9  -2149374.93948  20412500.765    20412502.6764   20412508.0134
     -1304.280       -1016.322
 -17200871.092 9 -13388517.04847  21429046.483    21429048.3454   21429054.8514
      3143.728        2449.658
  -1771092.849 9  -1364363.13246  23934120.877    23934123.5884   23934131.3204
      3292.042        2565.227
 -20828166.462 9 -16210448.55448  21195148.832    21195151.2864   21195156.8484
      2872.539        2238.342
    962125.735 9    765144.23047  23281236.500    23281237.7524   23281245.0154
     -1907.361       -1486.255
 96 11 19 17 56 59.9980000  0  8 21  3 23  1 15 29 25 31            -0.001860526
   1323587.043 9   1034134.87548  21024764.715    21024766.3244   21024772.3534
     -1135.212        -884.581
  14171504.434 8  11042114.91846  24169646.833    24169649.1264   24169658.1954
     -2585.344       -2014.554
  11689846.434 9   9103795.19546  23995178.414    23995179.9674   23995188.3654
     -2001.432       -1559.557
  -2734054.476 9  -2118786.90548  20419970.652    20419972.5854   20419977.9614
     -1312.567       -1022.779
 -17294997.870 9 -13461862.56847  21411134.592    21411136.4774   21411143.1374
      3131.463        2440.101
  -1869763.455 9  -1441249.34646  23915344.316    23915347.2134   23915354.8704
      3286.157        2560.642
 -20914166.187 9 -16277461.31648  21178783.716    21178786.0354   21178791.6524
      2860.829        2229.217
   1019457.294 9    809818.09547  23292146.323    23292147.6374   23292154.7474
     -1914.777       -1492.034
 96 11 19 17 57 29.9980000  0  8 21  3 23  1 15 29 25 31            -0.001868593
   1357785.485 9   1060782.97748  21031272.495    21031274.1004   21031280.1304
     -1143.808        -891.279
  14249015.587 8  11102513.16246  24184396.439    24184398.7964   24184408.0304
     -2581.488       -2011.549
  11749955.747 8   9150633.54646  24006617.385    24006618.5404   24006626.8084
     -2005.151       -1562.455
  -2694549.871 9  -2088004.11848  20427487.993    20427490.0404   20427495.4734
     -1320.540       -1028.992
 -17388746.043 9 -13534913.08547  21393295.054    21393296.7954   21393303.4684
      3119.093        2430.462
  -1968253.288 9  -1517994.69146  23896602.246    23896605.1624   23896612.7074
      3280.535        2556.261
 -20999805.864 9 -16344193.52248  21162487.265    21162489.3504   21162494.9874
      2848.978        2219.983
   1077014.870 9    854668.07947  23303098.502    23303100.5194   23303107.6494
     -1921.800       -1497.506
 96 11 19 17 57 59.9980000  0  8 21  3 23  1 15 29 25 31            -0.001876629
   1392249.039 9   1087637.66548  21037830.717    21037832.3464   21037838.3444
     -1153.029        -898.464
  14326429.531 8  11162835.64846  24199128.180    24199130.4084   24199139.6704
     -2578.942       -2009.565
  11810192.350 8   9197571.09446  24018080.053    24018081.2624   24018089.4334
     -2009.877       -1566.138
  -2654784.564 9  -2057018.18348  20435055.148    20435057.1184   20435062.5564
     -1329.685       -1036.118
 -17482111.783 9 -13607665.59547  21375527.992    21375529.8084   21375536.5294
      3105.990        2420.252
  -2066568.903 9  -1594604.27146  23877893.313    23877896.2374   23877903.8554
      3274.645        2551.671
 -21085069.464 9 -16410632.68248  21146262.021    21146264.2054   21146269.8794
      2835.927        2209.813
   1134797.510 9    899693.46446  23314094.253    23314096.3264   23314103.3794
     -1929.818       -1503.754
 96 11 19 17 58 29.9980000  0  8 21  3 23  1 15 29 25 31            -0.001884642
   1426997.422 9   1114714.30048  21044443.107    21044444.7934   21044450.7664
     -1163.303        -906.470
  14403772.087 8  11223102.45146  24213846.217    24213848.2644   24213857.5304
     -2576.995       -2008.048
  11870567.491 9   9244616.55546  24029569.281    24029570.1694   24029578.6714
     -2015.047       -1570.166
  -2614747.339 9  -2025820.36048  20442673.888    20442675.9314   20442681.4124
     -1339.428       -1043.710
 -17575081.776 9 -13680109.74347  21357836.380    21357838.2064   21357844.7964
      3092.154        2409.471
  -2164714.752 9  -1671081.52046  23859216.917    23859219.5824   23859227.3714
      3268.513        2546.893
 -21169935.275 9 -16476761.87148  21130112.488    21130114.7704   21130120.4324
      2821.950        2198.922
   1192822.825 9    944907.93646  23325135.928    23325138.0334   23325145.2814
     -1938.585       -1510.586
 96 11 19 17 58 59.9980000  0  8 21  3 23  1 15 29 25 31            -0.001892650
   1462019.032 9   1142003.83248  21051107.685    21051109.2354   21051115.2124
     -1171.673        -912.992
  14481026.255 8  11283300.43046  24228547.413    24228549.2564   24228558.5054
     -2573.590       -2005.395
  11931079.637 8   9291768.84246  24041082.864    24041085.2464   24041093.8634
     -2019.638       -1573.744
  -2574434.022 9  -1994407.40449  20450345.306    20450347.3574   20450352.8024
     -1348.480       -1050.764
 -17667659.288 9 -13752248.04948  21340219.655    21340221.3414   21340227.9694
      3079.345        2399.490
  -2262703.087 9  -1747436.08146  23840570.293    23840572.9654   23840580.8834
      3263.726        2543.163
 -21254410.115 9 -16542586.41248  21114037.168    21114039.7034   21114045.3834
      2809.312        2189.074
   1251090.302 9    990311.08246  23336224.039    23336226.0894   23336233.3984
     -1946.409       -1516.682
 96 11 19 17 59 29.9980000  0  8 21  3 23  1 15 29 25 31            -0.001900697
   1497287.910 9   1169486.04648  21057819.015    21057820.7094   21057826.7314
     -1179.603        -919.171
  14558185.303 8  11343424.28446  24243230.362    24243232.1434   24243241.2844
     -2570.293       -2002.826
  11991747.178 8   9339042.15846  24052628.188    24052630.0374   24052638.5964
     -2024.638       -1577.640
  -2533836.101 9  -1962772.68149  20458070.937    20458072.9174   20458078.3304
     -1357.907       -1058.109
 -17759845.929 9 -13824081.76548  21322677.014    21322678.7324   21322685.4454
      3066.478        2389.463
  -2360539.935 9  -1823672.55646  23821952.777    23821955.2924   23821963.2024
      3258.765        2539.297
 -21338494.492 9 -16608106.70048  21098036.701    21098039.0034   21098044.6184
      2796.349        2178.973
   1309598.505 9   1035901.85047  23347357.771    23347359.7974   23347367.2374
     -1954.027       -1522.618
 96 11 19 17 59 59.9980000  0  8 21  3 23  1 15 29 25 31            -0.001908783
   1532803.596 9   1197160.57348  21064577.309    21064579.1074   21064585.2144
     -1188.145        -925.827
  14635255.570 8  11403478.98046  24257896.300    24257898.2264   24257907.4004
     -2567.679       -2000.789
  12052557.467 8   9386426.74446  24064200.243    24064201.9434   24064210.3274
     -2029.260       -1581.242
  -2492956.328 9  -1930918.33149  20465850.177    20465852.1214   20465857.5304
     -1367.139       -1065.303
 -17851643.604 9 -13895612.41348  21305208.631    21305210.1964   21305216.8544
      3053.354        2379.237
  -2458227.169 9  -1899792.42446  23803363.386    23803365.9764   23803374.0234
      3253.639        2535.303
 -21422182.047 9 -16673317.77448  21082111.548    21082113.7974   21082119.3674
      2782.849        2168.454
   1368334.506 9   1081670.10147  23358535.170    23358536.9534   23358544.2424
     -1961.708       -1528.604
 96 11 19 18  0 29.9980000  0  8 21  3 23  1 15 29 25 31            -0.001916897
   1568567.079 9   1225028.19248  21071382.801    21071384.6564   21071390.8114
     -1196.143        -932.059
  14712228.593 8  11463457.87146  24272543.786    24272545.6814   24272555.0034
     -2563.849       -1997.804
  12113481.638 8   9433900.01346  24075792.818    24075795.4184   24075803.9924
     -2032.426       -1583.709
  -2451821.655 9  -1898865.35448  20473677.815    20473679.7964   20473685.1984
     -1375.353       -1071.704
 -17943055.102 9 -13966842.15348  21287813.499    21287815.2024   21287821.8014
      3040.683        2369.363
  -2555766.734 8  -1975797.25846  23784802.081    23784804.6924   23784812.7484
      3248.776        2531.514
 -21505469.812 9 -16738217.32148  21066262.215    21066264.6594   21066270.2324
      2769.679        2158.191
   1427283.816 9   1127604.58947  23369752.863    23369754.7614   23369761.9824
     -1968.294       -1533.736
 96 11 19 18  0 59.9980000  0  8 21  3 23  1 15 29 25 31            -0.001925038
   1604580.944 9   1253090.91548  21078236.193    21078237.8674   21078244.0464
     -1204.947        -938.920
  14789095.518 9  11523354.07546  24287171.003    24287172.8104   24287182.2324
     -2560.849       -1995.467
  12174509.674 8   9481454.28846  24087406.901    24087408.8494   24087417.0854
     -2036.095       -1586.568
  -2410430.807 9  -1866612.76448  20481554.233    20481556.2464   20481561.6124
     -1383.932       -1078.389
 -18034076.286 9 -14037767.73748  21270492.485    21270494.4434   21270501.0434
      3027.365        2358.986
  -2653147.869 9  -2051678.57046  23766270.698    23766273.5484   23766281.7354
      3243.197        2527.166
 -21588352.563 9 -16802801.27648  21050490.221    21050492.5354   21050498.1434
      2755.722        2147.316
   1486432.524 9   1173694.39747  23381008.832    23381010.5904   23381017.7904
     -1974.849       -1538.843
 96 11 19 18  1 29.9980000  0  8 21  3 23  1 15 29 25 31            -0.001933182
   1640878.042 9   1281374.33748  21085143.334    21085144.9754   21085151.1804
     -1214.843        -946.631
  14865881.826 9  11583187.48146  24301782.886    24301784.9374   24301794.2244
     -2558.117       -1993.338
  12235637.638 8   9529086.39346  24099038.680    24099041.1374   24099049.3644
     -2038.839       -1588.706
  -2368784.998 9  -1834161.49949  20489479.313    20489481.2564   20489486.5874
     -1392.250       -1084.870
 -18124694.995 9 -14108379.70648  21253248.434    21253250.3224   21253256.9024
      3013.995        2348.568
  -2750356.964 9  -2127425.87947  23747772.560    23747775.3314   23747783.5944
      3237.522        2522.744
 -21670808.269 9 -16867052.45448  21034799.293    21034801.6914   21034807.3474
      2741.588        2136.302
   1545774.349 9   1219934.74146  23392301.337    23392302.9724   23392310.2894
     -1981.240       -1543.823
 96 11 19 18  1 59.9980000  0  8 21  3 23  1 15 29 25 31            -0.001941301
   1677472.370 9   1309889.36948  21092107.052    21092108.6884   21092114.8844
     -1224.864        -954.439
  14942576.796 9  11642949.70846  24316377.867    24316379.7094   24316388.9344
     -2554.922       -1990.848
  12296842.194 8   9576778.18846  24110685.009    24110687.9784   24110696.3494
     -2041.691       -1590.928
  -2326900.476 9  -1801524.22948  20497449.709    20497451.6464   20497456.9814
     -1400.190       -1091.057
 -18214915.690 9 -14178681.54248  21236080.224    21236082.0094   21236088.4014
      3000.568        2338.105
  -2847397.533 9  -2203041.86946  23729306.346    23729309.1314   23729317.3284
      3231.608        2518.136
 -21752846.690 9 -16930978.47948  21019187.617    21019190.2494   21019196.0054
      2727.694        2125.476
   1605301.373 9   1266319.32246  23403628.484    23403630.3634   23403638.0754
     -1987.544       -1548.736
 96 11 19 18  2 29.9980000  0  8 21  3 23  1 15 29 25 31            -0.001949380
   1714368.930 9   1338639.91048  21099128.143    21099129.8754   21099136.1054
     -1234.455        -961.913
  15019174.156 8  11702635.87846  24330954.127    24330955.9754   24330965.0604
     -2551.062       -1987.841
  12358152.044 8   9624552.02246  24122352.962    24122355.0404   24122363.3374
     -2045.303       -1593.743
  -2284767.266 9  -1768693.17348  20505467.443    20505469.3274   20505474.6764
     -1408.421       -1097.471
 -18304722.835 9 -14248661.11948  21218990.440    21218992.2204   21218998.6314
      2987.016        2327.545
  -2944243.633 9  -2278506.31946  23710877.402    23710879.9934   23710888.1164
      3225.246        2513.179
 -21834471.335 9 -16994582.08448  21003654.983    21003657.5374   21003663.3784
      2714.454        2115.159
   1665027.032 9   1312858.72147  23414993.898    23414995.9134   23415003.5314
     -1993.703       -1553.535
 96 11 19 18  2 59.9980000  0  8 21  3 23  1 15 29 25 31            -0.001957432
   1751544.644 9   1367607.97148  21106202.505    21106204.1814   21106210.4674
     -1243.858        -969.240
  15095656.489 8  11762232.38446  24345508.386    24345510.2974   24345519.2424
     -2547.786       -1985.288
  12419586.045 8   9672422.59546  24134042.912    24134045.5814   24134053.7804
     -2050.140       -1597.512
  -2242381.853 9  -1735665.59348  20513533.058    20513534.9864   20513540.3594
     -1417.164       -1104.284
 -18394122.359 9 -14318323.06448  21201978.116    21201979.9554   21201986.4684
      2972.923        2316.563
  -3040895.294 9  -2353819.32846  23692485.251    23692487.8544   23692495.7514
      3218.264        2507.738
 -21915701.097 9 -17057877.99448  20988197.632    20988200.0274   20988205.8564
      2700.931        2104.622
   1724942.597 9   1359546.10047  23426395.812    23426397.6804   23426405.2174
     -2000.764       -1559.037
 96 11 19 18  3 29.9980000  0  8 21  3 23  1 15 29 25 31            -0.001965474
   1788966.587 9   1396767.89448  21113323.479    21113325.3454   21113331.6924
     -1250.533        -974.441
  15172007.917 8  11821726.94546  24360037.614    24360039.3404   24360048.5404
     -2542.085       -1980.845
  12481134.354 9   9720382.23046  24145754.930    24145757.9004   24145766.0004
     -2052.824       -1599.603
  -2199766.672 9  -1702458.97848  20521642.484    20521644.3814   20521649.7614
     -1423.650       -1109.338
 -18483124.102 9 -14387675.07148  21185041.544    21185043.5084   21185049.9884
      2960.739        2307.069
  -3137366.376 9  -2428991.56446  23674127.623    23674130.0644   23674137.6994
      3213.372        2503.926
 -21996563.727 9 -17120887.82548  20972810.541    20972812.3744   20972818.2064
      2690.346        2096.374
   1785050.851 9   1406383.64047  23437834.326    23437835.8654   23437843.2904
     -2006.331       -1563.375
 96 11 19 18  3 59.9980000  0  8 21  3 23  1 15 29 25 31            -0.001973508
   1826598.104 9   1426091.13148  21120484.581    21120486.4104   21120492.7354
     -1258.341        -980.525
  15248214.659 8  11881108.73046  24374539.204    24374540.9984   24374550.3474
     -2538.633       -1978.156
  12542797.538 9   9768431.40146  24157489.238    24157492.1014   24157500.2194
     -2058.079       -1603.698
  -2156931.312 9  -1669080.78848  20529793.704    20529795.6694   20529801.0704
     -1432.023       -1115.862
 -18571731.273 9 -14456719.61448  21168180.035    21168182.1374   21168188.5564
      2946.367        2295.870
  -3233663.997 9  -2504028.62146  23655802.961    23655805.2074   23655812.7554
      3206.505        2498.575
 -22077092.251 9 -17183637.31648  20957486.136    20957488.3064   20957494.1294
      2678.124        2086.850
   1845354.984 9   1453373.79946  23449310.033    23449311.5024   23449318.7914
     -2013.903       -1569.275
 96 11 19 18  4 29.9980000  0  8 21  3 23  1 15 29 25 31            -0.001981543
   1864454.938 9   1455589.93348  21127688.401    21127690.3904   21127696.6144
     -1265.556        -986.148
  15324319.462 9  11940411.10446  24389021.530    24389023.3014   24389032.7454
     -2534.971       -1975.302
  12604606.037 8   9816593.83046  24169251.995    24169253.9764   24169261.9764
     -2062.422       -1607.082
  -2113852.216 9  -1635512.67948  20537991.408    20537993.3294   20537998.7434
     -1440.036       -1122.106
 -18659912.488 9 -14525432.23448  21151399.617    21151401.7824   21151408.2924
      2932.399        2284.986
  -3329773.646 9  -2578919.21147  23637513.760    23637516.0794   23637523.7454
      3200.984        2494.273
 -22157256.548 9 -17246102.99748  20942231.136    20942233.5214   20942239.3564
      2665.989        2077.394
   1905875.136 9   1500532.31747  23460826.650    23460828.2834   23460835.4834
     -2020.820       -1574.665
 96 11 19 18  4 59.9980000  0  8 21  3 23  1 15 29 25 31            -0.001989593
   1902535.923 9   1485263.40048  21134935.279    21134936.9744   21134943.1864
     -1273.630        -992.439
  15400312.526 8  11999626.38246  24403482.834    24403484.4914   24403493.8994
     -2531.484       -1972.585
  12666534.386 8   9864849.58846  24181036.158    24181038.6944   24181046.7034
     -2066.331       -1610.128
  -2070532.941 9  -1601757.41148  20546234.708    20546236.6874   20546242.1554
     -1448.134       -1128.416
 -18747676.278 9 -14593819.59548  21134698.969    21134700.9184   21134707.4204
      2918.278        2273.983
  -3425733.242 9  -2653692.87247  23619253.186    23619255.6664   23619263.3394
      3196.100        2490.468
 -22237051.102 9 -17308280.55848  20927046.637    20927049.1034   20927054.9294
      2653.305        2067.510
   1966597.349 9   1547848.24546  23472381.783    23472383.2464   23472390.6804
     -2027.607       -1579.954
 96 11 19 18  5 29.9980000  0  8 21  3 23  1 15 29 25 31            -0.001997643
   1940869.754 9   1515133.89048  21142230.187    21142231.6514   21142237.8794
     -1282.196        -999.114
  15476196.769 8  12058756.88346  24417923.231    24417924.8444   24417934.2364
     -2527.603       -1969.561
  12728567.661 8   9913187.10546  24192840.124    24192843.5324   24192851.2784
     -2069.633       -1612.701
  -2026971.360 9  -1567813.33348  20554524.399    20554526.1714   20554531.6794
     -1456.127       -1134.644
 -18835021.027 9 -14661880.42748  21118077.864    21118079.7174   21118086.2704
      2904.500        2263.247
  -3521555.010 9  -2728359.14346  23601018.728    23601021.3234   23601029.0714
      3191.817        2487.130
 -22316468.512 9 -17370164.24448  20911934.107    20911936.4384   20911942.2674
      2640.793        2057.761
   2027509.221 9   1595311.97447  23483972.953    23483974.4134   23483981.9944
     -2033.317       -1584.403
 96 11 19 18  5 59.9980000  0  8 21  3 23  1 15 29 25 31            -0.002005704
   1979467.809 9   1545210.27248  21149574.899    21149576.5874   21149582.8874
     -1291.332       -1006.233
  15551957.759 8  12117791.33946  24432340.302    24432341.8374   24432351.1804
     -2523.249       -1966.168
  12790709.897 9   9961609.54746  24204665.853    24204668.7624   24204676.5224
     -2073.389       -1615.628
  -1983170.368 9  -1533682.69848  20562859.293    20562861.2064   20562866.7594
     -1464.110       -1140.865
 -18921952.609 9 -14729619.31548  21101535.571    21101537.2134   21101543.7694
      2890.675        2252.474
  -3617243.292 9  -2802921.41747  23582810.001    23582812.3704   23582820.2494
      3187.120        2483.470
 -22395488.591 9 -17431738.32148  20896897.551    20896899.4104   20896905.2474
      2626.771        2046.835
   2088581.097 9   1642900.36246  23495594.304    23495596.0404   23495603.6604
     -2038.321       -1588.302
 96 11 19 18  6 29.9970000  0  8 21  3 23  1 15 29 25 31            -0.002013771
   2018357.196 9   1575513.66648  21156975.095    21156977.0124   21156983.3394
     -1300.685       -1013.521
  15627586.169 8  12176722.48046  24446732.000    24446733.5314   24446742.9514
     -2518.003       -1962.080
  12852973.055 8  10010126.23446  24216514.199    24216516.9254   24216524.9024
     -2077.033       -1618.467
  -1939115.266 9  -1499354.06048  20571242.784    20571244.6524   20571250.1814
     -1472.425       -1147.344
 -19008451.543 9 -14797021.07748  21085075.307    21085077.0074   21085083.5754
      2876.718        2241.598
  -3712770.502 9  -2877358.16747  23564632.226    23564634.2194   23564642.0234
      3182.017        2479.494
 -22474061.999 9 -17492964.34448  20881945.481    20881947.3674   20881953.1994
      2612.286        2035.548
   2149808.501 9   1690609.98846  23507245.275    23507247.1284   23507254.8294
     -2043.070       -1592.003
 96 11 19 18  6 59.9970000  0  8 21  3 23  1 15 29 25 31            -0.002021852
   2057525.722 9   1606034.56548  21164428.659    21164430.5464   21164436.9264
     -1310.529       -1021.191
  15703052.182 8  12235527.07946  24461092.683    24461094.2684   24461103.7694
     -2513.197       -1958.335
  12915346.682 8  10058728.95245  24228382.665    24228386.0304   24228394.5864
     -2081.292       -1621.786
  -1894821.028 9  -1464839.08648  20579671.731    20579673.5924   20579679.0814
     -1480.458       -1153.604
 -19094537.634 9 -14864101.14648  21068693.619    21068695.3454   21068701.8814
      2862.271        2230.341
  -3808142.098 9  -2951673.66746  23546483.345    23546485.4754   23546493.2334
      3175.919        2474.742
 -22552207.078 9 -17553856.60248  20867074.972    20867076.8544   20867082.6854
      2597.409        2023.955
   2211174.353 9   1738427.47746  23518922.566    23518924.6294   23518932.2874
     -2048.099       -1595.921
 96 11 19 18  7 29.9970000  0  8 21  3 23  1 15 29 25 31            -0.002029927
   2096979.171 9   1636777.48548  21171936.585    21171938.3124   21171944.6944
     -1319.305       -1028.030
  15778373.979 8  12294219.29146  24475426.352    24475427.6524   24475437.0124
     -2507.958       -1954.253
  12977857.088 8  10107438.27545  24240276.806    24240281.5424   24240290.0754
     -2085.843       -1625.332
  -1850296.269 9  -1430144.48748  20588144.558    20588146.4214   20588151.8474
     -1487.516       -1159.103
 -19180189.494 9 -14930842.84848  21052394.399    21052396.3134   21052402.8534
      2847.994        2219.216
  -3903320.368 9  -3025838.49946  23528371.434    23528373.5514   23528381.2634
      3169.460        2469.709
 -22629909.992 9 -17614404.31548  20852288.301    20852290.5274   20852296.2904
      2582.937        2012.678
   2272690.277 9   1786361.88046  23530628.888    23530630.7744   23530638.5054
     -2052.967       -1599.715
 96 11 19 18  7 59.9970000  0  8 21  3 23  1 15 29 25 31            -0.002038021
   2136689.305 9   1667720.42648  21179493.143    21179494.9404   21179501.3064
     -1328.063       -1034.854
  15853533.269 8  12352784.90646  24489728.763    24489730.0044   24489739.3644
     -2502.749       -1950.194
  13040500.510 8  10156251.27245  24252197.370    24252202.2664   24252210.7104
     -2090.250       -1628.766
  -1805566.317 9  -1395289.99648  20596656.429    20596658.2724   20596663.6784
     -1494.603       -1164.626
 -19265410.305 9 -14997248.67048  21036177.482    21036179.3754   21036185.8814
      2833.301        2207.767
  -3998301.632 9  -3099849.84647  23510297.038    23510299.1844   23510306.8424
      3162.683        2464.428
 -22707172.681 9 -17674608.99448  20837585.594    20837587.9164   20837593.6674
      2567.949        2000.999
   2334362.766 9   1834418.32646  23542365.037    23542366.7914   23542374.5044
     -2058.631       -1604.128
 96 11 19 18  8 29.9970000  0  8 21  3 23  1 15 29 25 31            -0.002046120
   2176663.300 9   1698868.96248  21187100.080    21187101.7724   21187108.1624
     -1336.642       -1041.539
  15928546.069 9  12411236.37646  24504003.136    24504004.4764   24504013.8734
     -2497.864       -1946.388
  13103278.766 8  10205169.32945  24264143.107    24264148.6084   24264157.0744
     -2094.565       -1632.129
  -1760624.546 9  -1360270.45548  20605208.588    20605210.4134   20605215.8254
     -1501.359       -1169.890
 -19350187.249 9 -15063308.61848  21020045.136    21020046.8864   21020053.4054
      2818.808        2196.474
  -4093084.955 9  -3173706.91647  23492260.805    23492262.7094   23492270.2454
      3156.643        2459.722
 -22783992.218 9 -17734468.36748  20822967.363    20822969.6414   20822975.3664
      2553.576        1989.799
   2396206.480 9   1882608.15246  23554133.495    23554135.2554   23554142.9574
     -2064.111       -1608.398
 96 11 19 18  8 59.9970000  0  8 21  3 23  1 15 29 25 31            -0.002054228
   2216899.610 9   1730221.90748  21194756.285    21194758.4664   21194764.9134
     -1345.757       -1048.642
  16003414.162 9  12469575.12646  24518250.045    24518251.4274   24518260.9394
     -2493.279       -1942.815
  13166186.466 8  10254188.16245  24276116.582    24276119.4194   24276128.2874
     -2099.124       -1635.681
  -1715486.184 9  -1325097.72848  20613798.293    20613800.0014   20613805.4034
     -1507.908       -1174.993
 -19434531.472 9 -15129031.38848  21003994.791    21003996.6504   21004003.1054
      2804.231        2185.115
  -4187696.343 9  -3247430.04747  23474256.593    23474258.6414   23474266.2834
      3150.842        2455.202
 -22860380.203 9 -17793991.46048  20808431.062    20808433.4624   20808439.1764
      2539.084        1978.507
   2458219.122 9   1930929.61246  23565933.972    23565935.8574   23565943.7064
     -2069.951       -1612.949
 96 11 19 18  9 29.9970000  0  8 21  3 23  1 15 29 25 31            -0.002062330
   2257405.857 9   1761785.19448  21202464.357    21202466.5514   21202473.0314
     -1354.858       -1055.734
  16078135.285 8  12527799.31146  24532469.189    24532470.4894   24532480.0494
     -2488.185       -1938.845
  13229217.667 8  10303303.29545  24288112.082    24288113.9984   24288122.6614
     -2102.941       -1638.655
  -1670140.974 9  -1289763.81548  20622427.176    20622428.9554   20622434.3374
     -1515.257       -1180.720
 -19518443.361 9 -15194417.27648  20988026.954    20988028.7114   20988035.1904
      2789.698        2173.791
  -4282131.379 9  -3321015.72046  23456285.676    23456288.0854   23456295.8354
      3144.685        2450.404
 -22936335.199 9 -17853177.16148  20793977.117    20793979.6944   20793985.4254
      2524.469        1967.119
   2520397.870 9   1979380.53546  23577766.394    23577768.1944   23577776.1284
     -2075.426       -1617.215
 96 11 19 18  9 59.9970000  0  8 21  3 23  1 15 29 25 31            -0.002070422
   2298201.964 9   1793574.33648  21210227.823    21210229.8174   21210236.2654
     -1364.697       -1063.400
  16152714.838 8  12585913.16846  24546661.225    24546662.4354   24546672.1494
     -2483.763       -1935.400
  13292365.953 8  10352509.66445  24300129.354    24300130.7934   24300139.2924
     -2106.750       -1641.623
  -1624554.204 9  -1254241.67848  20631101.870    20631103.8154   20631109.2384
     -1523.796       -1187.374
 -19601907.460 9 -15259454.23848  20972144.153    20972146.0234   20972152.5044
      2774.728        2162.126
  -4376375.465 9  -3394452.62946  23438351.213    23438353.9514   23438361.7624
      3138.456        2445.550
 -23011841.390 9 -17912013.14148  20779608.938    20779611.3564   20779617.0914
      2509.595        1955.529
   2582738.573 9   2027957.66746  23589629.504    23589631.3274   23589639.2544
     -2080.352       -1621.053
 96 11 19 18 10 29.9970000  0  7 21 23  1 15 29 25 31               -0.002078504
   2339281.740 9   1825584.52948  21218045.114    21218047.0844   21218053.4824
     -1374.120       -1070.743
  13355618.818 8  10401797.49645  24312164.723    24312167.5604   24312176.1754
     -2110.235       -1644.339
  -1578716.683 9  -1218524.14848  20639824.610    20639826.4254   20639831.8914
     -1532.183       -1193.909
 -19684931.177 9 -15324148.02948  20956345.160    20956347.1554   20956353.6764
      2760.052        2150.690
  -4470439.476 9  -3467749.25646  23420451.136    23420454.0194   23420462.0034
      3132.318        2440.767
 -23086920.811 9 -17970516.57248  20765321.767    20765324.1824   20765329.9474
      2495.636        1944.651
   2645210.887 9   2076637.26946  23601517.491    23601519.3294   23601527.3294
     -2084.674       -1624.421
 96 11 19 18 10 59.9970000  0  7 21 23  1 15 29 25 31               -0.002086554
   2380646.061 9   1857816.44248  21225916.483    21225918.4894   21225924.8534
     -1383.469       -1078.028
  13418977.938 8  10451168.12745  24324221.434    24324224.4554   24324233.1644
     -2113.657       -1647.005
  -1532624.108 9  -1182607.87748  20648595.725    20648597.5834   20648603.0364
     -1540.584       -1200.455
 -19767507.582 9 -15388493.27148  20940631.282    20940633.3104   20940639.9204
      2744.955        2138.926
  -4564302.488 9  -3540889.18447  23402589.732    23402592.4694   23402600.4234
      3125.157        2435.187
 -23161584.192 9 -18028695.81348  20751113.410    20751116.1684   20751121.9774
      2481.966        1933.999
   2707816.350 9   2125420.69846  23613430.897    23613432.5724   23613440.7294
     -2089.049       -1627.830
 96 11 19 18 11 29.9970000  0  7 21 23  1 15 29 25 31               -0.002094589
   2422270.870 9   1890251.33348  21233837.459    21233839.4724   21233845.8094
     -1391.044       -1083.930
  13482420.798 8  10500604.02045  24336295.873    24336297.4744   24336305.8374
     -2115.561       -1648.489
  -1486294.801 9  -1146507.14148  20657411.801    20657413.7574   20657419.2114
     -1547.513       -1205.854
 -19849638.457 9 -15452491.36148  20925002.490    20925004.3464   20925011.0174
      2730.750        2127.857
  -4657963.456 9  -3613871.77847  23384766.726    23384769.5074   23384777.2284
      3119.505        2430.783
 -23235850.258 9 -18086565.46448  20736981.158    20736983.8074   20736989.6234
      2469.446        1924.244
   2770530.486 9   2174288.81946  23625365.366    23625366.8254   23625374.7024
     -2091.740       -1629.927
 96 11 19 18 11 59.9970000  0  7 21 23  1 15 29 25 31               -0.002102622
   2464141.008 9   1922877.39148  21241805.146    21241807.0974   21241813.4614
     -1399.934       -1090.858
  13545951.348 8  10550108.21145  24348384.106    24348387.0644   24348395.3714
     -2119.548       -1651.596
  -1439748.021 9  -1110236.93948  20666269.468    20666271.3024   20666276.7594
     -1555.160       -1211.813
 -19931317.725 9 -15516137.54248  20909459.240    20909461.2234   20909467.9234
      2714.942        2115.539
  -4751443.531 9  -3686713.36547  23366978.126    23366980.9744   23366988.3434
      3113.010        2425.722
 -23309720.396 9 -18144126.59548  20722924.431    20722926.8024   20722932.6174
      2455.486        1913.366
   2833358.891 9   2223245.97246  23637321.540    23637322.8694   23637330.6194
     -2096.550       -1633.675
 96 11 19 18 12 29.9970000  0  7 21 23  1 15 29 25 31               -0.002110643
   2506267.374 9   1955703.10348  21249821.755    21249823.5204   21249829.8594
     -1408.459       -1097.501
  13609593.909 8  10599699.74345  24360493.812    24360497.8084   24360506.2634
     -2123.381       -1654.582
  -1392996.146 9  -1073806.91948  20675166.041    20675167.8704   20675173.3344
     -1561.480       -1216.738
 -20012539.249 9 -15579427.03948  20894003.215    20894005.3624   20894011.9794
      2699.849        2103.778
  -4844743.696 9  -3759414.76547  23349223.639    23349226.4214   23349233.8314
      3107.059        2421.085
 -23383180.305 9 -18201368.07148  20708945.150    20708947.8744   20708953.6334
      2441.623        1902.563
   2896328.351 9   2272312.99346  23649303.745    23649305.6384   23649313.4224
     -2101.509       -1637.539
 96 11 19 18 12 59.9970000  0  7 21 23  1 15 29 25 31               -0.002118668
   2548649.384 9   1988728.01048  21257887.067    21257888.6254   21257894.9284
     -1416.648       -1103.881
  13673358.921 8  10649386.65345  24372627.311    24372631.7654   24372640.4904
     -2127.279       -1657.620
  -1346056.027 9  -1037230.21748  20684098.335    20684100.2564   20684105.7554
     -1567.462       -1221.399
 -20093300.655 9 -15642358.00348  20878635.152    20878637.0764   20878643.5744
      2684.557        2091.863
  -4937862.914 9  -3831975.17647  23331503.776    23331506.3404   23331513.7874
      3101.359        2416.643
 -23456203.859 9 -18258269.52548  20695049.475    20695051.9724   20695057.6894
      2426.845        1891.048
   2959450.242 9   2321498.78946  23661315.069    23661317.1784   23661325.2044
     -2106.339       -1641.303
 96 11 19 18 13 29.9970000  0  7 21 23  1 15 29 25 31               -0.002126707
   2591294.914 9   2021958.26248  21266002.606    21266003.8864   21266010.1364
     -1425.125       -1110.487
  13737269.236 8  10699186.74945  24384789.633    24384793.6744   24384802.2934
     -2132.122       -1661.394
  -1298910.033 9  -1000493.09148  20693070.040    20693071.8684   20693077.3584
     -1574.295       -1226.723
 -20173584.465 9 -15704916.80748  20863357.640    20863359.5864   20863366.0584
      2669.041        2079.772
  -5030805.848 9  -3904398.20647  23313817.817    23313819.9884   23313827.2394
      3096.133        2412.571
 -23528759.224 9 -18314806.15548  20681242.930    20681245.1164   20681250.8734
      2411.559        1879.137
   3022740.335 9   2370815.73446  23673358.968    23673360.9984   23673368.7074
     -2111.833       -1645.584
 96 11 19 18 13 59.9970000  0  7 21 23  1 15 29 25 31               -0.002134767
   2634188.663 9   2055381.94448  21274164.716    21274166.3074   21274172.6114
     -1434.203       -1117.561
  13801318.782 8  10749095.43945  24396976.351    24396981.8284   24396990.3794
     -2137.463       -1665.556
  -1251565.577 9   -963601.32448  20702079.479    20702081.2624   20702086.7474
     -1581.671       -1232.471
 -20253414.435 9 -15767121.98148  20848166.643    20848168.4044   20848174.8894
      2653.390        2067.577
  -5123598.061 9  -3976703.80047  23296160.193    23296162.2004   23296169.4674
      3090.302        2408.028
 -23600865.659 9 -18370992.96748  20667521.513    20667523.6974   20667529.4624
      2395.799        1866.856
   3086187.286 9   2420254.85346  23685432.686    23685434.5394   23685442.4154
     -2117.330       -1649.868
 96 11 19 18 14 29.9970000  0  7 21 23  1 15 29 25 31               -0.002142848
   2677344.303 9   2089009.69148  21282376.859    21282378.5654   21282384.9284
     -1443.428       -1124.749
  13865518.771 8  10799121.30145  24409192.196    24409198.7924   24409207.1564
     -2143.190       -1670.018
  -1204002.042 9   -926538.83648  20711130.428    20711132.3494   20711137.7984
     -1589.840       -1238.836
 -20332783.679 9 -15828968.13348  20833063.197    20833064.9374   20833071.3984
      2637.175        2054.941
  -5216218.541 9  -4048875.60147  23278534.780    23278537.0784   23278544.2494
      3083.661        2402.853
 -23672498.159 9 -18426810.47348  20653890.272    20653892.4684   20653898.2364
      2379.054        1853.808
   3149775.853 9   2469804.26546  23697533.536    23697535.2514   23697543.1054
     -2122.499       -1653.895
 96 11 19 18 14 59.9970000  0  6 21  1 15 29 25 31                  -0.002150960
   2720748.841 9   2122831.38348  21290636.869    21290638.1684   21290644.5854
     -1450.273       -1130.083
  -1156210.617 9   -889298.77748  20720224.856    20720226.7614   20720232.2144
     -1596.055       -1243.679
 -20411680.554 9 -15890446.21148  20818049.553    20818051.3734   20818057.8624
      2622.810        2043.748
  -5308654.344 9  -4120903.49047  23260944.283    23260947.1024   23260954.3894
      3079.028        2399.243
 -23743654.172 9 -18482256.69848  20640349.841    20640351.8914   20640357.6504
      2365.055        1842.900
   3213493.228 9   2519454.10546  23709658.828    23709660.2674   23709668.0764
     -2125.117       -1655.935
 96 11 19 18 15 29.9970000  0  6 21  1 15 29 25 31                  -0.002159096
   2764392.487 9   2156839.39748  21298941.795    21298943.2974   21298949.7124
     -1459.584       -1137.338
  -1108211.053 9   -851896.53548  20729358.846    20729360.7594   20729366.2664
     -1603.978       -1249.853
 -20490126.258 9 -15951572.70948  20803121.629    20803123.5484   20803130.1284
      2606.718        2031.209
  -5400935.207 9  -4192810.62147  23243383.894    23243386.5894   23243393.8564
      3072.738        2394.341
 -23814376.410 9 -18537364.90948  20626891.896    20626893.8394   20626899.6394
      2349.428        1830.723
   3277304.286 9   2569176.98446  23721801.846    23721803.2454   23721810.9704
     -2129.224       -1659.136
 96 11 19 18 15 59.9970000  0  6 21  1 15 29 25 31                  -0.002167240
   2808312.497 9   2191062.74948  21307299.303    21307301.0144   21307307.4014
     -1468.836       -1144.548
  -1059998.862 9   -814328.60648  20738533.333    20738535.2484   20738540.7544
     -1610.468       -1254.910
 -20568098.943 9 -16012330.62848  20788283.783    20788285.8264   20788292.3764
      2591.058        2019.006
  -5493034.337 9  -4264576.15647  23225858.218    23225860.6844   23225867.9914
      3066.836        2389.742
 -23884630.536 9 -18592108.35648  20613522.856    20613524.9134   20613530.7084
      2333.791        1818.538
   3341218.950 9   2618980.56646  23733964.188    23733965.9594   23733973.5264
     -2132.162       -1661.425
 96 11 19 18 16 29.9970000  0  6 21  1 15 29 25 31                  -0.002175386
   2852512.397 9   2225504.20648  21315710.154    21315711.9774   21315718.3984
     -1477.876       -1151.592
  -1011596.368 9   -776612.38548  20747743.977    20747745.9334   20747751.4474
     -1616.429       -1259.555
 -20645596.361 9 -16072718.21048  20773536.650    20773538.5264   20773545.0424
      2575.369        2006.781
  -5584945.802 9  -4336195.39547  23208368.260    23208370.5354   23208377.8514
      3060.670        2384.938
 -23954416.300 9 -18646486.84448  20600242.549    20600245.0854   20600250.8954
      2318.799        1806.856
   3405229.951 9   2668859.17546  23746145.120    23746146.8684   23746154.5794
     -2135.474       -1664.006
 96 11 19 18 16 59.9970000  0  6 21  1 15 29 25 31                  -0.002183519
   2896988.729 9   2260161.06548  21324173.403    21324175.4894   21324182.0204
     -1487.447       -1159.050
   -963023.023 9   -738763.03748  20756987.234    20756989.1294   20756994.6574
     -1622.007       -1263.902
 -20722623.084 9 -16132739.02248  20758878.814    20758880.8114   20758887.4174
      2559.632        1994.518
  -5676678.842 9  -4407675.67647  23190912.112    23190914.3874   23190921.6324
      3054.852        2380.404
 -24023768.729 9 -18700527.67048  20587045.215    20587047.7344   20587053.5464
      2304.536        1795.742
   3469342.458 9   2718816.92246  23758345.499    23758347.1344   23758354.9634
     -2138.770       -1666.574
 96 11 19 18 17 29.9970000  0  6 21  1 15 29 25 31                  -0.002191629
   2941760.693 9   2295048.28748  21332692.813    21332695.2864   21332701.9124
     -1496.937       -1166.444
   -914268.711 9   -700772.66948  20766264.830    20766266.7614   20766272.3504
     -1628.133       -1268.675
 -20799168.567 9 -16192384.83848  20744312.640    20744314.6474   20744321.2804
      2543.533        1981.974
  -5768236.231 9  -4479019.07347  23173488.745    23173491.3734   23173498.8724
      3048.971        2375.822
 -24092678.025 9 -18754223.20148  20573932.347    20573934.7134   20573940.4914
      2289.486        1784.015
   3533561.737 9   2768857.83146  23770565.449    23770567.4994   23770575.4974
     -2142.417       -1669.416
 96 11 19 18 17 59.9970000  0  7 21 30  1 15 29 25 31               -0.002199732
   2986798.353 9   2330142.54348  21341263.236    21341265.6934   21341272.3404
     -1505.902       -1173.430
  -3171359.56718  -2461315.30556  24534575.974    24534577.6555   24534586.0695
      2105.540        1640.681
   -865338.314 9   -662645.09848  20775576.082    20775577.9454   20775583.5484
     -1634.397       -1273.556
 -20875235.457 9 -16251657.72548  20729837.822    20729839.5864   20729846.2354
      2527.094        1969.164
  -5859609.605 9  -4550219.05147  23156101.190    23156103.6804   23156111.0274
      3042.176        2370.527
 -24161141.054 9 -18807570.98848  20560904.408    20560906.6294   20560912.3234
      2274.343        1772.215
   3597881.413 9   2818976.96746  23782805.294    23782807.3404   23782815.1954
     -2146.118       -1672.300
 96 11 19 18 18 29.9970000  0  7 21 30  1 15 29 25 31               -0.002207830
   3032082.698 9   2365429.02048  21349880.982    21349883.0824   21349889.6544
     -1513.585       -1179.417
  -3234392.896 9  -2510432.13446  24522581.487    24522582.9384   24522590.7944
      2096.109        1633.332
   -816223.323 9   -624373.68948  20784922.440    20784924.2594   20784929.8674
     -1640.634       -1278.416
 -20950817.266 9 -16310552.63548  20715455.100    20715456.8804   20715463.5224
      2511.156        1956.745
  -5950787.798 9  -4621266.95047  23138750.739    23138753.0674   23138760.3384
      3036.030        2365.738
 -24229168.214 9 -18860579.13948  20547959.316    20547961.5204   20547967.1494
      2260.176        1761.176
   3662305.161 9   2869177.22646  23795064.861    23795066.9144   23795074.6184
     -2149.317       -1674.792
 96 11 19 18 18 59.9970000  0  7 21 30  1 15 29 25 31               -0.002215942
   3077597.754 9   2400895.27448  21358542.627    21358544.3634   21358550.8674
     -1521.393       -1185.501
  -3297141.353 8  -2559326.97145  24510641.442    24510642.0334   24510650.0034
      2086.573        1625.901
   -766915.931 9   -585952.35948  20794305.251    20794307.1764   20794312.7644
     -1647.067       -1283.429
 -21025917.165 9 -16369072.01948  20701163.779    20701165.7824   20701172.4754
      2494.876        1944.059
  -6041793.522 9  -4692180.44647  23121432.766    23121435.1374   23121442.4054
      3030.311        2361.281
 -24296758.139 9 -18913246.59348  20535097.113    20535099.6104   20535105.2154
      2244.895        1749.269
   3726819.642 9   2919448.18946  23807341.755    23807343.6534   23807351.4364
     -2152.245       -1677.074
 96 11 19 18 19 29.9970000  0  7 21 30  1 15 29 25 31               -0.002224088
   3123350.005 9   2436546.35147  21367248.866    21367250.7404   21367257.2134
     -1528.775       -1191.253
  -3359596.113 9  -2607993.07046  24498756.198    24498757.1114   24498764.8934
      2077.293        1618.670
   -717411.133 9   -547377.20148  20803725.817    20803727.6464   20803733.2314
     -1652.992       -1288.046
 -21100522.718 9 -16427206.21648  20686966.878    20686968.8364   20686975.5264
      2478.934        1931.637
  -6132614.150 9  -4762949.72447  23104150.353    23104152.5574   23104159.7994
      3024.305        2356.601
 -24363871.924 9 -18965543.02748  20522326.182    20522328.2654   20522333.8644
      2229.471        1737.250
   3791428.175 9   2969792.44546  23819636.565    23819638.2424   23819646.2124
     -2155.032       -1679.246
 96 11 19 18 19 59.9970000  0  7 21 30  1 15 29 25 31               -0.002232254
   3169343.913 9   2472385.72947  21376000.931    21376003.1344   21376009.5634
     -1537.630       -1198.153
  -3421766.035 9  -2656437.14946  24486925.154    24486926.7134   24486934.4164
      2067.342        1610.916
   -667725.312 9   -508660.98148  20813180.760    20813182.5694   20813188.1264
     -1659.335       -1292.988
 -21174635.527 9 -16484956.45348  20672863.839    20672865.7094   20672872.3224
      2461.970        1918.418
  -6223233.779 9  -4833562.34847  23086905.911    23086908.1374   23086915.3904
      3017.233        2351.091
 -24430508.011 9 -19017467.22448  20509645.740    20509647.7944   20509653.3984
      2213.159        1724.539
   3856135.905 9   3020213.98646  23831950.375    23831951.6994   23831959.7214
     -2158.766       -1682.155
 96 11 19 18 20 29.9970000  0  7 21 30  1 15 29 25 31               -0.002240414
   3215610.352 9   2508437.48248  21384805.099    21384807.4054   21384813.7544
     -1546.797       -1205.296
  -3483636.914 9  -2704648.27446  24475151.350    24475153.0284   24475160.6454
      2057.378        1603.152
   -617847.439 9   -469795.10848  20822672.175    20822674.0304   20822679.5894
     -1665.825       -1298.045
 -21248244.334 9 -16542313.95048  20658856.536    20658858.3614   20658865.0034
      2445.352        1905.469
  -6313656.894 9  -4904021.86647  23069699.027    23069701.1944   23069708.3614
      3011.080        2346.296
 -24496668.194 9 -19069020.59548  20497056.015    20497057.8744   20497063.5174
      2197.630        1712.439
   3920949.611 9   3070718.08746  23844283.874    23844285.3404   23844293.5244
     -2162.051       -1684.715
 96 11 19 18 20 59.9970000  0  7 21 30  1 15 29 25 31               -0.002248557
   3262164.964 9   2544713.78347  21393664.167    21393666.5164   21393672.7734
     -1556.909       -1213.176
  -3545205.603 9  -2752623.90446  24463434.021    24463436.8554   24463444.6104
      2047.153        1595.184
   -567780.194 9   -430781.68048  20832199.641    20832201.5324   20832207.0964
     -1672.002       -1302.859
 -21321353.319 9 -16599281.98548  20644944.197    20644946.1624   20644952.8184
      2428.412        1892.269
  -6403895.891 9  -4974337.90147  23052526.790    23052529.2364   23052536.4724
      3004.518        2341.183
 -24562358.765 9 -19120208.03048  20484555.606    20484557.3124   20484562.9844
      2181.631        1699.972
   3985856.610 9   3121294.94946  23856635.335    23856636.7994   23856644.9594
     -2165.160       -1687.138
 96 11 19 18 21 29.9970000  0  7 21 30  1 15 29 25 31               -0.002256673
   3309016.601 9   2581221.52547  21402580.449    21402582.1574   21402588.3644
     -1566.521       -1220.666
  -3606473.602 9  -2800365.23946  24451775.314    24451777.9104   24451785.5574
      2037.468        1587.637
   -517537.154 9   -391631.27348  20841760.602    20841762.4444   20841768.0364
     -1677.497       -1307.140
 -21393960.437 9 -16655858.96548  20631127.710    20631129.5194   20631136.0844
      2412.042        1879.513
  -6493932.134 9  -5044495.93647  23035393.313    23035395.8144   23035403.2864
      2998.117        2336.195
 -24627582.254 9 -19171031.51048  20472144.047    20472145.6924   20472151.3644
      2166.765        1688.388
   4050844.769 9   3171934.97346  23869002.671    23869003.7754   23869011.8384
     -2167.429       -1688.906
 96 11 19 18 21 59.9970000  0  7 21 30  1 15 29 25 31               -0.002264773
   3356149.324 9   2617948.29648  21411549.215    21411551.2304   21411557.4714
     -1575.992       -1228.046
  -3667449.956 8  -2847879.26846  24440172.156    24440174.4494   24440182.2894
      2027.177        1579.618
   -467130.345 9   -352353.25648  20851352.639    20851354.5014   20851360.0884
     -1683.391       -1311.733
 -21466078.299 9 -16712054.70248  20617404.046    20617405.9524   20617412.4934
      2395.395        1866.542
  -6583789.697 9  -5114514.72147  23018293.954    23018296.5094   23018303.8734
      2992.171        2331.562
 -24692366.630 9 -19221512.82848  20459815.935    20459817.6114   20459823.3274
      2151.852        1676.768
   4115888.937 9   3222618.68246  23881380.255    23881381.3654   23881389.3904
     -2169.187       -1690.276
 96 11 19 18 22 29.9970000  0  7 21 30  1 15 29 25 31               -0.002272857
   3403570.442 9   2654899.80047  21420573.014    21420575.0944   21420581.4664
     -1585.219       -1235.236
  -3728103.166 9  -2895141.54146  24428630.615    24428632.4634   24428640.4734
      2016.397        1571.218
   -416536.911 9   -312929.80948  20860980.170    20860982.0754   20860987.6764
     -1689.296       -1316.335
 -21537687.659 9 -16767854.19948  20603777.028    20603779.0964   20603785.6464
      2378.625        1853.474
  -6673465.559 9  -5184391.93747  23001229.396    23001231.6444   23001239.0824
      2986.216        2326.921
 -24756693.841 9 -19271637.90948  20447574.514    20447576.5384   20447582.2894
      2136.483        1664.792
   4180985.916 9   3273343.54446  23893768.141    23893769.0044   23893776.9774
     -2170.670       -1691.431
 96 11 19 18 22 59.9970000  0  7 21 30  1 15 29 25 31               -0.002280958
   3451257.712 9   2692058.68247  21429647.760    21429649.7084   21429656.0854
     -1593.637       -1241.795
  -3788435.908 8  -2942154.00846  24417149.160    24417151.4314   24417159.6984
      2006.068        1563.170
   -365783.205 9   -273381.47548  20870638.312    20870640.1914   20870645.7694
     -1694.113       -1320.088
 -21608797.095 9 -16823264.14148  20590245.092    20590247.3374   20590253.9214
      2362.150        1840.636
  -6762965.519 9  -5254132.06047  22984198.247    22984200.4394   22984207.7464
      2980.640        2322.577
 -24820551.929 9 -19321397.44448  20435422.653    20435424.7654   20435430.4844
      2120.928        1652.671
   4246121.326 9   3324098.32946  23906162.769    23906163.7204   23906171.9844
     -2171.605       -1692.160
 96 11 19 18 23 29.9970000  0  7 21 30  1 15 29 25 31               -0.002289074
   3499211.343 9   2729425.10747  21438773.030    21438775.0354   21438781.4054
     -1603.030       -1249.114
  -3848435.258 9  -2988906.74246  24405731.466    24405734.0124   24405741.9464
      1994.195        1553.918
   -314860.523 9   -233701.48348  20880328.658    20880330.4424   20880336.0554
     -1700.573       -1325.122
 -21679389.141 9 -16878270.92548  20576811.979    20576814.0844   20576820.7214
      2344.203        1826.652
  -6852274.866 9  -5323723.64947  22967203.281    22967205.4184   22967212.7464
      2973.705        2317.173
 -24883923.237 9 -19370777.66648  20423363.234    20423365.5124   20423371.3314
      2104.065        1639.531
   4311316.575 9   3374899.73246  23918568.562    23918569.9794   23918578.3184
     -2174.742       -1694.604
 96 11 19 18 23 59.9970000  0  7 21 30  1 15 29 25 31               -0.002297201
   3547419.779 9   2766990.09547  21447946.997    21447948.8764   21447955.2224
     -1610.983       -1255.311
  -3908102.596 9  -3035400.73246  24394377.897    24394379.7734   24394387.3724
      1983.576        1545.644
   -263761.030 9   -193883.71948  20890052.534    20890054.3204   20890059.9874
     -1706.198       -1329.505
 -21749467.913 9 -16932877.75148  20563476.259    20563478.5174   20563485.2764
      2327.593        1813.709
  -6941406.201 9  -5393176.56247  22950241.855    22950244.2694   22950251.6884
      2968.125        2312.825
 -24946813.698 9 -19419783.19948  20411395.566    20411397.8374   20411403.6694
      2088.503        1627.405
   4376589.177 9   3425761.45046  23930989.794    23930991.1454   23930999.3534
     -2176.988       -1696.354
 96 11 19 18 24 29.9970000  0  7 21 30  1 15 29 25 31               -0.002305334
   3595874.072 9   2804746.64947  21457167.720    21457169.4424   21457175.7834
     -1619.633       -1262.052
  -3967453.212 8  -3081647.90646  24383083.626    24383085.6244   24383093.2594
      1973.041        1537.435
   -212488.391 9   -153931.02748  20899809.273    20899811.1614   20899816.8964
     -1712.236       -1334.210
 -21819043.019 9 -16987092.13048  20550237.037    20550238.9084   20550245.5354
      2310.434        1800.338
  -7030361.486 9  -5462492.27747  22933313.912    22933316.5384   22933324.0014
      2961.910        2307.982
 -25009231.286 9 -19468420.26848  20399517.903    20399520.1824   20399525.9854
      2072.283        1614.766
   4441946.625 9   3476689.22046  23943427.152    23943428.3854   23943436.4564
     -2180.523       -1699.109
 96 11 19 18 24 59.9970000  0  7 21 30  1 15 29 25 31               -0.002313452
   3644598.037 9   2842713.35347  21466439.370    21466441.3014   21466447.6794
     -1628.957       -1269.317
  -4026489.961 9  -3127650.46446  24371848.991    24371851.1304   24371858.7764
      1962.639        1529.329
   -161024.498 9   -113829.31248  20909602.634    20909604.4134   20909610.1814
     -1718.988       -1339.471
 -21888095.191 9 -17040899.00748  20537096.702    20537098.6554   20537105.3524
      2292.768        1786.572
  -7119122.408 9  -5531656.51847  22916423.182    22916425.8694   22916433.1724
      2955.118        2302.689
 -25071159.536 9 -19516676.03248  20387733.220    20387735.6634   20387741.4374
      2056.063        1602.127
   4507414.009 9   3527702.71246  23955884.987    23955886.4744   23955894.5194
     -2184.156       -1701.940
 96 11 19 18 25 29.9970000  0  7 21 30  1 15 29 25 31               -0.002321534
   3693609.813 9   2880904.31747  21475765.862    21475767.8754   21475774.3064
     -1638.516       -1276.766
  -4085212.917 9  -3173408.49646  24360674.477    24360676.5524   24360684.3894
      1952.378        1521.334
   -109354.528 9    -73567.01248  20919434.918    20919436.8734   20919442.6664
     -1725.583       -1344.610
 -21956612.523 9 -17094289.13748  20524058.350    20524060.2944   20524066.9234
      2275.111        1772.814
  -7207667.189 9  -5600652.36847  22899573.772    22899576.3054   22899583.5894
      2948.060        2297.190
 -25132599.041 9 -19564550.95948  20376041.841    20376044.1674   20376049.9044
      2039.909        1589.539
   4572988.773 9   3578799.86746  23968363.354    23968365.0504   23968372.9514
     -2187.350       -1704.428
 96 11 19 18 25 59.9970000  0  7 21 30  1 15 29 25 31               -0.002329591
   3742900.946 9   2919312.95847  21485145.591    21485147.6634   21485154.1614
     -1647.856       -1284.044
  -4143631.777 8  -3218929.59246  24349558.126    24349559.8934   24349567.6984
      1941.719        1513.028
    -57496.653 9    -33158.29648  20929303.286    20929305.1714   20929310.9264
     -1731.836       -1349.483
 -22024611.212 9 -17147275.11648  20511118.439    20511120.5664   20511127.2454
      2257.630        1759.192
  -7296016.407 9  -5669495.81847  22882761.688    22882763.9824   22882771.1704
      2941.425        2292.019
 -25193566.207 9 -19612057.81548  20364440.306    20364442.5194   20364448.2084
      2024.146        1577.257
   4638630.102 9   3629948.86846  23980854.243    23980856.1734   23980864.1804
     -2189.132       -1705.817
 96 11 19 18 26 29.9970000  0  7 21 30  1 15 29 25 31               -0.002337648
   3792456.996 9   2957928.02347  21494576.026    21494577.9044   21494584.4214
     -1656.253       -1290.587
  -4201739.028 8  -3264207.81245  24338500.775    24338502.2374   24338510.0314
      1931.600        1505.143
     -5473.663 9      7379.07848  20939202.941    20939204.8094   20939210.6004
     -1736.687       -1353.263
 -22092093.135 9 -17199858.42648  20498277.146    20498279.2474   20498285.8834
      2240.720        1746.015
  -7384181.218 9  -5738195.60447  22865984.435    22865986.6904   22865993.7684
      2935.870        2287.691
 -25254062.320 9 -19659197.62848  20352928.434    20352930.4694   20352936.1274
      2008.444        1565.021
   4704300.014 9   3681120.18446  23993351.121    23993352.7744   23993360.6784
     -2189.290       -1705.940
 96 11 19 18 26 59.9970000  0  7 21 30  1 15 29 25 31               -0.002345715
   3842292.508 9   2996760.85447  21504059.532    21504061.3324   21504067.8994
     -1665.905       -1298.108
  -4259496.791 9  -3309213.72346  24327509.486    24327510.9314   24327518.9104
      1919.067        1495.377
     46720.033 9     48049.48048  20949135.057    20949136.9104   20949142.7654
     -1742.579       -1357.854
 -22159037.586 9 -17252022.91948  20485538.202    20485540.1614   20485546.7154
      2222.436        1731.768
  -7472147.333 9  -5806740.53647  22849245.023    22849247.2794   22849254.1534
      2928.808        2282.188
 -25314058.753 9 -19705948.07848  20341511.451    20341513.5334   20341519.1654
      1991.602        1551.898
   4769989.618 9   3732306.87446  24005851.701    24005853.2314   24005861.1244
     -2189.990       -1706.486
 96 11 19 18 27 29.9970000  0  7 21 30  1 15 29 25 31               -0.002353798
   3892402.024 9   3035807.20447  21513595.031    21513596.8954   21513603.4734
     -1674.655       -1304.926
  -4316885.887 9  -3353932.38546  24316588.965    24316590.0924   24316598.0274
      1906.901        1485.897
     99070.795 9     88842.27048  20959097.069    20959098.9724   20959104.8054
     -1747.490       -1361.681
 -22225446.113 9 -17303769.81248  20472901.258    20472903.0254   20472909.6234
      2204.842        1718.059
  -7559923.510 9  -5875137.49047  22832541.905    22832544.0054   22832550.8694
      2923.237        2277.847
 -25373559.870 9 -19752312.56948  20330188.844    20330190.8074   20330196.4564
      1975.144        1539.073
   4835691.536 9   3783503.10646  24018354.281    24018355.8944   24018363.8284
     -2190.304       -1706.730
 96 11 19 18 27 59.9970000  0  7 21 30  1 15 29 25 31               -0.002361917
   3942758.615 9   3075046.07247  21523177.962    21523179.4514   21523186.0214
     -1682.708       -1311.201
  -4373912.293 8  -3398368.42146  24305736.691    24305738.3994   24305746.1794
      1894.667        1476.364
    151562.601 9    129744.96148  20969086.049    20969087.8664   20969093.6834
     -1752.154       -1365.315
 -22291333.530 9 -17355110.64848  20460363.326    20460365.0184   20460371.5824
      2187.358        1704.435
  -7647548.507 9  -5943416.65747  22815867.371    22815869.4954   22815876.3364
      2918.073        2273.823
 -25432570.705 9 -19798295.02348  20318959.160    20318961.3974   20318967.0224
      1958.643        1526.215
   4901401.838 9   3834705.90246  24030858.487    24030860.1794   24030868.1474
     -2190.906       -1707.199
 96 11 19 18 28 29.9970000  0  8 21 14 30  1 15 29 25 31            -0.002370073
   3993377.402 9   3114489.25847  21532810.096    21532811.8554   21532818.4034
     -1692.072       -1318.498
   -218245.63919   -158924.94456  23649358.921           0.0005   23649365.6525
      3275.521        2552.354
  -4430570.097 9  -3442517.26746  24294955.182    24294956.8474   24294964.6814
      1882.678        1467.022
    204205.302 9    170765.23848  20979103.667    20979105.4564   20979111.2594
     -1757.385       -1369.391
 -22356683.983 9 -17406033.08348  20447927.399    20447929.2144   20447935.7334
      2169.309        1690.371
  -7735004.838 9  -6011564.39947  22799224.801    22799227.1594   22799233.9524
      2912.254        2269.289
 -25491065.962 9 -19843875.72748  20307828.176    20307830.1014   20307835.6904
      1941.093        1512.540
   4967153.033 9   3885940.55946  24043370.725    24043372.2964   24043380.3244
     -2192.703       -1708.600
 96 11 19 18 28 59.9970000  0  8 21 14 30  1 15 29 25 31            -0.002378233
   4044273.669 9   3154148.65947  21542495.039    21542497.1114   21542503.5764
     -1701.074       -1325.512
   -316515.854 9   -235499.03346  23630657.316    23630658.2275   23630667.7054
      3275.619        2552.430
  -4486882.859 9  -3486397.27346  24284238.361    24284240.7674   24284248.7524
      1871.475        1458.292
    256989.906 9    211896.08448  20989148.217    20989150.0014   20989155.8214
     -1761.784       -1372.819
 -22421505.494 9 -17456543.34848  20435592.207    20435594.1014   20435600.5684
      2152.002        1676.885
  -7822290.243 9  -6079578.94247  22782615.073    22782617.3024   22782624.0244
      2906.612        2264.892
 -25549056.431 9 -19889063.09848  20296793.098    20296794.8704   20296800.4414
      1924.905        1499.926
   5032951.609 9   3937212.13246  24055891.604    24055893.3584   24055901.3724
     -2194.160       -1709.735
 96 11 19 18 29 29.9970000  0  8 21 14 30  1 15 29 25 31            -0.002386414
   4095444.217 9   3194021.76847  21552232.798    21552234.5694   21552240.9794
     -1709.818       -1332.326
   -414773.139 9   -312063.08957  23611960.354    23611960.8874   23611969.2235
      3275.389        2552.251
  -4542857.630 9  -3530013.99546  24273586.337    24273589.2674   24273596.9834
      1860.490        1449.732
    309928.188 9    253146.68048  20999222.018    20999223.8424   20999229.6664
     -1767.228       -1377.061
 -22485792.284 9 -17506636.95348  20423358.991    20423360.7934   20423367.2274
      2134.139        1662.965
  -7909389.844 9  -6147448.74747  22766040.337    22766042.7104   22766049.4194
      2900.269        2259.950
 -25606541.554 9 -19933856.69048  20285853.981    20285855.8504   20285861.3684
      1907.692        1486.513
   5098810.798 9   3988530.92146  24068424.165    24068425.8784   24068433.9684
     -2196.113       -1711.257
